<?xml version="1.0" encoding="utf-8"?>
<gpx xmlns:xsi="http://www.w3.org/2001/XMLSchema-instance" xmlns:xsd="http://www.w3.org/2001/XMLSchema" version="1.1" creator="Shapelink.com" xmlns="http://www.topografix.com/GPX/1/1" xmlns:gpxtpx="http://www.garmin.com/xmlschemas/TrackPointExtension/v1">
  <metadata>
    <name>Cykling 97.08 km, 2012-07-19</name>
    <desc></desc>
    <author><name>Alexander Engvall</name></author> 
    <time>2012-07-19T17:58:17Z</time>
  </metadata>
  <trk>
    <name>Cykling 97.08 km, 2012-07-19</name>
    <trkseg>
      <trkpt lat="59.6147524" lon="14.9311375">
        <ele>93.8</ele>
        <time>2012-07-19T17:58:17Z</time>
      </trkpt>
      <trkpt lat="59.6151615" lon="14.9310508">
        <ele>93.2</ele>
        <time>2012-07-19T17:58:25Z</time>
      </trkpt>
      <trkpt lat="59.6155985" lon="14.9309361">
        <ele>97.2</ele>
        <time>2012-07-19T17:58:31Z</time>
      </trkpt>
      <trkpt lat="59.6159472" lon="14.9308906">
        <ele>97</ele>
        <time>2012-07-19T17:58:36Z</time>
      </trkpt>
      <trkpt lat="59.6163444" lon="14.9308223">
        <ele>95.6</ele>
        <time>2012-07-19T17:58:42Z</time>
      </trkpt>
      <trkpt lat="59.6167263" lon="14.9307662">
        <ele>94.8</ele>
        <time>2012-07-19T17:58:48Z</time>
      </trkpt>
      <trkpt lat="59.6171035" lon="14.9307601">
        <ele>95.2</ele>
        <time>2012-07-19T17:58:54Z</time>
      </trkpt>
      <trkpt lat="59.6175366" lon="14.9307922">
        <ele>98.6</ele>
        <time>2012-07-19T17:59:00Z</time>
      </trkpt>
      <trkpt lat="59.6179549" lon="14.9309153">
        <ele>99</ele>
        <time>2012-07-19T17:59:06Z</time>
      </trkpt>
      <trkpt lat="59.618329" lon="14.9309987">
        <ele>99</ele>
        <time>2012-07-19T17:59:11Z</time>
      </trkpt>
      <trkpt lat="59.6187288" lon="14.9310942">
        <ele>98.4</ele>
        <time>2012-07-19T17:59:16Z</time>
      </trkpt>
      <trkpt lat="59.6191176" lon="14.9311921">
        <ele>98.8</ele>
        <time>2012-07-19T17:59:21Z</time>
      </trkpt>
      <trkpt lat="59.6194784" lon="14.9312559">
        <ele>99.8</ele>
        <time>2012-07-19T17:59:26Z</time>
      </trkpt>
      <trkpt lat="59.6198977" lon="14.931251">
        <ele>101.2</ele>
        <time>2012-07-19T17:59:32Z</time>
      </trkpt>
      <trkpt lat="59.6203144" lon="14.9311678">
        <ele>102.6</ele>
        <time>2012-07-19T17:59:38Z</time>
      </trkpt>
      <trkpt lat="59.6207384" lon="14.9310741">
        <ele>103.6</ele>
        <time>2012-07-19T17:59:44Z</time>
      </trkpt>
      <trkpt lat="59.6211025" lon="14.9309921">
        <ele>104</ele>
        <time>2012-07-19T17:59:49Z</time>
      </trkpt>
      <trkpt lat="59.6214849" lon="14.9309114">
        <ele>103.8</ele>
        <time>2012-07-19T17:59:54Z</time>
      </trkpt>
      <trkpt lat="59.6218923" lon="14.9308243">
        <ele>103.2</ele>
        <time>2012-07-19T17:59:59Z</time>
      </trkpt>
      <trkpt lat="59.622326" lon="14.9307337">
        <ele>102</ele>
        <time>2012-07-19T18:00:04Z</time>
      </trkpt>
      <trkpt lat="59.6227049" lon="14.9306518">
        <ele>100.6</ele>
        <time>2012-07-19T18:00:08Z</time>
      </trkpt>
      <trkpt lat="59.6231052" lon="14.9305622">
        <ele>99</ele>
        <time>2012-07-19T18:00:12Z</time>
      </trkpt>
      <trkpt lat="59.6235067" lon="14.9304735">
        <ele>97</ele>
        <time>2012-07-19T18:00:16Z</time>
      </trkpt>
      <trkpt lat="59.6239219" lon="14.9303934">
        <ele>93.6</ele>
        <time>2012-07-19T18:00:20Z</time>
      </trkpt>
      <trkpt lat="59.6243555" lon="14.9303041">
        <ele>91.6</ele>
        <time>2012-07-19T18:00:24Z</time>
      </trkpt>
      <trkpt lat="59.6247707" lon="14.9301813">
        <ele>89.6</ele>
        <time>2012-07-19T18:00:28Z</time>
      </trkpt>
      <trkpt lat="59.625154" lon="14.9300157">
        <ele>88.2</ele>
        <time>2012-07-19T18:00:32Z</time>
      </trkpt>
      <trkpt lat="59.6255339" lon="14.9297144">
        <ele>96.4</ele>
        <time>2012-07-19T18:00:36Z</time>
      </trkpt>
      <trkpt lat="59.6258821" lon="14.9294148">
        <ele>98.2</ele>
        <time>2012-07-19T18:00:40Z</time>
      </trkpt>
      <trkpt lat="59.6262169" lon="14.9290884">
        <ele>99</ele>
        <time>2012-07-19T18:00:44Z</time>
      </trkpt>
      <trkpt lat="59.6265437" lon="14.9287628">
        <ele>99.4</ele>
        <time>2012-07-19T18:00:48Z</time>
      </trkpt>
      <trkpt lat="59.626938" lon="14.9283648">
        <ele>99.8</ele>
        <time>2012-07-19T18:00:53Z</time>
      </trkpt>
      <trkpt lat="59.6273114" lon="14.9279437">
        <ele>99</ele>
        <time>2012-07-19T18:00:58Z</time>
      </trkpt>
      <trkpt lat="59.6276523" lon="14.9274919">
        <ele>97.6</ele>
        <time>2012-07-19T18:01:03Z</time>
      </trkpt>
      <trkpt lat="59.627959" lon="14.9269979">
        <ele>96</ele>
        <time>2012-07-19T18:01:08Z</time>
      </trkpt>
      <trkpt lat="59.6282488" lon="14.9264641">
        <ele>95</ele>
        <time>2012-07-19T18:01:13Z</time>
      </trkpt>
      <trkpt lat="59.6285199" lon="14.9258803">
        <ele>94.6</ele>
        <time>2012-07-19T18:01:18Z</time>
      </trkpt>
      <trkpt lat="59.6287664" lon="14.9252452">
        <ele>94.6</ele>
        <time>2012-07-19T18:01:23Z</time>
      </trkpt>
      <trkpt lat="59.6290082" lon="14.9246113">
        <ele>95.2</ele>
        <time>2012-07-19T18:01:28Z</time>
      </trkpt>
      <trkpt lat="59.6292457" lon="14.9239665">
        <ele>95.6</ele>
        <time>2012-07-19T18:01:33Z</time>
      </trkpt>
      <trkpt lat="59.6294824" lon="14.9233147">
        <ele>96</ele>
        <time>2012-07-19T18:01:38Z</time>
      </trkpt>
      <trkpt lat="59.6297268" lon="14.9226689">
        <ele>96.2</ele>
        <time>2012-07-19T18:01:43Z</time>
      </trkpt>
      <trkpt lat="59.6299626" lon="14.9220218">
        <ele>96.2</ele>
        <time>2012-07-19T18:01:48Z</time>
      </trkpt>
      <trkpt lat="59.6301996" lon="14.9213855">
        <ele>96.6</ele>
        <time>2012-07-19T18:01:53Z</time>
      </trkpt>
      <trkpt lat="59.6304276" lon="14.9207343">
        <ele>96.8</ele>
        <time>2012-07-19T18:01:58Z</time>
      </trkpt>
      <trkpt lat="59.6306394" lon="14.9200736">
        <ele>97</ele>
        <time>2012-07-19T18:02:03Z</time>
      </trkpt>
      <trkpt lat="59.6308301" lon="14.9194198">
        <ele>97.4</ele>
        <time>2012-07-19T18:02:08Z</time>
      </trkpt>
      <trkpt lat="59.6310048" lon="14.918751">
        <ele>98</ele>
        <time>2012-07-19T18:02:13Z</time>
      </trkpt>
      <trkpt lat="59.6311619" lon="14.918072">
        <ele>98.4</ele>
        <time>2012-07-19T18:02:18Z</time>
      </trkpt>
      <trkpt lat="59.6313157" lon="14.9173976">
        <ele>99.4</ele>
        <time>2012-07-19T18:02:23Z</time>
      </trkpt>
      <trkpt lat="59.6314672" lon="14.9167408">
        <ele>100</ele>
        <time>2012-07-19T18:02:28Z</time>
      </trkpt>
      <trkpt lat="59.6316418" lon="14.9159839">
        <ele>101.6</ele>
        <time>2012-07-19T18:02:34Z</time>
      </trkpt>
      <trkpt lat="59.6318269" lon="14.9152539">
        <ele>103.6</ele>
        <time>2012-07-19T18:02:40Z</time>
      </trkpt>
      <trkpt lat="59.6320318" lon="14.9145278">
        <ele>105.6</ele>
        <time>2012-07-19T18:02:46Z</time>
      </trkpt>
      <trkpt lat="59.6322521" lon="14.9138139">
        <ele>107.2</ele>
        <time>2012-07-19T18:02:52Z</time>
      </trkpt>
      <trkpt lat="59.6324589" lon="14.9132302">
        <ele>108.2</ele>
        <time>2012-07-19T18:02:57Z</time>
      </trkpt>
      <trkpt lat="59.6326747" lon="14.9126584">
        <ele>108.6</ele>
        <time>2012-07-19T18:03:02Z</time>
      </trkpt>
      <trkpt lat="59.6329095" lon="14.9120828">
        <ele>109</ele>
        <time>2012-07-19T18:03:07Z</time>
      </trkpt>
      <trkpt lat="59.6331613" lon="14.9115102">
        <ele>109.8</ele>
        <time>2012-07-19T18:03:12Z</time>
      </trkpt>
      <trkpt lat="59.6334213" lon="14.9109367">
        <ele>110.2</ele>
        <time>2012-07-19T18:03:17Z</time>
      </trkpt>
      <trkpt lat="59.6336876" lon="14.9103702">
        <ele>110.4</ele>
        <time>2012-07-19T18:03:22Z</time>
      </trkpt>
      <trkpt lat="59.6339496" lon="14.9098048">
        <ele>110</ele>
        <time>2012-07-19T18:03:27Z</time>
      </trkpt>
      <trkpt lat="59.6342072" lon="14.9092552">
        <ele>108.2</ele>
        <time>2012-07-19T18:03:32Z</time>
      </trkpt>
      <trkpt lat="59.6344714" lon="14.9086849">
        <ele>104.8</ele>
        <time>2012-07-19T18:03:37Z</time>
      </trkpt>
      <trkpt lat="59.6347628" lon="14.9080863">
        <ele>102.2</ele>
        <time>2012-07-19T18:03:42Z</time>
      </trkpt>
      <trkpt lat="59.6350826" lon="14.9074702">
        <ele>99.6</ele>
        <time>2012-07-19T18:03:47Z</time>
      </trkpt>
      <trkpt lat="59.6353763" lon="14.9069886">
        <ele>97.2</ele>
        <time>2012-07-19T18:03:51Z</time>
      </trkpt>
      <trkpt lat="59.6356993" lon="14.9065069">
        <ele>94.4</ele>
        <time>2012-07-19T18:03:55Z</time>
      </trkpt>
      <trkpt lat="59.6360447" lon="14.9060417">
        <ele>92</ele>
        <time>2012-07-19T18:03:59Z</time>
      </trkpt>
      <trkpt lat="59.6364014" lon="14.9056273">
        <ele>90</ele>
        <time>2012-07-19T18:04:03Z</time>
      </trkpt>
      <trkpt lat="59.6367688" lon="14.9052108">
        <ele>91.8</ele>
        <time>2012-07-19T18:04:07Z</time>
      </trkpt>
      <trkpt lat="59.6371261" lon="14.9048206">
        <ele>93.8</ele>
        <time>2012-07-19T18:04:11Z</time>
      </trkpt>
      <trkpt lat="59.6374614" lon="14.9044519">
        <ele>94.8</ele>
        <time>2012-07-19T18:04:15Z</time>
      </trkpt>
      <trkpt lat="59.6377676" lon="14.9040671">
        <ele>94.8</ele>
        <time>2012-07-19T18:04:19Z</time>
      </trkpt>
      <trkpt lat="59.6380865" lon="14.9035237">
        <ele>95</ele>
        <time>2012-07-19T18:04:24Z</time>
      </trkpt>
      <trkpt lat="59.6383408" lon="14.902933">
        <ele>95.2</ele>
        <time>2012-07-19T18:04:29Z</time>
      </trkpt>
      <trkpt lat="59.6385357" lon="14.902311">
        <ele>95.8</ele>
        <time>2012-07-19T18:04:34Z</time>
      </trkpt>
      <trkpt lat="59.6386947" lon="14.9016619">
        <ele>96.6</ele>
        <time>2012-07-19T18:04:39Z</time>
      </trkpt>
      <trkpt lat="59.6388274" lon="14.9009134">
        <ele>99.6</ele>
        <time>2012-07-19T18:04:45Z</time>
      </trkpt>
      <trkpt lat="59.6389283" lon="14.9001971">
        <ele>103.6</ele>
        <time>2012-07-19T18:04:51Z</time>
      </trkpt>
      <trkpt lat="59.638998" lon="14.89945">
        <ele>106.4</ele>
        <time>2012-07-19T18:04:57Z</time>
      </trkpt>
      <trkpt lat="59.6390438" lon="14.8986912">
        <ele>110</ele>
        <time>2012-07-19T18:05:03Z</time>
      </trkpt>
      <trkpt lat="59.6390376" lon="14.8978944">
        <ele>111.6</ele>
        <time>2012-07-19T18:05:09Z</time>
      </trkpt>
      <trkpt lat="59.6390029" lon="14.8970765">
        <ele>110.6</ele>
        <time>2012-07-19T18:05:15Z</time>
      </trkpt>
      <trkpt lat="59.6389659" lon="14.8962663">
        <ele>109.8</ele>
        <time>2012-07-19T18:05:21Z</time>
      </trkpt>
      <trkpt lat="59.6389367" lon="14.8954705">
        <ele>110</ele>
        <time>2012-07-19T18:05:27Z</time>
      </trkpt>
      <trkpt lat="59.6389266" lon="14.8946698">
        <ele>111</ele>
        <time>2012-07-19T18:05:33Z</time>
      </trkpt>
      <trkpt lat="59.6389288" lon="14.8938484">
        <ele>111.8</ele>
        <time>2012-07-19T18:05:39Z</time>
      </trkpt>
      <trkpt lat="59.6389525" lon="14.8931263">
        <ele>112</ele>
        <time>2012-07-19T18:05:44Z</time>
      </trkpt>
      <trkpt lat="59.6390164" lon="14.8923797">
        <ele>112.6</ele>
        <time>2012-07-19T18:05:49Z</time>
      </trkpt>
      <trkpt lat="59.6391446" lon="14.8916902">
        <ele>114</ele>
        <time>2012-07-19T18:05:54Z</time>
      </trkpt>
      <trkpt lat="59.639323" lon="14.8910781">
        <ele>115</ele>
        <time>2012-07-19T18:05:59Z</time>
      </trkpt>
      <trkpt lat="59.6395405" lon="14.8904259">
        <ele>116.6</ele>
        <time>2012-07-19T18:06:05Z</time>
      </trkpt>
      <trkpt lat="59.6397464" lon="14.8897989">
        <ele>118.8</ele>
        <time>2012-07-19T18:06:11Z</time>
      </trkpt>
      <trkpt lat="59.6399576" lon="14.8891778">
        <ele>120.2</ele>
        <time>2012-07-19T18:06:17Z</time>
      </trkpt>
      <trkpt lat="59.6401343" lon="14.8886361">
        <ele>120.6</ele>
        <time>2012-07-19T18:06:22Z</time>
      </trkpt>
      <trkpt lat="59.6401749" lon="14.8885284">
        <ele>120.8</ele>
        <time>2012-07-19T18:06:23Z</time>
      </trkpt>
      <trkpt lat="59.6404278" lon="14.8878647">
        <ele>121.6</ele>
        <time>2012-07-19T18:06:29Z</time>
      </trkpt>
      <trkpt lat="59.6406635" lon="14.8872419">
        <ele>123.2</ele>
        <time>2012-07-19T18:06:35Z</time>
      </trkpt>
      <trkpt lat="59.6409085" lon="14.8866343">
        <ele>123.8</ele>
        <time>2012-07-19T18:06:41Z</time>
      </trkpt>
      <trkpt lat="59.6411846" lon="14.885994">
        <ele>122</ele>
        <time>2012-07-19T18:06:47Z</time>
      </trkpt>
      <trkpt lat="59.6414454" lon="14.8854005">
        <ele>120.6</ele>
        <time>2012-07-19T18:06:52Z</time>
      </trkpt>
      <trkpt lat="59.6417395" lon="14.8847399">
        <ele>119</ele>
        <time>2012-07-19T18:06:57Z</time>
      </trkpt>
      <trkpt lat="59.6419944" lon="14.8841618">
        <ele>117.6</ele>
        <time>2012-07-19T18:07:01Z</time>
      </trkpt>
      <trkpt lat="59.6422582" lon="14.8835708">
        <ele>116</ele>
        <time>2012-07-19T18:07:05Z</time>
      </trkpt>
      <trkpt lat="59.6425175" lon="14.8829701">
        <ele>114.6</ele>
        <time>2012-07-19T18:07:09Z</time>
      </trkpt>
      <trkpt lat="59.6427783" lon="14.8823798">
        <ele>112.8</ele>
        <time>2012-07-19T18:07:13Z</time>
      </trkpt>
      <trkpt lat="59.6430362" lon="14.8818017">
        <ele>110.8</ele>
        <time>2012-07-19T18:07:17Z</time>
      </trkpt>
      <trkpt lat="59.6433086" lon="14.8811977">
        <ele>109.4</ele>
        <time>2012-07-19T18:07:21Z</time>
      </trkpt>
      <trkpt lat="59.6435826" lon="14.8805906">
        <ele>108.2</ele>
        <time>2012-07-19T18:07:25Z</time>
      </trkpt>
      <trkpt lat="59.6438422" lon="14.8799926">
        <ele>107.8</ele>
        <time>2012-07-19T18:07:29Z</time>
      </trkpt>
      <trkpt lat="59.6440947" lon="14.8794262">
        <ele>107.4</ele>
        <time>2012-07-19T18:07:33Z</time>
      </trkpt>
      <trkpt lat="59.6443432" lon="14.8788731">
        <ele>106.8</ele>
        <time>2012-07-19T18:07:37Z</time>
      </trkpt>
      <trkpt lat="59.6445912" lon="14.8783109">
        <ele>105.8</ele>
        <time>2012-07-19T18:07:41Z</time>
      </trkpt>
      <trkpt lat="59.6448335" lon="14.8777578">
        <ele>105.6</ele>
        <time>2012-07-19T18:07:45Z</time>
      </trkpt>
      <trkpt lat="59.6451076" lon="14.8771187">
        <ele>107.2</ele>
        <time>2012-07-19T18:07:50Z</time>
      </trkpt>
      <trkpt lat="59.645366" lon="14.8765233">
        <ele>109</ele>
        <time>2012-07-19T18:07:55Z</time>
      </trkpt>
      <trkpt lat="59.6456289" lon="14.875926">
        <ele>108.4</ele>
        <time>2012-07-19T18:08:00Z</time>
      </trkpt>
      <trkpt lat="59.6458943" lon="14.8753086">
        <ele>107.8</ele>
        <time>2012-07-19T18:08:05Z</time>
      </trkpt>
      <trkpt lat="59.6461531" lon="14.8747145">
        <ele>107</ele>
        <time>2012-07-19T18:08:10Z</time>
      </trkpt>
      <trkpt lat="59.6464007" lon="14.8741354">
        <ele>107</ele>
        <time>2012-07-19T18:08:15Z</time>
      </trkpt>
      <trkpt lat="59.6466435" lon="14.8735665">
        <ele>107.6</ele>
        <time>2012-07-19T18:08:20Z</time>
      </trkpt>
      <trkpt lat="59.646878" lon="14.8730051">
        <ele>108.8</ele>
        <time>2012-07-19T18:08:25Z</time>
      </trkpt>
      <trkpt lat="59.6471189" lon="14.872443">
        <ele>109</ele>
        <time>2012-07-19T18:08:30Z</time>
      </trkpt>
      <trkpt lat="59.6473599" lon="14.8718743">
        <ele>108.8</ele>
        <time>2012-07-19T18:08:35Z</time>
      </trkpt>
      <trkpt lat="59.6476003" lon="14.8713009">
        <ele>108.4</ele>
        <time>2012-07-19T18:08:40Z</time>
      </trkpt>
      <trkpt lat="59.6478553" lon="14.8707529">
        <ele>109</ele>
        <time>2012-07-19T18:08:45Z</time>
      </trkpt>
      <trkpt lat="59.6481431" lon="14.8702545">
        <ele>109</ele>
        <time>2012-07-19T18:08:50Z</time>
      </trkpt>
      <trkpt lat="59.648502" lon="14.8698059">
        <ele>110</ele>
        <time>2012-07-19T18:08:55Z</time>
      </trkpt>
      <trkpt lat="59.6488886" lon="14.8694597">
        <ele>112.4</ele>
        <time>2012-07-19T18:09:00Z</time>
      </trkpt>
      <trkpt lat="59.6492718" lon="14.8692172">
        <ele>115.2</ele>
        <time>2012-07-19T18:09:05Z</time>
      </trkpt>
      <trkpt lat="59.6496582" lon="14.8689951">
        <ele>115.8</ele>
        <time>2012-07-19T18:09:10Z</time>
      </trkpt>
      <trkpt lat="59.6500935" lon="14.8687627">
        <ele>114.6</ele>
        <time>2012-07-19T18:09:15Z</time>
      </trkpt>
      <trkpt lat="59.6505258" lon="14.86853">
        <ele>114</ele>
        <time>2012-07-19T18:09:20Z</time>
      </trkpt>
      <trkpt lat="59.6509487" lon="14.8683062">
        <ele>113.4</ele>
        <time>2012-07-19T18:09:25Z</time>
      </trkpt>
      <trkpt lat="59.6513714" lon="14.86808">
        <ele>113.6</ele>
        <time>2012-07-19T18:09:30Z</time>
      </trkpt>
      <trkpt lat="59.6517858" lon="14.867852">
        <ele>114.2</ele>
        <time>2012-07-19T18:09:35Z</time>
      </trkpt>
      <trkpt lat="59.6521869" lon="14.8676365">
        <ele>114.4</ele>
        <time>2012-07-19T18:09:40Z</time>
      </trkpt>
      <trkpt lat="59.6525717" lon="14.8674363">
        <ele>115.4</ele>
        <time>2012-07-19T18:09:45Z</time>
      </trkpt>
      <trkpt lat="59.6529349" lon="14.8672391">
        <ele>116</ele>
        <time>2012-07-19T18:09:50Z</time>
      </trkpt>
      <trkpt lat="59.6532946" lon="14.8670594">
        <ele>116.8</ele>
        <time>2012-07-19T18:09:55Z</time>
      </trkpt>
      <trkpt lat="59.6536451" lon="14.8668724">
        <ele>117.8</ele>
        <time>2012-07-19T18:10:00Z</time>
      </trkpt>
      <trkpt lat="59.6539915" lon="14.8666844">
        <ele>119</ele>
        <time>2012-07-19T18:10:05Z</time>
      </trkpt>
      <trkpt lat="59.6543783" lon="14.8664537">
        <ele>120.2</ele>
        <time>2012-07-19T18:10:11Z</time>
      </trkpt>
      <trkpt lat="59.6547244" lon="14.8662154">
        <ele>118.8</ele>
        <time>2012-07-19T18:10:17Z</time>
      </trkpt>
      <trkpt lat="59.6550492" lon="14.8659467">
        <ele>117.6</ele>
        <time>2012-07-19T18:10:23Z</time>
      </trkpt>
      <trkpt lat="59.655371" lon="14.8656855">
        <ele>116.2</ele>
        <time>2012-07-19T18:10:29Z</time>
      </trkpt>
      <trkpt lat="59.6557235" lon="14.8653794">
        <ele>115.4</ele>
        <time>2012-07-19T18:10:35Z</time>
      </trkpt>
      <trkpt lat="59.6560807" lon="14.8650766">
        <ele>116.8</ele>
        <time>2012-07-19T18:10:41Z</time>
      </trkpt>
      <trkpt lat="59.6564516" lon="14.8647584">
        <ele>116.8</ele>
        <time>2012-07-19T18:10:47Z</time>
      </trkpt>
      <trkpt lat="59.6568561" lon="14.8644182">
        <ele>117.4</ele>
        <time>2012-07-19T18:10:53Z</time>
      </trkpt>
      <trkpt lat="59.6572095" lon="14.8641104">
        <ele>117.2</ele>
        <time>2012-07-19T18:10:58Z</time>
      </trkpt>
      <trkpt lat="59.6575829" lon="14.8637771">
        <ele>118</ele>
        <time>2012-07-19T18:11:03Z</time>
      </trkpt>
      <trkpt lat="59.6579403" lon="14.8634153">
        <ele>118.6</ele>
        <time>2012-07-19T18:11:08Z</time>
      </trkpt>
      <trkpt lat="59.6582261" lon="14.8629935">
        <ele>117.4</ele>
        <time>2012-07-19T18:11:12Z</time>
      </trkpt>
      <trkpt lat="59.6585109" lon="14.8624978">
        <ele>116.8</ele>
        <time>2012-07-19T18:11:16Z</time>
      </trkpt>
      <trkpt lat="59.65878" lon="14.8620117">
        <ele>116.6</ele>
        <time>2012-07-19T18:11:20Z</time>
      </trkpt>
      <trkpt lat="59.6590411" lon="14.8615289">
        <ele>116.8</ele>
        <time>2012-07-19T18:11:24Z</time>
      </trkpt>
      <trkpt lat="59.6593556" lon="14.8609562">
        <ele>117.4</ele>
        <time>2012-07-19T18:11:29Z</time>
      </trkpt>
      <trkpt lat="59.6596513" lon="14.8604154">
        <ele>118</ele>
        <time>2012-07-19T18:11:34Z</time>
      </trkpt>
      <trkpt lat="59.6599337" lon="14.8598973">
        <ele>118.8</ele>
        <time>2012-07-19T18:11:39Z</time>
      </trkpt>
      <trkpt lat="59.6602166" lon="14.859385">
        <ele>119</ele>
        <time>2012-07-19T18:11:44Z</time>
      </trkpt>
      <trkpt lat="59.6604934" lon="14.8588808">
        <ele>119.6</ele>
        <time>2012-07-19T18:11:49Z</time>
      </trkpt>
      <trkpt lat="59.660771" lon="14.8583789">
        <ele>120.2</ele>
        <time>2012-07-19T18:11:54Z</time>
      </trkpt>
      <trkpt lat="59.6610509" lon="14.8578718">
        <ele>120.8</ele>
        <time>2012-07-19T18:11:59Z</time>
      </trkpt>
      <trkpt lat="59.6613346" lon="14.8573742">
        <ele>120.8</ele>
        <time>2012-07-19T18:12:04Z</time>
      </trkpt>
      <trkpt lat="59.6616296" lon="14.8568463">
        <ele>120.6</ele>
        <time>2012-07-19T18:12:09Z</time>
      </trkpt>
      <trkpt lat="59.6619248" lon="14.8563177">
        <ele>120.6</ele>
        <time>2012-07-19T18:12:14Z</time>
      </trkpt>
      <trkpt lat="59.6622085" lon="14.855802">
        <ele>121</ele>
        <time>2012-07-19T18:12:19Z</time>
      </trkpt>
      <trkpt lat="59.662489" lon="14.8552026">
        <ele>120</ele>
        <time>2012-07-19T18:12:24Z</time>
      </trkpt>
      <trkpt lat="59.6627245" lon="14.8546228">
        <ele>118.2</ele>
        <time>2012-07-19T18:12:28Z</time>
      </trkpt>
      <trkpt lat="59.662994" lon="14.854067">
        <ele>117</ele>
        <time>2012-07-19T18:12:32Z</time>
      </trkpt>
      <trkpt lat="59.6630713" lon="14.8539509">
        <ele>116.8</ele>
        <time>2012-07-19T18:12:33Z</time>
      </trkpt>
      <trkpt lat="59.6633348" lon="14.8536674">
        <ele>116.2</ele>
        <time>2012-07-19T18:12:36Z</time>
      </trkpt>
      <trkpt lat="59.6637451" lon="14.8532062">
        <ele>116.8</ele>
        <time>2012-07-19T18:12:40Z</time>
      </trkpt>
      <trkpt lat="59.6641298" lon="14.8528048">
        <ele>117</ele>
        <time>2012-07-19T18:12:44Z</time>
      </trkpt>
      <trkpt lat="59.6644895" lon="14.8524188">
        <ele>117.4</ele>
        <time>2012-07-19T18:12:48Z</time>
      </trkpt>
      <trkpt lat="59.6648158" lon="14.8520837">
        <ele>118.4</ele>
        <time>2012-07-19T18:12:52Z</time>
      </trkpt>
      <trkpt lat="59.6651303" lon="14.85176">
        <ele>120.6</ele>
        <time>2012-07-19T18:12:56Z</time>
      </trkpt>
      <trkpt lat="59.6654587" lon="14.8514331">
        <ele>121.6</ele>
        <time>2012-07-19T18:13:00Z</time>
      </trkpt>
      <trkpt lat="59.6657856" lon="14.8511031">
        <ele>123</ele>
        <time>2012-07-19T18:13:04Z</time>
      </trkpt>
      <trkpt lat="59.6661776" lon="14.8507165">
        <ele>123.6</ele>
        <time>2012-07-19T18:13:09Z</time>
      </trkpt>
      <trkpt lat="59.6665406" lon="14.85038">
        <ele>123.8</ele>
        <time>2012-07-19T18:13:14Z</time>
      </trkpt>
      <trkpt lat="59.6668599" lon="14.8500381">
        <ele>124.8</ele>
        <time>2012-07-19T18:13:19Z</time>
      </trkpt>
      <trkpt lat="59.6670634" lon="14.849496">
        <ele>122.8</ele>
        <time>2012-07-19T18:13:24Z</time>
      </trkpt>
      <trkpt lat="59.6671014" lon="14.8489374">
        <ele>122.8</ele>
        <time>2012-07-19T18:13:28Z</time>
      </trkpt>
      <trkpt lat="59.6671071" lon="14.8488029">
        <ele>123</ele>
        <time>2012-07-19T18:13:29Z</time>
      </trkpt>
      <trkpt lat="59.6671334" lon="14.8480138">
        <ele>124.8</ele>
        <time>2012-07-19T18:13:35Z</time>
      </trkpt>
      <trkpt lat="59.667149" lon="14.8471827">
        <ele>123.6</ele>
        <time>2012-07-19T18:13:41Z</time>
      </trkpt>
      <trkpt lat="59.6671802" lon="14.8463597">
        <ele>123.4</ele>
        <time>2012-07-19T18:13:46Z</time>
      </trkpt>
      <trkpt lat="59.6672187" lon="14.8456329">
        <ele>125.2</ele>
        <time>2012-07-19T18:13:51Z</time>
      </trkpt>
      <trkpt lat="59.6672464" lon="14.8448502">
        <ele>127</ele>
        <time>2012-07-19T18:13:57Z</time>
      </trkpt>
      <trkpt lat="59.6672572" lon="14.8441115">
        <ele>126.2</ele>
        <time>2012-07-19T18:14:02Z</time>
      </trkpt>
      <trkpt lat="59.6672441" lon="14.8433842">
        <ele>126.6</ele>
        <time>2012-07-19T18:14:07Z</time>
      </trkpt>
      <trkpt lat="59.6672334" lon="14.842661">
        <ele>129</ele>
        <time>2012-07-19T18:14:13Z</time>
      </trkpt>
      <trkpt lat="59.6672188" lon="14.8419029">
        <ele>132.8</ele>
        <time>2012-07-19T18:14:20Z</time>
      </trkpt>
      <trkpt lat="59.6671805" lon="14.8411693">
        <ele>136.4</ele>
        <time>2012-07-19T18:14:27Z</time>
      </trkpt>
      <trkpt lat="59.6671519" lon="14.840852">
        <ele>138</ele>
        <time>2012-07-19T18:14:30Z</time>
      </trkpt>
      <trkpt lat="59.6670397" lon="14.8404605">
        <ele>139.6</ele>
        <time>2012-07-19T18:14:34Z</time>
      </trkpt>
      <trkpt lat="59.6668216" lon="14.8398327">
        <ele>140.2</ele>
        <time>2012-07-19T18:14:40Z</time>
      </trkpt>
      <trkpt lat="59.6667678" lon="14.8396084">
        <ele>141</ele>
        <time>2012-07-19T18:14:42Z</time>
      </trkpt>
      <trkpt lat="59.666676" lon="14.8391365">
        <ele>143.8</ele>
        <time>2012-07-19T18:14:46Z</time>
      </trkpt>
      <trkpt lat="59.6666" lon="14.8387588">
        <ele>144.4</ele>
        <time>2012-07-19T18:14:49Z</time>
      </trkpt>
      <trkpt lat="59.6665495" lon="14.8383816">
        <ele>144.8</ele>
        <time>2012-07-19T18:14:52Z</time>
      </trkpt>
      <trkpt lat="59.6665437" lon="14.8382539">
        <ele>145.4</ele>
        <time>2012-07-19T18:14:53Z</time>
      </trkpt>
      <trkpt lat="59.6665392" lon="14.8380014">
        <ele>146.6</ele>
        <time>2012-07-19T18:14:55Z</time>
      </trkpt>
      <trkpt lat="59.6665412" lon="14.8376179">
        <ele>148.2</ele>
        <time>2012-07-19T18:14:58Z</time>
      </trkpt>
      <trkpt lat="59.6665532" lon="14.8374884">
        <ele>148</ele>
        <time>2012-07-19T18:14:59Z</time>
      </trkpt>
      <trkpt lat="59.6665978" lon="14.8370836">
        <ele>147</ele>
        <time>2012-07-19T18:15:02Z</time>
      </trkpt>
      <trkpt lat="59.6666306" lon="14.8367795">
        <ele>144.2</ele>
        <time>2012-07-19T18:15:04Z</time>
      </trkpt>
      <trkpt lat="59.6666765" lon="14.8359234">
        <ele>136.2</ele>
        <time>2012-07-19T18:15:09Z</time>
      </trkpt>
      <trkpt lat="59.6667668" lon="14.8350711">
        <ele>132</ele>
        <time>2012-07-19T18:15:14Z</time>
      </trkpt>
      <trkpt lat="59.6668578" lon="14.8342093">
        <ele>130.4</ele>
        <time>2012-07-19T18:15:19Z</time>
      </trkpt>
      <trkpt lat="59.6669976" lon="14.8334033">
        <ele>132.6</ele>
        <time>2012-07-19T18:15:24Z</time>
      </trkpt>
      <trkpt lat="59.6670397" lon="14.8332603">
        <ele>133.2</ele>
        <time>2012-07-19T18:15:25Z</time>
      </trkpt>
      <trkpt lat="59.6672262" lon="14.8327272">
        <ele>134.8</ele>
        <time>2012-07-19T18:15:29Z</time>
      </trkpt>
      <trkpt lat="59.6675184" lon="14.8321464">
        <ele>133.8</ele>
        <time>2012-07-19T18:15:34Z</time>
      </trkpt>
      <trkpt lat="59.6678474" lon="14.8315963">
        <ele>134.8</ele>
        <time>2012-07-19T18:15:39Z</time>
      </trkpt>
      <trkpt lat="59.6681689" lon="14.8310525">
        <ele>137</ele>
        <time>2012-07-19T18:15:44Z</time>
      </trkpt>
      <trkpt lat="59.668499" lon="14.8305004">
        <ele>135.8</ele>
        <time>2012-07-19T18:15:49Z</time>
      </trkpt>
      <trkpt lat="59.6687727" lon="14.8299837">
        <ele>133.2</ele>
        <time>2012-07-19T18:15:53Z</time>
      </trkpt>
      <trkpt lat="59.6690376" lon="14.8294813">
        <ele>133.4</ele>
        <time>2012-07-19T18:15:57Z</time>
      </trkpt>
      <trkpt lat="59.6693298" lon="14.8288959">
        <ele>133.2</ele>
        <time>2012-07-19T18:16:02Z</time>
      </trkpt>
      <trkpt lat="59.6696158" lon="14.8283085">
        <ele>131.6</ele>
        <time>2012-07-19T18:16:07Z</time>
      </trkpt>
      <trkpt lat="59.6699178" lon="14.8277075">
        <ele>130.4</ele>
        <time>2012-07-19T18:16:12Z</time>
      </trkpt>
      <trkpt lat="59.6702213" lon="14.827096">
        <ele>130.2</ele>
        <time>2012-07-19T18:16:17Z</time>
      </trkpt>
      <trkpt lat="59.6705112" lon="14.8265156">
        <ele>130.8</ele>
        <time>2012-07-19T18:16:22Z</time>
      </trkpt>
      <trkpt lat="59.6707756" lon="14.8259921">
        <ele>132</ele>
        <time>2012-07-19T18:16:27Z</time>
      </trkpt>
      <trkpt lat="59.6710802" lon="14.8254202">
        <ele>134</ele>
        <time>2012-07-19T18:16:33Z</time>
      </trkpt>
      <trkpt lat="59.6713987" lon="14.8248875">
        <ele>134.4</ele>
        <time>2012-07-19T18:16:39Z</time>
      </trkpt>
      <trkpt lat="59.6717027" lon="14.8243721">
        <ele>133.6</ele>
        <time>2012-07-19T18:16:44Z</time>
      </trkpt>
      <trkpt lat="59.6720039" lon="14.8238403">
        <ele>133.8</ele>
        <time>2012-07-19T18:16:49Z</time>
      </trkpt>
      <trkpt lat="59.672301" lon="14.8232853">
        <ele>133.6</ele>
        <time>2012-07-19T18:16:54Z</time>
      </trkpt>
      <trkpt lat="59.6725581" lon="14.8227228">
        <ele>133.6</ele>
        <time>2012-07-19T18:16:59Z</time>
      </trkpt>
      <trkpt lat="59.6728163" lon="14.8221018">
        <ele>134.2</ele>
        <time>2012-07-19T18:17:05Z</time>
      </trkpt>
      <trkpt lat="59.6730598" lon="14.8214775">
        <ele>134.2</ele>
        <time>2012-07-19T18:17:11Z</time>
      </trkpt>
      <trkpt lat="59.6733143" lon="14.8208508">
        <ele>133.4</ele>
        <time>2012-07-19T18:17:17Z</time>
      </trkpt>
      <trkpt lat="59.6735472" lon="14.820285">
        <ele>132.4</ele>
        <time>2012-07-19T18:17:22Z</time>
      </trkpt>
      <trkpt lat="59.6738202" lon="14.8197262">
        <ele>131.8</ele>
        <time>2012-07-19T18:17:27Z</time>
      </trkpt>
      <trkpt lat="59.6741124" lon="14.8191968">
        <ele>131.6</ele>
        <time>2012-07-19T18:17:32Z</time>
      </trkpt>
      <trkpt lat="59.6744142" lon="14.8186908">
        <ele>131.4</ele>
        <time>2012-07-19T18:17:37Z</time>
      </trkpt>
      <trkpt lat="59.6747226" lon="14.8181861">
        <ele>131.2</ele>
        <time>2012-07-19T18:17:42Z</time>
      </trkpt>
      <trkpt lat="59.6750635" lon="14.817664">
        <ele>129.6</ele>
        <time>2012-07-19T18:17:47Z</time>
      </trkpt>
      <trkpt lat="59.6753516" lon="14.8172142">
        <ele>126.8</ele>
        <time>2012-07-19T18:17:51Z</time>
      </trkpt>
      <trkpt lat="59.675664" lon="14.8167839">
        <ele>125</ele>
        <time>2012-07-19T18:17:55Z</time>
      </trkpt>
      <trkpt lat="59.6759928" lon="14.8164529">
        <ele>123.2</ele>
        <time>2012-07-19T18:17:59Z</time>
      </trkpt>
      <trkpt lat="59.6763893" lon="14.8160756">
        <ele>121.8</ele>
        <time>2012-07-19T18:18:04Z</time>
      </trkpt>
      <trkpt lat="59.676728" lon="14.8156991">
        <ele>123.6</ele>
        <time>2012-07-19T18:18:09Z</time>
      </trkpt>
      <trkpt lat="59.6770615" lon="14.815355">
        <ele>124.6</ele>
        <time>2012-07-19T18:18:14Z</time>
      </trkpt>
      <trkpt lat="59.6773881" lon="14.8150375">
        <ele>126.4</ele>
        <time>2012-07-19T18:18:19Z</time>
      </trkpt>
      <trkpt lat="59.6777706" lon="14.8146834">
        <ele>126.2</ele>
        <time>2012-07-19T18:18:25Z</time>
      </trkpt>
      <trkpt lat="59.6781038" lon="14.8143747">
        <ele>127.4</ele>
        <time>2012-07-19T18:18:30Z</time>
      </trkpt>
      <trkpt lat="59.6784623" lon="14.8140815">
        <ele>127</ele>
        <time>2012-07-19T18:18:35Z</time>
      </trkpt>
      <trkpt lat="59.6788379" lon="14.8137882">
        <ele>126</ele>
        <time>2012-07-19T18:18:40Z</time>
      </trkpt>
      <trkpt lat="59.6792087" lon="14.8135013">
        <ele>124.8</ele>
        <time>2012-07-19T18:18:45Z</time>
      </trkpt>
      <trkpt lat="59.6795962" lon="14.8132604">
        <ele>124.4</ele>
        <time>2012-07-19T18:18:50Z</time>
      </trkpt>
      <trkpt lat="59.6799905" lon="14.8130178">
        <ele>125.8</ele>
        <time>2012-07-19T18:18:55Z</time>
      </trkpt>
      <trkpt lat="59.6803604" lon="14.8127905">
        <ele>126.4</ele>
        <time>2012-07-19T18:19:00Z</time>
      </trkpt>
      <trkpt lat="59.6807302" lon="14.8125777">
        <ele>124.6</ele>
        <time>2012-07-19T18:19:05Z</time>
      </trkpt>
      <trkpt lat="59.681139" lon="14.8123782">
        <ele>122.6</ele>
        <time>2012-07-19T18:19:10Z</time>
      </trkpt>
      <trkpt lat="59.6815487" lon="14.8121589">
        <ele>121.8</ele>
        <time>2012-07-19T18:19:15Z</time>
      </trkpt>
      <trkpt lat="59.68194" lon="14.8119013">
        <ele>122.6</ele>
        <time>2012-07-19T18:19:20Z</time>
      </trkpt>
      <trkpt lat="59.6823189" lon="14.8116339">
        <ele>123.6</ele>
        <time>2012-07-19T18:19:25Z</time>
      </trkpt>
      <trkpt lat="59.6826849" lon="14.8113655">
        <ele>125.2</ele>
        <time>2012-07-19T18:19:30Z</time>
      </trkpt>
      <trkpt lat="59.6830537" lon="14.8110947">
        <ele>126.6</ele>
        <time>2012-07-19T18:19:36Z</time>
      </trkpt>
      <trkpt lat="59.6834573" lon="14.810881">
        <ele>126</ele>
        <time>2012-07-19T18:19:42Z</time>
      </trkpt>
      <trkpt lat="59.6836164" lon="14.8108703">
        <ele>125.4</ele>
        <time>2012-07-19T18:19:44Z</time>
      </trkpt>
      <trkpt lat="59.6838795" lon="14.8109181">
        <ele>125.6</ele>
        <time>2012-07-19T18:19:47Z</time>
      </trkpt>
      <trkpt lat="59.6841665" lon="14.8109272">
        <ele>125.6</ele>
        <time>2012-07-19T18:19:50Z</time>
      </trkpt>
      <trkpt lat="59.6842593" lon="14.8109027">
        <ele>125.8</ele>
        <time>2012-07-19T18:19:51Z</time>
      </trkpt>
      <trkpt lat="59.6846701" lon="14.8106393">
        <ele>126.2</ele>
        <time>2012-07-19T18:19:56Z</time>
      </trkpt>
      <trkpt lat="59.6850108" lon="14.8102456">
        <ele>126.2</ele>
        <time>2012-07-19T18:20:01Z</time>
      </trkpt>
      <trkpt lat="59.6853211" lon="14.8098389">
        <ele>127.8</ele>
        <time>2012-07-19T18:20:06Z</time>
      </trkpt>
      <trkpt lat="59.6856388" lon="14.8094314">
        <ele>129.2</ele>
        <time>2012-07-19T18:20:11Z</time>
      </trkpt>
      <trkpt lat="59.685951" lon="14.8090168">
        <ele>129.4</ele>
        <time>2012-07-19T18:20:16Z</time>
      </trkpt>
      <trkpt lat="59.6862453" lon="14.8085886">
        <ele>130.4</ele>
        <time>2012-07-19T18:20:21Z</time>
      </trkpt>
      <trkpt lat="59.6865391" lon="14.8081761">
        <ele>130.4</ele>
        <time>2012-07-19T18:20:26Z</time>
      </trkpt>
      <trkpt lat="59.68687" lon="14.8077048">
        <ele>130.2</ele>
        <time>2012-07-19T18:20:32Z</time>
      </trkpt>
      <trkpt lat="59.6871838" lon="14.8072651">
        <ele>130</ele>
        <time>2012-07-19T18:20:38Z</time>
      </trkpt>
      <trkpt lat="59.6874959" lon="14.8068258">
        <ele>130</ele>
        <time>2012-07-19T18:20:44Z</time>
      </trkpt>
      <trkpt lat="59.6878045" lon="14.8063871">
        <ele>130.4</ele>
        <time>2012-07-19T18:20:50Z</time>
      </trkpt>
      <trkpt lat="59.687961" lon="14.8061761">
        <ele>130.8</ele>
        <time>2012-07-19T18:20:53Z</time>
      </trkpt>
      <trkpt lat="59.6881098" lon="14.8059871">
        <ele>131.6</ele>
        <time>2012-07-19T18:20:56Z</time>
      </trkpt>
      <trkpt lat="59.6884186" lon="14.8055918">
        <ele>130.4</ele>
        <time>2012-07-19T18:21:02Z</time>
      </trkpt>
      <trkpt lat="59.6887562" lon="14.8051762">
        <ele>134.4</ele>
        <time>2012-07-19T18:21:08Z</time>
      </trkpt>
      <trkpt lat="59.6891172" lon="14.8047443">
        <ele>134.8</ele>
        <time>2012-07-19T18:21:13Z</time>
      </trkpt>
      <trkpt lat="59.6894636" lon="14.8042788">
        <ele>136.4</ele>
        <time>2012-07-19T18:21:18Z</time>
      </trkpt>
      <trkpt lat="59.6898475" lon="14.803799">
        <ele>136.8</ele>
        <time>2012-07-19T18:21:23Z</time>
      </trkpt>
      <trkpt lat="59.6901626" lon="14.803411">
        <ele>136.4</ele>
        <time>2012-07-19T18:21:27Z</time>
      </trkpt>
      <trkpt lat="59.6905423" lon="14.8029148">
        <ele>135.6</ele>
        <time>2012-07-19T18:21:32Z</time>
      </trkpt>
      <trkpt lat="59.6908804" lon="14.8024009">
        <ele>136</ele>
        <time>2012-07-19T18:21:37Z</time>
      </trkpt>
      <trkpt lat="59.6911836" lon="14.8018557">
        <ele>136.6</ele>
        <time>2012-07-19T18:21:42Z</time>
      </trkpt>
      <trkpt lat="59.6914923" lon="14.8013379">
        <ele>135.4</ele>
        <time>2012-07-19T18:21:47Z</time>
      </trkpt>
      <trkpt lat="59.69177" lon="14.8008795">
        <ele>134.8</ele>
        <time>2012-07-19T18:21:51Z</time>
      </trkpt>
      <trkpt lat="59.6921134" lon="14.8003795">
        <ele>134.8</ele>
        <time>2012-07-19T18:21:56Z</time>
      </trkpt>
      <trkpt lat="59.6924449" lon="14.7999819">
        <ele>135</ele>
        <time>2012-07-19T18:22:01Z</time>
      </trkpt>
      <trkpt lat="59.6927727" lon="14.7996185">
        <ele>135.8</ele>
        <time>2012-07-19T18:22:06Z</time>
      </trkpt>
      <trkpt lat="59.6931246" lon="14.7993145">
        <ele>135.8</ele>
        <time>2012-07-19T18:22:11Z</time>
      </trkpt>
      <trkpt lat="59.6934823" lon="14.7990421">
        <ele>136.2</ele>
        <time>2012-07-19T18:22:16Z</time>
      </trkpt>
      <trkpt lat="59.6938458" lon="14.7988002">
        <ele>136</ele>
        <time>2012-07-19T18:22:21Z</time>
      </trkpt>
      <trkpt lat="59.6942222" lon="14.7985505">
        <ele>135.8</ele>
        <time>2012-07-19T18:22:26Z</time>
      </trkpt>
      <trkpt lat="59.6945926" lon="14.7983174">
        <ele>135.6</ele>
        <time>2012-07-19T18:22:31Z</time>
      </trkpt>
      <trkpt lat="59.6949963" lon="14.7980739">
        <ele>134</ele>
        <time>2012-07-19T18:22:36Z</time>
      </trkpt>
      <trkpt lat="59.6953827" lon="14.7978446">
        <ele>133.4</ele>
        <time>2012-07-19T18:22:41Z</time>
      </trkpt>
      <trkpt lat="59.6957553" lon="14.7976031">
        <ele>134.2</ele>
        <time>2012-07-19T18:22:46Z</time>
      </trkpt>
      <trkpt lat="59.696116" lon="14.7974114">
        <ele>133.8</ele>
        <time>2012-07-19T18:22:51Z</time>
      </trkpt>
      <trkpt lat="59.6964514" lon="14.7972151">
        <ele>132.2</ele>
        <time>2012-07-19T18:22:56Z</time>
      </trkpt>
      <trkpt lat="59.6968549" lon="14.7969716">
        <ele>130.8</ele>
        <time>2012-07-19T18:23:02Z</time>
      </trkpt>
      <trkpt lat="59.6971937" lon="14.7967711">
        <ele>129.6</ele>
        <time>2012-07-19T18:23:07Z</time>
      </trkpt>
      <trkpt lat="59.6975414" lon="14.7965751">
        <ele>128.2</ele>
        <time>2012-07-19T18:23:12Z</time>
      </trkpt>
      <trkpt lat="59.6979339" lon="14.7963472">
        <ele>130</ele>
        <time>2012-07-19T18:23:18Z</time>
      </trkpt>
      <trkpt lat="59.6983309" lon="14.7961706">
        <ele>131</ele>
        <time>2012-07-19T18:23:24Z</time>
      </trkpt>
      <trkpt lat="59.6986999" lon="14.7960506">
        <ele>130.8</ele>
        <time>2012-07-19T18:23:29Z</time>
      </trkpt>
      <trkpt lat="59.6990526" lon="14.795926">
        <ele>131.8</ele>
        <time>2012-07-19T18:23:34Z</time>
      </trkpt>
      <trkpt lat="59.6994718" lon="14.7958113">
        <ele>133.4</ele>
        <time>2012-07-19T18:23:40Z</time>
      </trkpt>
      <trkpt lat="59.6998954" lon="14.7956579">
        <ele>134.6</ele>
        <time>2012-07-19T18:23:46Z</time>
      </trkpt>
      <trkpt lat="59.7000303" lon="14.7955928">
        <ele>134.6</ele>
        <time>2012-07-19T18:23:48Z</time>
      </trkpt>
      <trkpt lat="59.7002623" lon="14.7954325">
        <ele>137</ele>
        <time>2012-07-19T18:23:52Z</time>
      </trkpt>
      <trkpt lat="59.700659" lon="14.7951606">
        <ele>137.4</ele>
        <time>2012-07-19T18:23:58Z</time>
      </trkpt>
      <trkpt lat="59.7010253" lon="14.7948752">
        <ele>138</ele>
        <time>2012-07-19T18:24:04Z</time>
      </trkpt>
      <trkpt lat="59.7014226" lon="14.7946088">
        <ele>140.4</ele>
        <time>2012-07-19T18:24:10Z</time>
      </trkpt>
      <trkpt lat="59.7018106" lon="14.7944005">
        <ele>142.8</ele>
        <time>2012-07-19T18:24:16Z</time>
      </trkpt>
      <trkpt lat="59.70218" lon="14.7942508">
        <ele>144</ele>
        <time>2012-07-19T18:24:22Z</time>
      </trkpt>
      <trkpt lat="59.7025433" lon="14.7941542">
        <ele>142.8</ele>
        <time>2012-07-19T18:24:28Z</time>
      </trkpt>
      <trkpt lat="59.7028822" lon="14.794063">
        <ele>143.8</ele>
        <time>2012-07-19T18:24:34Z</time>
      </trkpt>
      <trkpt lat="59.7032543" lon="14.7939659">
        <ele>145.8</ele>
        <time>2012-07-19T18:24:40Z</time>
      </trkpt>
      <trkpt lat="59.7036443" lon="14.7938579">
        <ele>147.2</ele>
        <time>2012-07-19T18:24:46Z</time>
      </trkpt>
      <trkpt lat="59.7040323" lon="14.7937232">
        <ele>148</ele>
        <time>2012-07-19T18:24:52Z</time>
      </trkpt>
      <trkpt lat="59.7044396" lon="14.7936145">
        <ele>148.2</ele>
        <time>2012-07-19T18:24:58Z</time>
      </trkpt>
      <trkpt lat="59.7045084" lon="14.7935971">
        <ele>148.4</ele>
        <time>2012-07-19T18:24:59Z</time>
      </trkpt>
      <trkpt lat="59.7048539" lon="14.7934719">
        <ele>149.8</ele>
        <time>2012-07-19T18:25:04Z</time>
      </trkpt>
      <trkpt lat="59.7052283" lon="14.7932731">
        <ele>149.4</ele>
        <time>2012-07-19T18:25:09Z</time>
      </trkpt>
      <trkpt lat="59.705605" lon="14.7930618">
        <ele>149.4</ele>
        <time>2012-07-19T18:25:14Z</time>
      </trkpt>
      <trkpt lat="59.7059842" lon="14.7928198">
        <ele>148.8</ele>
        <time>2012-07-19T18:25:19Z</time>
      </trkpt>
      <trkpt lat="59.7063976" lon="14.7925612">
        <ele>147.8</ele>
        <time>2012-07-19T18:25:24Z</time>
      </trkpt>
      <trkpt lat="59.7067596" lon="14.7923339">
        <ele>147.2</ele>
        <time>2012-07-19T18:25:28Z</time>
      </trkpt>
      <trkpt lat="59.7071036" lon="14.7921099">
        <ele>144.4</ele>
        <time>2012-07-19T18:25:32Z</time>
      </trkpt>
      <trkpt lat="59.7074537" lon="14.7918909">
        <ele>143.8</ele>
        <time>2012-07-19T18:25:36Z</time>
      </trkpt>
      <trkpt lat="59.7078209" lon="14.7916527">
        <ele>143.8</ele>
        <time>2012-07-19T18:25:40Z</time>
      </trkpt>
      <trkpt lat="59.7081777" lon="14.7914113">
        <ele>143.2</ele>
        <time>2012-07-19T18:25:44Z</time>
      </trkpt>
      <trkpt lat="59.7085248" lon="14.791188">
        <ele>142.2</ele>
        <time>2012-07-19T18:25:48Z</time>
      </trkpt>
      <trkpt lat="59.7089517" lon="14.7909166">
        <ele>140.8</ele>
        <time>2012-07-19T18:25:53Z</time>
      </trkpt>
      <trkpt lat="59.709298" lon="14.7906944">
        <ele>139.8</ele>
        <time>2012-07-19T18:25:57Z</time>
      </trkpt>
      <trkpt lat="59.7096455" lon="14.7904673">
        <ele>138.8</ele>
        <time>2012-07-19T18:26:01Z</time>
      </trkpt>
      <trkpt lat="59.7099879" lon="14.7902498">
        <ele>138.2</ele>
        <time>2012-07-19T18:26:05Z</time>
      </trkpt>
      <trkpt lat="59.7104028" lon="14.789999">
        <ele>138.6</ele>
        <time>2012-07-19T18:26:10Z</time>
      </trkpt>
      <trkpt lat="59.710797" lon="14.7897542">
        <ele>138.6</ele>
        <time>2012-07-19T18:26:15Z</time>
      </trkpt>
      <trkpt lat="59.7111569" lon="14.7895293">
        <ele>138.8</ele>
        <time>2012-07-19T18:26:20Z</time>
      </trkpt>
      <trkpt lat="59.7115047" lon="14.7893056">
        <ele>139.2</ele>
        <time>2012-07-19T18:26:25Z</time>
      </trkpt>
      <trkpt lat="59.7118614" lon="14.7890517">
        <ele>139.6</ele>
        <time>2012-07-19T18:26:30Z</time>
      </trkpt>
      <trkpt lat="59.7122567" lon="14.7888238">
        <ele>139.4</ele>
        <time>2012-07-19T18:26:35Z</time>
      </trkpt>
      <trkpt lat="59.7126359" lon="14.7885812">
        <ele>139.6</ele>
        <time>2012-07-19T18:26:40Z</time>
      </trkpt>
      <trkpt lat="59.7129923" lon="14.7883601">
        <ele>140.6</ele>
        <time>2012-07-19T18:26:45Z</time>
      </trkpt>
      <trkpt lat="59.7133321" lon="14.7881443">
        <ele>141.8</ele>
        <time>2012-07-19T18:26:50Z</time>
      </trkpt>
      <trkpt lat="59.7136601" lon="14.7879401">
        <ele>141.6</ele>
        <time>2012-07-19T18:26:55Z</time>
      </trkpt>
      <trkpt lat="59.7140511" lon="14.7877281">
        <ele>142</ele>
        <time>2012-07-19T18:27:01Z</time>
      </trkpt>
      <trkpt lat="59.7143892" lon="14.7876024">
        <ele>141.8</ele>
        <time>2012-07-19T18:27:06Z</time>
      </trkpt>
      <trkpt lat="59.7148034" lon="14.7874928">
        <ele>141</ele>
        <time>2012-07-19T18:27:12Z</time>
      </trkpt>
      <trkpt lat="59.7152203" lon="14.7873939">
        <ele>139.6</ele>
        <time>2012-07-19T18:27:18Z</time>
      </trkpt>
      <trkpt lat="59.7156279" lon="14.7873136">
        <ele>142.8</ele>
        <time>2012-07-19T18:27:24Z</time>
      </trkpt>
      <trkpt lat="59.7160797" lon="14.7872404">
        <ele>143.6</ele>
        <time>2012-07-19T18:27:30Z</time>
      </trkpt>
      <trkpt lat="59.7164468" lon="14.7872372">
        <ele>142.6</ele>
        <time>2012-07-19T18:27:35Z</time>
      </trkpt>
      <trkpt lat="59.7168184" lon="14.7872138">
        <ele>141.4</ele>
        <time>2012-07-19T18:27:40Z</time>
      </trkpt>
      <trkpt lat="59.7172474" lon="14.7871967">
        <ele>139.8</ele>
        <time>2012-07-19T18:27:46Z</time>
      </trkpt>
      <trkpt lat="59.7176131" lon="14.787189">
        <ele>140.2</ele>
        <time>2012-07-19T18:27:51Z</time>
      </trkpt>
      <trkpt lat="59.7180114" lon="14.7871906">
        <ele>143.4</ele>
        <time>2012-07-19T18:27:56Z</time>
      </trkpt>
      <trkpt lat="59.7184145" lon="14.7871839">
        <ele>144.2</ele>
        <time>2012-07-19T18:28:01Z</time>
      </trkpt>
      <trkpt lat="59.7188228" lon="14.7872318">
        <ele>144</ele>
        <time>2012-07-19T18:28:06Z</time>
      </trkpt>
      <trkpt lat="59.7191928" lon="14.7872887">
        <ele>145.2</ele>
        <time>2012-07-19T18:28:11Z</time>
      </trkpt>
      <trkpt lat="59.7195875" lon="14.787398">
        <ele>144.4</ele>
        <time>2012-07-19T18:28:17Z</time>
      </trkpt>
      <trkpt lat="59.7199378" lon="14.7874521">
        <ele>146.6</ele>
        <time>2012-07-19T18:28:22Z</time>
      </trkpt>
      <trkpt lat="59.7202993" lon="14.7875087">
        <ele>148.6</ele>
        <time>2012-07-19T18:28:27Z</time>
      </trkpt>
      <trkpt lat="59.720673" lon="14.7875827">
        <ele>149.4</ele>
        <time>2012-07-19T18:28:32Z</time>
      </trkpt>
      <trkpt lat="59.7210536" lon="14.7876905">
        <ele>149.8</ele>
        <time>2012-07-19T18:28:37Z</time>
      </trkpt>
      <trkpt lat="59.7214354" lon="14.7878238">
        <ele>149.8</ele>
        <time>2012-07-19T18:28:42Z</time>
      </trkpt>
      <trkpt lat="59.7218177" lon="14.7879069">
        <ele>150</ele>
        <time>2012-07-19T18:28:47Z</time>
      </trkpt>
      <trkpt lat="59.7221922" lon="14.7879302">
        <ele>150</ele>
        <time>2012-07-19T18:28:52Z</time>
      </trkpt>
      <trkpt lat="59.7226174" lon="14.7879577">
        <ele>150.6</ele>
        <time>2012-07-19T18:28:58Z</time>
      </trkpt>
      <trkpt lat="59.722983" lon="14.7879811">
        <ele>151.8</ele>
        <time>2012-07-19T18:29:03Z</time>
      </trkpt>
      <trkpt lat="59.7233477" lon="14.7880575">
        <ele>152.4</ele>
        <time>2012-07-19T18:29:08Z</time>
      </trkpt>
      <trkpt lat="59.7237177" lon="14.7882219">
        <ele>151.6</ele>
        <time>2012-07-19T18:29:13Z</time>
      </trkpt>
      <trkpt lat="59.7240698" lon="14.7884429">
        <ele>151.8</ele>
        <time>2012-07-19T18:29:18Z</time>
      </trkpt>
      <trkpt lat="59.7244014" lon="14.7886608">
        <ele>152.6</ele>
        <time>2012-07-19T18:29:23Z</time>
      </trkpt>
      <trkpt lat="59.7247361" lon="14.7888776">
        <ele>151.2</ele>
        <time>2012-07-19T18:29:28Z</time>
      </trkpt>
      <trkpt lat="59.7251032" lon="14.7890938">
        <ele>150.4</ele>
        <time>2012-07-19T18:29:33Z</time>
      </trkpt>
      <trkpt lat="59.7254852" lon="14.789334">
        <ele>150.4</ele>
        <time>2012-07-19T18:29:39Z</time>
      </trkpt>
      <trkpt lat="59.7261446" lon="14.7897771">
        <ele>146.6</ele>
        <time>2012-07-19T18:30:29Z</time>
      </trkpt>
      <trkpt lat="59.7263372" lon="14.7899061">
        <ele>144.8</ele>
        <time>2012-07-19T18:30:35Z</time>
      </trkpt>
      <trkpt lat="59.726486" lon="14.7899795">
        <ele>144.2</ele>
        <time>2012-07-19T18:30:38Z</time>
      </trkpt>
      <trkpt lat="59.7267237" lon="14.7901257">
        <ele>144.2</ele>
        <time>2012-07-19T18:30:42Z</time>
      </trkpt>
      <trkpt lat="59.7268439" lon="14.7902065">
        <ele>145.2</ele>
        <time>2012-07-19T18:30:44Z</time>
      </trkpt>
      <trkpt lat="59.7272324" lon="14.7904473">
        <ele>145.2</ele>
        <time>2012-07-19T18:30:50Z</time>
      </trkpt>
      <trkpt lat="59.7276136" lon="14.7906731">
        <ele>145.4</ele>
        <time>2012-07-19T18:30:56Z</time>
      </trkpt>
      <trkpt lat="59.7279813" lon="14.7908959">
        <ele>146.2</ele>
        <time>2012-07-19T18:31:02Z</time>
      </trkpt>
      <trkpt lat="59.7283658" lon="14.7911052">
        <ele>149.8</ele>
        <time>2012-07-19T18:31:08Z</time>
      </trkpt>
      <trkpt lat="59.7287744" lon="14.7912772">
        <ele>153</ele>
        <time>2012-07-19T18:31:14Z</time>
      </trkpt>
      <trkpt lat="59.7291696" lon="14.7914107">
        <ele>154.8</ele>
        <time>2012-07-19T18:31:20Z</time>
      </trkpt>
      <trkpt lat="59.7295354" lon="14.7915346">
        <ele>156.6</ele>
        <time>2012-07-19T18:31:26Z</time>
      </trkpt>
      <trkpt lat="59.7299364" lon="14.7915385">
        <ele>160.6</ele>
        <time>2012-07-19T18:31:34Z</time>
      </trkpt>
      <trkpt lat="59.7299849" lon="14.7915189">
        <ele>161</ele>
        <time>2012-07-19T18:31:35Z</time>
      </trkpt>
      <trkpt lat="59.7302897" lon="14.7912147">
        <ele>162.8</ele>
        <time>2012-07-19T18:31:42Z</time>
      </trkpt>
      <trkpt lat="59.7306166" lon="14.7908264">
        <ele>165.2</ele>
        <time>2012-07-19T18:31:49Z</time>
      </trkpt>
      <trkpt lat="59.730943" lon="14.7905085">
        <ele>167.4</ele>
        <time>2012-07-19T18:31:55Z</time>
      </trkpt>
      <trkpt lat="59.7312899" lon="14.7902271">
        <ele>169</ele>
        <time>2012-07-19T18:32:01Z</time>
      </trkpt>
      <trkpt lat="59.7316457" lon="14.7899516">
        <ele>170.8</ele>
        <time>2012-07-19T18:32:07Z</time>
      </trkpt>
      <trkpt lat="59.7319944" lon="14.7897095">
        <ele>172</ele>
        <time>2012-07-19T18:32:13Z</time>
      </trkpt>
      <trkpt lat="59.7324006" lon="14.7894106">
        <ele>174.8</ele>
        <time>2012-07-19T18:32:20Z</time>
      </trkpt>
      <trkpt lat="59.732742" lon="14.789176">
        <ele>175.8</ele>
        <time>2012-07-19T18:32:26Z</time>
      </trkpt>
      <trkpt lat="59.7331458" lon="14.7889568">
        <ele>172.8</ele>
        <time>2012-07-19T18:32:32Z</time>
      </trkpt>
      <trkpt lat="59.7335352" lon="14.7887472">
        <ele>171.6</ele>
        <time>2012-07-19T18:32:37Z</time>
      </trkpt>
      <trkpt lat="59.7339399" lon="14.7885283">
        <ele>170.2</ele>
        <time>2012-07-19T18:32:42Z</time>
      </trkpt>
      <trkpt lat="59.7343295" lon="14.7883044">
        <ele>168.4</ele>
        <time>2012-07-19T18:32:47Z</time>
      </trkpt>
      <trkpt lat="59.7346763" lon="14.788112">
        <ele>167.4</ele>
        <time>2012-07-19T18:32:52Z</time>
      </trkpt>
      <trkpt lat="59.7350632" lon="14.7879115">
        <ele>167</ele>
        <time>2012-07-19T18:32:57Z</time>
      </trkpt>
      <trkpt lat="59.7354622" lon="14.7877133">
        <ele>166.4</ele>
        <time>2012-07-19T18:33:02Z</time>
      </trkpt>
      <trkpt lat="59.7358956" lon="14.7875226">
        <ele>165.6</ele>
        <time>2012-07-19T18:33:07Z</time>
      </trkpt>
      <trkpt lat="59.7362585" lon="14.7874185">
        <ele>165</ele>
        <time>2012-07-19T18:33:11Z</time>
      </trkpt>
      <trkpt lat="59.7366214" lon="14.7872485">
        <ele>163.8</ele>
        <time>2012-07-19T18:33:15Z</time>
      </trkpt>
      <trkpt lat="59.7369762" lon="14.7870147">
        <ele>163</ele>
        <time>2012-07-19T18:33:19Z</time>
      </trkpt>
      <trkpt lat="59.7373294" lon="14.7868036">
        <ele>162.2</ele>
        <time>2012-07-19T18:33:23Z</time>
      </trkpt>
      <trkpt lat="59.7376938" lon="14.7866052">
        <ele>161.8</ele>
        <time>2012-07-19T18:33:27Z</time>
      </trkpt>
      <trkpt lat="59.7380556" lon="14.786395">
        <ele>161.2</ele>
        <time>2012-07-19T18:33:31Z</time>
      </trkpt>
      <trkpt lat="59.7384209" lon="14.7861829">
        <ele>160.2</ele>
        <time>2012-07-19T18:33:35Z</time>
      </trkpt>
      <trkpt lat="59.7387918" lon="14.7860336">
        <ele>159</ele>
        <time>2012-07-19T18:33:39Z</time>
      </trkpt>
      <trkpt lat="59.7391768" lon="14.7858992">
        <ele>157.4</ele>
        <time>2012-07-19T18:33:43Z</time>
      </trkpt>
      <trkpt lat="59.7395527" lon="14.7859333">
        <ele>156.8</ele>
        <time>2012-07-19T18:33:47Z</time>
      </trkpt>
      <trkpt lat="59.7399433" lon="14.7859885">
        <ele>155.8</ele>
        <time>2012-07-19T18:33:51Z</time>
      </trkpt>
      <trkpt lat="59.7403705" lon="14.785954">
        <ele>155.4</ele>
        <time>2012-07-19T18:33:55Z</time>
      </trkpt>
      <trkpt lat="59.740794" lon="14.7858804">
        <ele>154.2</ele>
        <time>2012-07-19T18:33:59Z</time>
      </trkpt>
      <trkpt lat="59.7412058" lon="14.7858929">
        <ele>154.6</ele>
        <time>2012-07-19T18:34:03Z</time>
      </trkpt>
      <trkpt lat="59.7415702" lon="14.7859191">
        <ele>156.2</ele>
        <time>2012-07-19T18:34:07Z</time>
      </trkpt>
      <trkpt lat="59.741958" lon="14.7858331">
        <ele>158.2</ele>
        <time>2012-07-19T18:34:12Z</time>
      </trkpt>
      <trkpt lat="59.7423433" lon="14.785584">
        <ele>158.2</ele>
        <time>2012-07-19T18:34:17Z</time>
      </trkpt>
      <trkpt lat="59.7426484" lon="14.7851968">
        <ele>159.6</ele>
        <time>2012-07-19T18:34:22Z</time>
      </trkpt>
      <trkpt lat="59.7429862" lon="14.7847843">
        <ele>160</ele>
        <time>2012-07-19T18:34:27Z</time>
      </trkpt>
      <trkpt lat="59.7433307" lon="14.7844596">
        <ele>160.6</ele>
        <time>2012-07-19T18:34:32Z</time>
      </trkpt>
      <trkpt lat="59.7436653" lon="14.7841964">
        <ele>161.2</ele>
        <time>2012-07-19T18:34:37Z</time>
      </trkpt>
      <trkpt lat="59.7440122" lon="14.7839797">
        <ele>162.2</ele>
        <time>2012-07-19T18:34:42Z</time>
      </trkpt>
      <trkpt lat="59.7443878" lon="14.7838295">
        <ele>162.8</ele>
        <time>2012-07-19T18:34:47Z</time>
      </trkpt>
      <trkpt lat="59.744729" lon="14.7837893">
        <ele>162</ele>
        <time>2012-07-19T18:34:52Z</time>
      </trkpt>
      <trkpt lat="59.7447914" lon="14.7837855">
        <ele>162</ele>
        <time>2012-07-19T18:34:53Z</time>
      </trkpt>
      <trkpt lat="59.7451749" lon="14.783837">
        <ele>161.8</ele>
        <time>2012-07-19T18:34:58Z</time>
      </trkpt>
      <trkpt lat="59.7456191" lon="14.7839901">
        <ele>162.2</ele>
        <time>2012-07-19T18:35:03Z</time>
      </trkpt>
      <trkpt lat="59.7459875" lon="14.7841079">
        <ele>160.8</ele>
        <time>2012-07-19T18:35:07Z</time>
      </trkpt>
      <trkpt lat="59.7464511" lon="14.7842781">
        <ele>158.2</ele>
        <time>2012-07-19T18:35:12Z</time>
      </trkpt>
      <trkpt lat="59.7469143" lon="14.7843747">
        <ele>153</ele>
        <time>2012-07-19T18:35:16Z</time>
      </trkpt>
      <trkpt lat="59.7473438" lon="14.7841379">
        <ele>150.2</ele>
        <time>2012-07-19T18:35:20Z</time>
      </trkpt>
      <trkpt lat="59.7474398" lon="14.7840431">
        <ele>150</ele>
        <time>2012-07-19T18:35:21Z</time>
      </trkpt>
      <trkpt lat="59.7477029" lon="14.7837499">
        <ele>148.8</ele>
        <time>2012-07-19T18:35:24Z</time>
      </trkpt>
      <trkpt lat="59.7480651" lon="14.7833909">
        <ele>146.6</ele>
        <time>2012-07-19T18:35:28Z</time>
      </trkpt>
      <trkpt lat="59.7484206" lon="14.7829678">
        <ele>145.2</ele>
        <time>2012-07-19T18:35:32Z</time>
      </trkpt>
      <trkpt lat="59.7487287" lon="14.78246">
        <ele>147.6</ele>
        <time>2012-07-19T18:35:36Z</time>
      </trkpt>
      <trkpt lat="59.7488825" lon="14.7822291">
        <ele>148.6</ele>
        <time>2012-07-19T18:35:38Z</time>
      </trkpt>
      <trkpt lat="59.7490526" lon="14.7820735">
        <ele>148.6</ele>
        <time>2012-07-19T18:35:40Z</time>
      </trkpt>
      <trkpt lat="59.7494168" lon="14.7819817">
        <ele>149.2</ele>
        <time>2012-07-19T18:35:44Z</time>
      </trkpt>
      <trkpt lat="59.7495082" lon="14.7819954">
        <ele>149.6</ele>
        <time>2012-07-19T18:35:45Z</time>
      </trkpt>
      <trkpt lat="59.7497781" lon="14.7820207">
        <ele>150.6</ele>
        <time>2012-07-19T18:35:48Z</time>
      </trkpt>
      <trkpt lat="59.750028" lon="14.7819395">
        <ele>150.8</ele>
        <time>2012-07-19T18:35:51Z</time>
      </trkpt>
      <trkpt lat="59.750178" lon="14.7818147">
        <ele>151.2</ele>
        <time>2012-07-19T18:35:53Z</time>
      </trkpt>
      <trkpt lat="59.7504284" lon="14.7814443">
        <ele>151.2</ele>
        <time>2012-07-19T18:35:57Z</time>
      </trkpt>
      <trkpt lat="59.7504848" lon="14.781343">
        <ele>151.4</ele>
        <time>2012-07-19T18:35:58Z</time>
      </trkpt>
      <trkpt lat="59.7507361" lon="14.7807983">
        <ele>154</ele>
        <time>2012-07-19T18:36:03Z</time>
      </trkpt>
      <trkpt lat="59.7508329" lon="14.7804446">
        <ele>156.4</ele>
        <time>2012-07-19T18:36:06Z</time>
      </trkpt>
      <trkpt lat="59.7508729" lon="14.7800518">
        <ele>157.4</ele>
        <time>2012-07-19T18:36:09Z</time>
      </trkpt>
      <trkpt lat="59.7508935" lon="14.7797847">
        <ele>157.6</ele>
        <time>2012-07-19T18:36:11Z</time>
      </trkpt>
      <trkpt lat="59.7509123" lon="14.7795003">
        <ele>158.2</ele>
        <time>2012-07-19T18:36:13Z</time>
      </trkpt>
      <trkpt lat="59.7509428" lon="14.7792183">
        <ele>158.4</ele>
        <time>2012-07-19T18:36:15Z</time>
      </trkpt>
      <trkpt lat="59.7510412" lon="14.7785237">
        <ele>158.8</ele>
        <time>2012-07-19T18:36:20Z</time>
      </trkpt>
      <trkpt lat="59.7511676" lon="14.7777995">
        <ele>159.2</ele>
        <time>2012-07-19T18:36:25Z</time>
      </trkpt>
      <trkpt lat="59.7513622" lon="14.7771427">
        <ele>160.6</ele>
        <time>2012-07-19T18:36:30Z</time>
      </trkpt>
      <trkpt lat="59.7515748" lon="14.7765324">
        <ele>160.6</ele>
        <time>2012-07-19T18:36:35Z</time>
      </trkpt>
      <trkpt lat="59.7518171" lon="14.7759492">
        <ele>160.2</ele>
        <time>2012-07-19T18:36:40Z</time>
      </trkpt>
      <trkpt lat="59.752086" lon="14.7753877">
        <ele>159.8</ele>
        <time>2012-07-19T18:36:45Z</time>
      </trkpt>
      <trkpt lat="59.7523813" lon="14.7747398">
        <ele>157.2</ele>
        <time>2012-07-19T18:36:50Z</time>
      </trkpt>
      <trkpt lat="59.7526365" lon="14.7741731">
        <ele>155.6</ele>
        <time>2012-07-19T18:36:54Z</time>
      </trkpt>
      <trkpt lat="59.752887" lon="14.7736297">
        <ele>153.2</ele>
        <time>2012-07-19T18:36:58Z</time>
      </trkpt>
      <trkpt lat="59.7531928" lon="14.7730179">
        <ele>153.6</ele>
        <time>2012-07-19T18:37:03Z</time>
      </trkpt>
      <trkpt lat="59.753581" lon="14.7728162">
        <ele>153.4</ele>
        <time>2012-07-19T18:37:08Z</time>
      </trkpt>
      <trkpt lat="59.7536604" lon="14.7728209">
        <ele>153.2</ele>
        <time>2012-07-19T18:37:09Z</time>
      </trkpt>
      <trkpt lat="59.7539913" lon="14.77288">
        <ele>152.8</ele>
        <time>2012-07-19T18:37:13Z</time>
      </trkpt>
      <trkpt lat="59.7544277" lon="14.7729651">
        <ele>153.4</ele>
        <time>2012-07-19T18:37:18Z</time>
      </trkpt>
      <trkpt lat="59.7548211" lon="14.7731053">
        <ele>152.6</ele>
        <time>2012-07-19T18:37:23Z</time>
      </trkpt>
      <trkpt lat="59.7551873" lon="14.7734149">
        <ele>152.4</ele>
        <time>2012-07-19T18:37:28Z</time>
      </trkpt>
      <trkpt lat="59.7555462" lon="14.7738321">
        <ele>152.8</ele>
        <time>2012-07-19T18:37:33Z</time>
      </trkpt>
      <trkpt lat="59.7558904" lon="14.7742549">
        <ele>152.4</ele>
        <time>2012-07-19T18:37:38Z</time>
      </trkpt>
      <trkpt lat="59.75627" lon="14.7744957">
        <ele>152.2</ele>
        <time>2012-07-19T18:37:43Z</time>
      </trkpt>
      <trkpt lat="59.7566635" lon="14.7745996">
        <ele>152.8</ele>
        <time>2012-07-19T18:37:48Z</time>
      </trkpt>
      <trkpt lat="59.756902" lon="14.7747195">
        <ele>154</ele>
        <time>2012-07-19T18:37:51Z</time>
      </trkpt>
      <trkpt lat="59.7570573" lon="14.774851">
        <ele>153.8</ele>
        <time>2012-07-19T18:37:53Z</time>
      </trkpt>
      <trkpt lat="59.7573341" lon="14.775254">
        <ele>153</ele>
        <time>2012-07-19T18:37:57Z</time>
      </trkpt>
      <trkpt lat="59.7573993" lon="14.7753613">
        <ele>152.2</ele>
        <time>2012-07-19T18:37:58Z</time>
      </trkpt>
      <trkpt lat="59.7577277" lon="14.7758222">
        <ele>152.8</ele>
        <time>2012-07-19T18:38:03Z</time>
      </trkpt>
      <trkpt lat="59.7581172" lon="14.7760822">
        <ele>154.8</ele>
        <time>2012-07-19T18:38:09Z</time>
      </trkpt>
      <trkpt lat="59.7585081" lon="14.7761658">
        <ele>156.8</ele>
        <time>2012-07-19T18:38:16Z</time>
      </trkpt>
      <trkpt lat="59.7589068" lon="14.7761433">
        <ele>159.8</ele>
        <time>2012-07-19T18:38:23Z</time>
      </trkpt>
      <trkpt lat="59.7593159" lon="14.7761184">
        <ele>160.6</ele>
        <time>2012-07-19T18:38:30Z</time>
      </trkpt>
      <trkpt lat="59.7597122" lon="14.7759808">
        <ele>161.6</ele>
        <time>2012-07-19T18:38:37Z</time>
      </trkpt>
      <trkpt lat="59.7600891" lon="14.7757963">
        <ele>164.8</ele>
        <time>2012-07-19T18:38:44Z</time>
      </trkpt>
      <trkpt lat="59.7604887" lon="14.7755305">
        <ele>169.4</ele>
        <time>2012-07-19T18:38:51Z</time>
      </trkpt>
      <trkpt lat="59.7608922" lon="14.7752815">
        <ele>171.6</ele>
        <time>2012-07-19T18:38:58Z</time>
      </trkpt>
      <trkpt lat="59.7612573" lon="14.7751515">
        <ele>175.2</ele>
        <time>2012-07-19T18:39:05Z</time>
      </trkpt>
      <trkpt lat="59.7613999" lon="14.7751192">
        <ele>176.8</ele>
        <time>2012-07-19T18:39:08Z</time>
      </trkpt>
      <trkpt lat="59.7616434" lon="14.775087">
        <ele>178.4</ele>
        <time>2012-07-19T18:39:13Z</time>
      </trkpt>
      <trkpt lat="59.7620252" lon="14.7750818">
        <ele>178</ele>
        <time>2012-07-19T18:39:20Z</time>
      </trkpt>
      <trkpt lat="59.7623994" lon="14.7750494">
        <ele>179.6</ele>
        <time>2012-07-19T18:39:27Z</time>
      </trkpt>
      <trkpt lat="59.762768" lon="14.7749337">
        <ele>182.2</ele>
        <time>2012-07-19T18:39:34Z</time>
      </trkpt>
      <trkpt lat="59.763185" lon="14.7747851">
        <ele>185.4</ele>
        <time>2012-07-19T18:39:42Z</time>
      </trkpt>
      <trkpt lat="59.7635632" lon="14.7746723">
        <ele>187.6</ele>
        <time>2012-07-19T18:39:49Z</time>
      </trkpt>
      <trkpt lat="59.7639303" lon="14.7745735">
        <ele>190</ele>
        <time>2012-07-19T18:39:56Z</time>
      </trkpt>
      <trkpt lat="59.7643209" lon="14.7744659">
        <ele>191.8</ele>
        <time>2012-07-19T18:40:03Z</time>
      </trkpt>
      <trkpt lat="59.7647022" lon="14.7743437">
        <ele>192.8</ele>
        <time>2012-07-19T18:40:10Z</time>
      </trkpt>
      <trkpt lat="59.7648436" lon="14.7743082">
        <ele>193.2</ele>
        <time>2012-07-19T18:40:13Z</time>
      </trkpt>
      <trkpt lat="59.7650306" lon="14.7742372">
        <ele>194.8</ele>
        <time>2012-07-19T18:40:17Z</time>
      </trkpt>
      <trkpt lat="59.7654254" lon="14.774118">
        <ele>195.6</ele>
        <time>2012-07-19T18:40:24Z</time>
      </trkpt>
      <trkpt lat="59.765832" lon="14.7740251">
        <ele>193.2</ele>
        <time>2012-07-19T18:40:29Z</time>
      </trkpt>
      <trkpt lat="59.7662407" lon="14.7739221">
        <ele>192.6</ele>
        <time>2012-07-19T18:40:34Z</time>
      </trkpt>
      <trkpt lat="59.766678" lon="14.773803">
        <ele>192.4</ele>
        <time>2012-07-19T18:40:39Z</time>
      </trkpt>
      <trkpt lat="59.767095" lon="14.7736894">
        <ele>192.4</ele>
        <time>2012-07-19T18:40:44Z</time>
      </trkpt>
      <trkpt lat="59.7675002" lon="14.7735662">
        <ele>192.6</ele>
        <time>2012-07-19T18:40:49Z</time>
      </trkpt>
      <trkpt lat="59.7679015" lon="14.7734344">
        <ele>193.2</ele>
        <time>2012-07-19T18:40:54Z</time>
      </trkpt>
      <trkpt lat="59.7683142" lon="14.7732857">
        <ele>193.2</ele>
        <time>2012-07-19T18:40:59Z</time>
      </trkpt>
      <trkpt lat="59.7687524" lon="14.7731167">
        <ele>193.4</ele>
        <time>2012-07-19T18:41:04Z</time>
      </trkpt>
      <trkpt lat="59.7691716" lon="14.7728996">
        <ele>192.2</ele>
        <time>2012-07-19T18:41:09Z</time>
      </trkpt>
      <trkpt lat="59.7695884" lon="14.7727052">
        <ele>192.2</ele>
        <time>2012-07-19T18:41:14Z</time>
      </trkpt>
      <trkpt lat="59.7699351" lon="14.7725521">
        <ele>194.2</ele>
        <time>2012-07-19T18:41:18Z</time>
      </trkpt>
      <trkpt lat="59.770284" lon="14.7723947">
        <ele>194.8</ele>
        <time>2012-07-19T18:41:22Z</time>
      </trkpt>
      <trkpt lat="59.7706298" lon="14.7722403">
        <ele>193.8</ele>
        <time>2012-07-19T18:41:26Z</time>
      </trkpt>
      <trkpt lat="59.7709831" lon="14.7720901">
        <ele>193.2</ele>
        <time>2012-07-19T18:41:30Z</time>
      </trkpt>
      <trkpt lat="59.7713704" lon="14.7719713">
        <ele>193</ele>
        <time>2012-07-19T18:41:34Z</time>
      </trkpt>
      <trkpt lat="59.7717918" lon="14.7719218">
        <ele>193.4</ele>
        <time>2012-07-19T18:41:38Z</time>
      </trkpt>
      <trkpt lat="59.7722242" lon="14.7719098">
        <ele>195.4</ele>
        <time>2012-07-19T18:41:42Z</time>
      </trkpt>
      <trkpt lat="59.7723329" lon="14.7719051">
        <ele>195</ele>
        <time>2012-07-19T18:41:43Z</time>
      </trkpt>
      <trkpt lat="59.7726402" lon="14.7719761">
        <ele>193</ele>
        <time>2012-07-19T18:41:46Z</time>
      </trkpt>
      <trkpt lat="59.7730804" lon="14.7721183">
        <ele>188.8</ele>
        <time>2012-07-19T18:41:50Z</time>
      </trkpt>
      <trkpt lat="59.7734368" lon="14.7722375">
        <ele>181.4</ele>
        <time>2012-07-19T18:41:53Z</time>
      </trkpt>
      <trkpt lat="59.7738305" lon="14.7723376">
        <ele>175.6</ele>
        <time>2012-07-19T18:41:56Z</time>
      </trkpt>
      <trkpt lat="59.7742486" lon="14.7723982">
        <ele>170.6</ele>
        <time>2012-07-19T18:41:59Z</time>
      </trkpt>
      <trkpt lat="59.7746929" lon="14.7724365">
        <ele>169</ele>
        <time>2012-07-19T18:42:02Z</time>
      </trkpt>
      <trkpt lat="59.7751685" lon="14.7724851">
        <ele>172.2</ele>
        <time>2012-07-19T18:42:05Z</time>
      </trkpt>
      <trkpt lat="59.7756292" lon="14.7726387">
        <ele>174.2</ele>
        <time>2012-07-19T18:42:08Z</time>
      </trkpt>
      <trkpt lat="59.7760257" lon="14.7728914">
        <ele>161.8</ele>
        <time>2012-07-19T18:42:11Z</time>
      </trkpt>
      <trkpt lat="59.7763836" lon="14.7732452">
        <ele>152.8</ele>
        <time>2012-07-19T18:42:14Z</time>
      </trkpt>
      <trkpt lat="59.7766889" lon="14.7737048">
        <ele>145.8</ele>
        <time>2012-07-19T18:42:17Z</time>
      </trkpt>
      <trkpt lat="59.776956" lon="14.7742392">
        <ele>143.2</ele>
        <time>2012-07-19T18:42:20Z</time>
      </trkpt>
      <trkpt lat="59.7772029" lon="14.7748319">
        <ele>145</ele>
        <time>2012-07-19T18:42:23Z</time>
      </trkpt>
      <trkpt lat="59.7774907" lon="14.7755633">
        <ele>148</ele>
        <time>2012-07-19T18:42:27Z</time>
      </trkpt>
      <trkpt lat="59.7777529" lon="14.7761575">
        <ele>150.4</ele>
        <time>2012-07-19T18:42:31Z</time>
      </trkpt>
      <trkpt lat="59.7779435" lon="14.776518">
        <ele>152.2</ele>
        <time>2012-07-19T18:42:34Z</time>
      </trkpt>
      <trkpt lat="59.7780907" lon="14.7767019">
        <ele>153.2</ele>
        <time>2012-07-19T18:42:36Z</time>
      </trkpt>
      <trkpt lat="59.77848" lon="14.7771024">
        <ele>154.4</ele>
        <time>2012-07-19T18:42:41Z</time>
      </trkpt>
      <trkpt lat="59.7788735" lon="14.7774866">
        <ele>154.6</ele>
        <time>2012-07-19T18:42:46Z</time>
      </trkpt>
      <trkpt lat="59.7792853" lon="14.7777906">
        <ele>154.4</ele>
        <time>2012-07-19T18:42:51Z</time>
      </trkpt>
      <trkpt lat="59.7797021" lon="14.7780803">
        <ele>153.6</ele>
        <time>2012-07-19T18:42:56Z</time>
      </trkpt>
      <trkpt lat="59.7801188" lon="14.7783608">
        <ele>153.8</ele>
        <time>2012-07-19T18:43:01Z</time>
      </trkpt>
      <trkpt lat="59.7805262" lon="14.7786957">
        <ele>153.6</ele>
        <time>2012-07-19T18:43:06Z</time>
      </trkpt>
      <trkpt lat="59.7805998" lon="14.7787873">
        <ele>153.4</ele>
        <time>2012-07-19T18:43:07Z</time>
      </trkpt>
      <trkpt lat="59.7808553" lon="14.7792338">
        <ele>154</ele>
        <time>2012-07-19T18:43:11Z</time>
      </trkpt>
      <trkpt lat="59.7810734" lon="14.7798411">
        <ele>155.6</ele>
        <time>2012-07-19T18:43:16Z</time>
      </trkpt>
      <trkpt lat="59.7813435" lon="14.7804101">
        <ele>158</ele>
        <time>2012-07-19T18:43:22Z</time>
      </trkpt>
      <trkpt lat="59.7816256" lon="14.7800529">
        <ele>158.4</ele>
        <time>2012-07-19T18:43:27Z</time>
      </trkpt>
      <trkpt lat="59.781926" lon="14.7794542">
        <ele>159.4</ele>
        <time>2012-07-19T18:43:32Z</time>
      </trkpt>
      <trkpt lat="59.7822899" lon="14.7789389">
        <ele>159.6</ele>
        <time>2012-07-19T18:43:37Z</time>
      </trkpt>
      <trkpt lat="59.7825988" lon="14.778572">
        <ele>159.2</ele>
        <time>2012-07-19T18:43:41Z</time>
      </trkpt>
      <trkpt lat="59.7829671" lon="14.7781247">
        <ele>158.8</ele>
        <time>2012-07-19T18:43:46Z</time>
      </trkpt>
      <trkpt lat="59.7833112" lon="14.7776549">
        <ele>158.2</ele>
        <time>2012-07-19T18:43:51Z</time>
      </trkpt>
      <trkpt lat="59.7836303" lon="14.7771039">
        <ele>158.4</ele>
        <time>2012-07-19T18:43:56Z</time>
      </trkpt>
      <trkpt lat="59.783926" lon="14.7765335">
        <ele>159</ele>
        <time>2012-07-19T18:44:01Z</time>
      </trkpt>
      <trkpt lat="59.7841945" lon="14.7760072">
        <ele>160.6</ele>
        <time>2012-07-19T18:44:06Z</time>
      </trkpt>
      <trkpt lat="59.7844937" lon="14.7754066">
        <ele>162.2</ele>
        <time>2012-07-19T18:44:12Z</time>
      </trkpt>
      <trkpt lat="59.7847844" lon="14.7748049">
        <ele>163.8</ele>
        <time>2012-07-19T18:44:18Z</time>
      </trkpt>
      <trkpt lat="59.7850792" lon="14.7742201">
        <ele>164.6</ele>
        <time>2012-07-19T18:44:24Z</time>
      </trkpt>
      <trkpt lat="59.7853745" lon="14.773612">
        <ele>165</ele>
        <time>2012-07-19T18:44:30Z</time>
      </trkpt>
      <trkpt lat="59.7856335" lon="14.7731078">
        <ele>165</ele>
        <time>2012-07-19T18:44:35Z</time>
      </trkpt>
      <trkpt lat="59.785924" lon="14.7726308">
        <ele>164.4</ele>
        <time>2012-07-19T18:44:40Z</time>
      </trkpt>
      <trkpt lat="59.7862814" lon="14.7722134">
        <ele>163.6</ele>
        <time>2012-07-19T18:44:45Z</time>
      </trkpt>
      <trkpt lat="59.7866574" lon="14.7718497">
        <ele>161.8</ele>
        <time>2012-07-19T18:44:50Z</time>
      </trkpt>
      <trkpt lat="59.7870407" lon="14.7714929">
        <ele>160</ele>
        <time>2012-07-19T18:44:55Z</time>
      </trkpt>
      <trkpt lat="59.7873562" lon="14.771104">
        <ele>159.2</ele>
        <time>2012-07-19T18:44:59Z</time>
      </trkpt>
      <trkpt lat="59.787664" lon="14.7706614">
        <ele>159.6</ele>
        <time>2012-07-19T18:45:03Z</time>
      </trkpt>
      <trkpt lat="59.7879669" lon="14.7701774">
        <ele>161.2</ele>
        <time>2012-07-19T18:45:07Z</time>
      </trkpt>
      <trkpt lat="59.7882579" lon="14.7696304">
        <ele>164</ele>
        <time>2012-07-19T18:45:11Z</time>
      </trkpt>
      <trkpt lat="59.7885366" lon="14.7691001">
        <ele>163</ele>
        <time>2012-07-19T18:45:15Z</time>
      </trkpt>
      <trkpt lat="59.7888695" lon="14.7684817">
        <ele>162.6</ele>
        <time>2012-07-19T18:45:20Z</time>
      </trkpt>
      <trkpt lat="59.7891759" lon="14.767829">
        <ele>162.6</ele>
        <time>2012-07-19T18:45:25Z</time>
      </trkpt>
      <trkpt lat="59.7894796" lon="14.7672218">
        <ele>161.4</ele>
        <time>2012-07-19T18:45:30Z</time>
      </trkpt>
      <trkpt lat="59.7897832" lon="14.766627">
        <ele>165.8</ele>
        <time>2012-07-19T18:45:35Z</time>
      </trkpt>
      <trkpt lat="59.7900713" lon="14.7659817">
        <ele>170.2</ele>
        <time>2012-07-19T18:45:40Z</time>
      </trkpt>
      <trkpt lat="59.7903882" lon="14.7653401">
        <ele>173.6</ele>
        <time>2012-07-19T18:45:45Z</time>
      </trkpt>
      <trkpt lat="59.7906804" lon="14.7646243">
        <ele>174.8</ele>
        <time>2012-07-19T18:45:50Z</time>
      </trkpt>
      <trkpt lat="59.7909824" lon="14.7640271">
        <ele>174</ele>
        <time>2012-07-19T18:45:55Z</time>
      </trkpt>
      <trkpt lat="59.791232" lon="14.7634091">
        <ele>178.2</ele>
        <time>2012-07-19T18:46:00Z</time>
      </trkpt>
      <trkpt lat="59.7914152" lon="14.7627713">
        <ele>182</ele>
        <time>2012-07-19T18:46:05Z</time>
      </trkpt>
      <trkpt lat="59.7915639" lon="14.7620026">
        <ele>181.8</ele>
        <time>2012-07-19T18:46:11Z</time>
      </trkpt>
      <trkpt lat="59.791666" lon="14.7612278">
        <ele>180.2</ele>
        <time>2012-07-19T18:46:17Z</time>
      </trkpt>
      <trkpt lat="59.7917272" lon="14.7604498">
        <ele>181.4</ele>
        <time>2012-07-19T18:46:23Z</time>
      </trkpt>
      <trkpt lat="59.7917364" lon="14.7596638">
        <ele>183.6</ele>
        <time>2012-07-19T18:46:29Z</time>
      </trkpt>
      <trkpt lat="59.791705" lon="14.7588993">
        <ele>184.4</ele>
        <time>2012-07-19T18:46:35Z</time>
      </trkpt>
      <trkpt lat="59.7916492" lon="14.7581576">
        <ele>184.2</ele>
        <time>2012-07-19T18:46:41Z</time>
      </trkpt>
      <trkpt lat="59.7915732" lon="14.7574677">
        <ele>182.8</ele>
        <time>2012-07-19T18:46:47Z</time>
      </trkpt>
      <trkpt lat="59.791505" lon="14.7566441">
        <ele>184.2</ele>
        <time>2012-07-19T18:46:54Z</time>
      </trkpt>
      <trkpt lat="59.7914368" lon="14.7559">
        <ele>185</ele>
        <time>2012-07-19T18:47:00Z</time>
      </trkpt>
      <trkpt lat="59.7913791" lon="14.7551007">
        <ele>185.2</ele>
        <time>2012-07-19T18:47:06Z</time>
      </trkpt>
      <trkpt lat="59.7913604" lon="14.7543338">
        <ele>184</ele>
        <time>2012-07-19T18:47:11Z</time>
      </trkpt>
      <trkpt lat="59.7913494" lon="14.7534184">
        <ele>180.4</ele>
        <time>2012-07-19T18:47:16Z</time>
      </trkpt>
      <trkpt lat="59.7913941" lon="14.7526301">
        <ele>178.2</ele>
        <time>2012-07-19T18:47:20Z</time>
      </trkpt>
      <trkpt lat="59.7914838" lon="14.7517839">
        <ele>176.8</ele>
        <time>2012-07-19T18:47:24Z</time>
      </trkpt>
      <trkpt lat="59.7916242" lon="14.7509605">
        <ele>174.4</ele>
        <time>2012-07-19T18:47:28Z</time>
      </trkpt>
      <trkpt lat="59.7917827" lon="14.7501962">
        <ele>173.8</ele>
        <time>2012-07-19T18:47:32Z</time>
      </trkpt>
      <trkpt lat="59.7919723" lon="14.7495064">
        <ele>171.8</ele>
        <time>2012-07-19T18:47:36Z</time>
      </trkpt>
      <trkpt lat="59.7921933" lon="14.7488422">
        <ele>175.4</ele>
        <time>2012-07-19T18:47:40Z</time>
      </trkpt>
      <trkpt lat="59.792441" lon="14.7482207">
        <ele>180.2</ele>
        <time>2012-07-19T18:47:44Z</time>
      </trkpt>
      <trkpt lat="59.7927188" lon="14.7476658">
        <ele>181</ele>
        <time>2012-07-19T18:47:48Z</time>
      </trkpt>
      <trkpt lat="59.7930208" lon="14.7471792">
        <ele>179.6</ele>
        <time>2012-07-19T18:47:52Z</time>
      </trkpt>
      <trkpt lat="59.7933502" lon="14.7467468">
        <ele>178.2</ele>
        <time>2012-07-19T18:47:56Z</time>
      </trkpt>
      <trkpt lat="59.7937095" lon="14.7463657">
        <ele>179.2</ele>
        <time>2012-07-19T18:48:00Z</time>
      </trkpt>
      <trkpt lat="59.7940687" lon="14.7460375">
        <ele>177.8</ele>
        <time>2012-07-19T18:48:04Z</time>
      </trkpt>
      <trkpt lat="59.7944497" lon="14.7457491">
        <ele>178</ele>
        <time>2012-07-19T18:48:08Z</time>
      </trkpt>
      <trkpt lat="59.7948242" lon="14.7454586">
        <ele>177.2</ele>
        <time>2012-07-19T18:48:12Z</time>
      </trkpt>
      <trkpt lat="59.7952026" lon="14.7451481">
        <ele>177.2</ele>
        <time>2012-07-19T18:48:16Z</time>
      </trkpt>
      <trkpt lat="59.7955502" lon="14.7447913">
        <ele>175.8</ele>
        <time>2012-07-19T18:48:20Z</time>
      </trkpt>
      <trkpt lat="59.7958719" lon="14.7443863">
        <ele>175</ele>
        <time>2012-07-19T18:48:24Z</time>
      </trkpt>
      <trkpt lat="59.7961566" lon="14.7439347">
        <ele>170.6</ele>
        <time>2012-07-19T18:48:28Z</time>
      </trkpt>
      <trkpt lat="59.7964132" lon="14.7434254">
        <ele>168.2</ele>
        <time>2012-07-19T18:48:32Z</time>
      </trkpt>
      <trkpt lat="59.7967148" lon="14.7427979">
        <ele>169.8</ele>
        <time>2012-07-19T18:48:37Z</time>
      </trkpt>
      <trkpt lat="59.7969746" lon="14.7421774">
        <ele>176.6</ele>
        <time>2012-07-19T18:48:42Z</time>
      </trkpt>
      <trkpt lat="59.7972021" lon="14.7414884">
        <ele>182.2</ele>
        <time>2012-07-19T18:48:47Z</time>
      </trkpt>
      <trkpt lat="59.7974112" lon="14.7407431">
        <ele>182.4</ele>
        <time>2012-07-19T18:48:52Z</time>
      </trkpt>
      <trkpt lat="59.7976174" lon="14.7399838">
        <ele>182.8</ele>
        <time>2012-07-19T18:48:57Z</time>
      </trkpt>
      <trkpt lat="59.797818" lon="14.7391972">
        <ele>180.4</ele>
        <time>2012-07-19T18:49:02Z</time>
      </trkpt>
      <trkpt lat="59.797977" lon="14.7385222">
        <ele>176.8</ele>
        <time>2012-07-19T18:49:06Z</time>
      </trkpt>
      <trkpt lat="59.7981481" lon="14.7378433">
        <ele>174.8</ele>
        <time>2012-07-19T18:49:10Z</time>
      </trkpt>
      <trkpt lat="59.7983291" lon="14.7371539">
        <ele>172.8</ele>
        <time>2012-07-19T18:49:14Z</time>
      </trkpt>
      <trkpt lat="59.7985172" lon="14.7364671">
        <ele>171.8</ele>
        <time>2012-07-19T18:49:18Z</time>
      </trkpt>
      <trkpt lat="59.7986941" lon="14.7358024">
        <ele>170.2</ele>
        <time>2012-07-19T18:49:22Z</time>
      </trkpt>
      <trkpt lat="59.7988593" lon="14.7351505">
        <ele>167.8</ele>
        <time>2012-07-19T18:49:26Z</time>
      </trkpt>
      <trkpt lat="59.7990663" lon="14.7343716">
        <ele>167.2</ele>
        <time>2012-07-19T18:49:31Z</time>
      </trkpt>
      <trkpt lat="59.7992673" lon="14.7336216">
        <ele>169.6</ele>
        <time>2012-07-19T18:49:36Z</time>
      </trkpt>
      <trkpt lat="59.7994683" lon="14.7329124">
        <ele>172.2</ele>
        <time>2012-07-19T18:49:41Z</time>
      </trkpt>
      <trkpt lat="59.7996659" lon="14.7321901">
        <ele>174.2</ele>
        <time>2012-07-19T18:49:46Z</time>
      </trkpt>
      <trkpt lat="59.7998493" lon="14.7314893">
        <ele>174.4</ele>
        <time>2012-07-19T18:49:51Z</time>
      </trkpt>
      <trkpt lat="59.8000228" lon="14.7307776">
        <ele>171.2</ele>
        <time>2012-07-19T18:49:56Z</time>
      </trkpt>
      <trkpt lat="59.8002229" lon="14.7300173">
        <ele>169</ele>
        <time>2012-07-19T18:50:01Z</time>
      </trkpt>
      <trkpt lat="59.8004131" lon="14.7292698">
        <ele>166.8</ele>
        <time>2012-07-19T18:50:06Z</time>
      </trkpt>
      <trkpt lat="59.8005908" lon="14.7285517">
        <ele>168</ele>
        <time>2012-07-19T18:50:11Z</time>
      </trkpt>
      <trkpt lat="59.8007713" lon="14.7278555">
        <ele>170.2</ele>
        <time>2012-07-19T18:50:16Z</time>
      </trkpt>
      <trkpt lat="59.8009592" lon="14.7271844">
        <ele>171.2</ele>
        <time>2012-07-19T18:50:21Z</time>
      </trkpt>
      <trkpt lat="59.8011414" lon="14.7264801">
        <ele>172.2</ele>
        <time>2012-07-19T18:50:26Z</time>
      </trkpt>
      <trkpt lat="59.8013315" lon="14.7258228">
        <ele>172.8</ele>
        <time>2012-07-19T18:50:31Z</time>
      </trkpt>
      <trkpt lat="59.8014928" lon="14.7251961">
        <ele>171.2</ele>
        <time>2012-07-19T18:50:36Z</time>
      </trkpt>
      <trkpt lat="59.8016899" lon="14.7244404">
        <ele>169.4</ele>
        <time>2012-07-19T18:50:42Z</time>
      </trkpt>
      <trkpt lat="59.8018448" lon="14.7237446">
        <ele>169.8</ele>
        <time>2012-07-19T18:50:48Z</time>
      </trkpt>
      <trkpt lat="59.8019938" lon="14.7229506">
        <ele>172</ele>
        <time>2012-07-19T18:50:54Z</time>
      </trkpt>
      <trkpt lat="59.8020905" lon="14.722169">
        <ele>172.6</ele>
        <time>2012-07-19T18:50:59Z</time>
      </trkpt>
      <trkpt lat="59.8021691" lon="14.7213207">
        <ele>173.6</ele>
        <time>2012-07-19T18:51:04Z</time>
      </trkpt>
      <trkpt lat="59.8022412" lon="14.7205031">
        <ele>173.4</ele>
        <time>2012-07-19T18:51:09Z</time>
      </trkpt>
      <trkpt lat="59.8022853" lon="14.7197384">
        <ele>173.8</ele>
        <time>2012-07-19T18:51:14Z</time>
      </trkpt>
      <trkpt lat="59.8023397" lon="14.7189023">
        <ele>174</ele>
        <time>2012-07-19T18:51:20Z</time>
      </trkpt>
      <trkpt lat="59.8023753" lon="14.7181766">
        <ele>174.4</ele>
        <time>2012-07-19T18:51:25Z</time>
      </trkpt>
      <trkpt lat="59.8024103" lon="14.7174178">
        <ele>174</ele>
        <time>2012-07-19T18:51:30Z</time>
      </trkpt>
      <trkpt lat="59.8024488" lon="14.7165884">
        <ele>174.8</ele>
        <time>2012-07-19T18:51:35Z</time>
      </trkpt>
      <trkpt lat="59.802492" lon="14.7158554">
        <ele>174.8</ele>
        <time>2012-07-19T18:51:39Z</time>
      </trkpt>
      <trkpt lat="59.802547" lon="14.7149973">
        <ele>174.6</ele>
        <time>2012-07-19T18:51:44Z</time>
      </trkpt>
      <trkpt lat="59.8026032" lon="14.7142418">
        <ele>174.4</ele>
        <time>2012-07-19T18:51:49Z</time>
      </trkpt>
      <trkpt lat="59.8026531" lon="14.7135166">
        <ele>175.4</ele>
        <time>2012-07-19T18:51:54Z</time>
      </trkpt>
      <trkpt lat="59.8026973" lon="14.7127017">
        <ele>174.4</ele>
        <time>2012-07-19T18:52:00Z</time>
      </trkpt>
      <trkpt lat="59.8027422" lon="14.7119872">
        <ele>174</ele>
        <time>2012-07-19T18:52:05Z</time>
      </trkpt>
      <trkpt lat="59.8027866" lon="14.7112461">
        <ele>174</ele>
        <time>2012-07-19T18:52:10Z</time>
      </trkpt>
      <trkpt lat="59.8028593" lon="14.7105084">
        <ele>175.2</ele>
        <time>2012-07-19T18:52:15Z</time>
      </trkpt>
      <trkpt lat="59.8029629" lon="14.7097489">
        <ele>176.6</ele>
        <time>2012-07-19T18:52:21Z</time>
      </trkpt>
      <trkpt lat="59.8030554" lon="14.7091503">
        <ele>177.8</ele>
        <time>2012-07-19T18:52:26Z</time>
      </trkpt>
      <trkpt lat="59.8030793" lon="14.7090317">
        <ele>177.8</ele>
        <time>2012-07-19T18:52:27Z</time>
      </trkpt>
      <trkpt lat="59.8032245" lon="14.7082757">
        <ele>176.8</ele>
        <time>2012-07-19T18:52:33Z</time>
      </trkpt>
      <trkpt lat="59.803386" lon="14.7074594">
        <ele>176.4</ele>
        <time>2012-07-19T18:52:39Z</time>
      </trkpt>
      <trkpt lat="59.803547" lon="14.7067525">
        <ele>181</ele>
        <time>2012-07-19T18:52:44Z</time>
      </trkpt>
      <trkpt lat="59.8037083" lon="14.7059755">
        <ele>180.4</ele>
        <time>2012-07-19T18:52:49Z</time>
      </trkpt>
      <trkpt lat="59.8038775" lon="14.7051517">
        <ele>177.8</ele>
        <time>2012-07-19T18:52:54Z</time>
      </trkpt>
      <trkpt lat="59.8040226" lon="14.7044745">
        <ele>174.4</ele>
        <time>2012-07-19T18:52:58Z</time>
      </trkpt>
      <trkpt lat="59.8041834" lon="14.7038251">
        <ele>172</ele>
        <time>2012-07-19T18:53:02Z</time>
      </trkpt>
      <trkpt lat="59.80442" lon="14.7031134">
        <ele>173</ele>
        <time>2012-07-19T18:53:07Z</time>
      </trkpt>
      <trkpt lat="59.8047055" lon="14.7025263">
        <ele>180.4</ele>
        <time>2012-07-19T18:53:12Z</time>
      </trkpt>
      <trkpt lat="59.8049904" lon="14.7019598">
        <ele>183.4</ele>
        <time>2012-07-19T18:53:17Z</time>
      </trkpt>
      <trkpt lat="59.8052813" lon="14.7014687">
        <ele>186</ele>
        <time>2012-07-19T18:53:22Z</time>
      </trkpt>
      <trkpt lat="59.8055794" lon="14.7009824">
        <ele>187.6</ele>
        <time>2012-07-19T18:53:27Z</time>
      </trkpt>
      <trkpt lat="59.8058898" lon="14.7004632">
        <ele>183.4</ele>
        <time>2012-07-19T18:53:32Z</time>
      </trkpt>
      <trkpt lat="59.8061906" lon="14.6998721">
        <ele>180.2</ele>
        <time>2012-07-19T18:53:37Z</time>
      </trkpt>
      <trkpt lat="59.8064905" lon="14.6991996">
        <ele>181.4</ele>
        <time>2012-07-19T18:53:42Z</time>
      </trkpt>
      <trkpt lat="59.8067542" lon="14.69846">
        <ele>185.2</ele>
        <time>2012-07-19T18:53:47Z</time>
      </trkpt>
      <trkpt lat="59.8069566" lon="14.6977165">
        <ele>184.4</ele>
        <time>2012-07-19T18:53:52Z</time>
      </trkpt>
      <trkpt lat="59.8071667" lon="14.6970055">
        <ele>179.6</ele>
        <time>2012-07-19T18:53:57Z</time>
      </trkpt>
      <trkpt lat="59.8074305" lon="14.6964208">
        <ele>185.8</ele>
        <time>2012-07-19T18:54:02Z</time>
      </trkpt>
      <trkpt lat="59.8077067" lon="14.6959038">
        <ele>187.2</ele>
        <time>2012-07-19T18:54:07Z</time>
      </trkpt>
      <trkpt lat="59.8079824" lon="14.6954478">
        <ele>184.8</ele>
        <time>2012-07-19T18:54:12Z</time>
      </trkpt>
      <trkpt lat="59.8082844" lon="14.6950728">
        <ele>184</ele>
        <time>2012-07-19T18:54:17Z</time>
      </trkpt>
      <trkpt lat="59.8086071" lon="14.6947402">
        <ele>183.4</ele>
        <time>2012-07-19T18:54:22Z</time>
      </trkpt>
      <trkpt lat="59.8089557" lon="14.6943901">
        <ele>172</ele>
        <time>2012-07-19T18:54:28Z</time>
      </trkpt>
      <trkpt lat="59.8093207" lon="14.6941384">
        <ele>166</ele>
        <time>2012-07-19T18:54:34Z</time>
      </trkpt>
      <trkpt lat="59.8096339" lon="14.6939227">
        <ele>157.2</ele>
        <time>2012-07-19T18:54:40Z</time>
      </trkpt>
      <trkpt lat="59.8100525" lon="14.693598">
        <ele>161.4</ele>
        <time>2012-07-19T18:54:47Z</time>
      </trkpt>
      <trkpt lat="59.8102383" lon="14.6934504">
        <ele>164.4</ele>
        <time>2012-07-19T18:54:50Z</time>
      </trkpt>
      <trkpt lat="59.8104482" lon="14.6932225">
        <ele>168</ele>
        <time>2012-07-19T18:54:54Z</time>
      </trkpt>
      <trkpt lat="59.8108107" lon="14.6927453">
        <ele>176.8</ele>
        <time>2012-07-19T18:55:01Z</time>
      </trkpt>
      <trkpt lat="59.8109506" lon="14.6925221">
        <ele>179.4</ele>
        <time>2012-07-19T18:55:04Z</time>
      </trkpt>
      <trkpt lat="59.8110904" lon="14.6922736">
        <ele>182.2</ele>
        <time>2012-07-19T18:55:07Z</time>
      </trkpt>
      <trkpt lat="59.8113638" lon="14.6917026">
        <ele>194.8</ele>
        <time>2012-07-19T18:55:13Z</time>
      </trkpt>
      <trkpt lat="59.811623" lon="14.6911019">
        <ele>203.6</ele>
        <time>2012-07-19T18:55:19Z</time>
      </trkpt>
      <trkpt lat="59.8118406" lon="14.6903937">
        <ele>203.2</ele>
        <time>2012-07-19T18:55:25Z</time>
      </trkpt>
      <trkpt lat="59.8120118" lon="14.6896511">
        <ele>198.6</ele>
        <time>2012-07-19T18:55:31Z</time>
      </trkpt>
      <trkpt lat="59.8121266" lon="14.688869">
        <ele>192.6</ele>
        <time>2012-07-19T18:55:37Z</time>
      </trkpt>
      <trkpt lat="59.8121864" lon="14.6880642">
        <ele>191</ele>
        <time>2012-07-19T18:55:43Z</time>
      </trkpt>
      <trkpt lat="59.8122089" lon="14.6872729">
        <ele>191.6</ele>
        <time>2012-07-19T18:55:49Z</time>
      </trkpt>
      <trkpt lat="59.8122284" lon="14.6865192">
        <ele>192.6</ele>
        <time>2012-07-19T18:55:55Z</time>
      </trkpt>
      <trkpt lat="59.8122579" lon="14.6858099">
        <ele>193.6</ele>
        <time>2012-07-19T18:56:01Z</time>
      </trkpt>
      <trkpt lat="59.8122755" lon="14.6850121">
        <ele>194.2</ele>
        <time>2012-07-19T18:56:08Z</time>
      </trkpt>
      <trkpt lat="59.8122902" lon="14.6842143">
        <ele>194.8</ele>
        <time>2012-07-19T18:56:15Z</time>
      </trkpt>
      <trkpt lat="59.8123102" lon="14.6834263">
        <ele>195.4</ele>
        <time>2012-07-19T18:56:22Z</time>
      </trkpt>
      <trkpt lat="59.8123222" lon="14.6826653">
        <ele>195.8</ele>
        <time>2012-07-19T18:56:28Z</time>
      </trkpt>
      <trkpt lat="59.8123511" lon="14.6818375">
        <ele>197.4</ele>
        <time>2012-07-19T18:56:35Z</time>
      </trkpt>
      <trkpt lat="59.8123732" lon="14.6810074">
        <ele>199.6</ele>
        <time>2012-07-19T18:56:42Z</time>
      </trkpt>
      <trkpt lat="59.8123979" lon="14.6802872">
        <ele>200.8</ele>
        <time>2012-07-19T18:56:48Z</time>
      </trkpt>
      <trkpt lat="59.8124192" lon="14.679553">
        <ele>202</ele>
        <time>2012-07-19T18:56:54Z</time>
      </trkpt>
      <trkpt lat="59.8124475" lon="14.6788005">
        <ele>202.6</ele>
        <time>2012-07-19T18:57:00Z</time>
      </trkpt>
      <trkpt lat="59.8124746" lon="14.6780769">
        <ele>203.6</ele>
        <time>2012-07-19T18:57:06Z</time>
      </trkpt>
      <trkpt lat="59.8125041" lon="14.6772818">
        <ele>205</ele>
        <time>2012-07-19T18:57:13Z</time>
      </trkpt>
      <trkpt lat="59.8125141" lon="14.6769482">
        <ele>206</ele>
        <time>2012-07-19T18:57:16Z</time>
      </trkpt>
      <trkpt lat="59.8125316" lon="14.676494">
        <ele>206.4</ele>
        <time>2012-07-19T18:57:20Z</time>
      </trkpt>
      <trkpt lat="59.8125517" lon="14.6757717">
        <ele>208.4</ele>
        <time>2012-07-19T18:57:26Z</time>
      </trkpt>
      <trkpt lat="59.8125735" lon="14.6749917">
        <ele>209.2</ele>
        <time>2012-07-19T18:57:33Z</time>
      </trkpt>
      <trkpt lat="59.8125961" lon="14.6742074">
        <ele>210.2</ele>
        <time>2012-07-19T18:57:40Z</time>
      </trkpt>
      <trkpt lat="59.8126144" lon="14.6736205">
        <ele>212.4</ele>
        <time>2012-07-19T18:57:46Z</time>
      </trkpt>
      <trkpt lat="59.8126218" lon="14.6734205">
        <ele>213.8</ele>
        <time>2012-07-19T18:57:48Z</time>
      </trkpt>
      <trkpt lat="59.8126396" lon="14.6728596">
        <ele>215.6</ele>
        <time>2012-07-19T18:57:54Z</time>
      </trkpt>
      <trkpt lat="59.8126378" lon="14.6726728">
        <ele>215.8</ele>
        <time>2012-07-19T18:57:56Z</time>
      </trkpt>
      <trkpt lat="59.812664" lon="14.6719151">
        <ele>218.8</ele>
        <time>2012-07-19T18:58:04Z</time>
      </trkpt>
      <trkpt lat="59.8127008" lon="14.6712357">
        <ele>221.2</ele>
        <time>2012-07-19T18:58:11Z</time>
      </trkpt>
      <trkpt lat="59.8127031" lon="14.6711286">
        <ele>221.4</ele>
        <time>2012-07-19T18:58:12Z</time>
      </trkpt>
      <trkpt lat="59.8127116" lon="14.6709149">
        <ele>221.8</ele>
        <time>2012-07-19T18:58:14Z</time>
      </trkpt>
      <trkpt lat="59.8127253" lon="14.6703161">
        <ele>222.6</ele>
        <time>2012-07-19T18:58:19Z</time>
      </trkpt>
      <trkpt lat="59.8127533" lon="14.6695073">
        <ele>224.6</ele>
        <time>2012-07-19T18:58:26Z</time>
      </trkpt>
      <trkpt lat="59.8127827" lon="14.6686812">
        <ele>226.4</ele>
        <time>2012-07-19T18:58:33Z</time>
      </trkpt>
      <trkpt lat="59.8128008" lon="14.6679023">
        <ele>228.2</ele>
        <time>2012-07-19T18:58:39Z</time>
      </trkpt>
      <trkpt lat="59.8128293" lon="14.6671899">
        <ele>229</ele>
        <time>2012-07-19T18:58:45Z</time>
      </trkpt>
      <trkpt lat="59.8128572" lon="14.6664423">
        <ele>231</ele>
        <time>2012-07-19T18:58:51Z</time>
      </trkpt>
      <trkpt lat="59.8129188" lon="14.6657011">
        <ele>232.4</ele>
        <time>2012-07-19T18:58:57Z</time>
      </trkpt>
      <trkpt lat="59.8130206" lon="14.6650033">
        <ele>233</ele>
        <time>2012-07-19T18:59:03Z</time>
      </trkpt>
      <trkpt lat="59.8131677" lon="14.6642984">
        <ele>233.6</ele>
        <time>2012-07-19T18:59:09Z</time>
      </trkpt>
      <trkpt lat="59.8133954" lon="14.663623">
        <ele>233</ele>
        <time>2012-07-19T18:59:15Z</time>
      </trkpt>
      <trkpt lat="59.8136459" lon="14.6630439">
        <ele>229.4</ele>
        <time>2012-07-19T18:59:20Z</time>
      </trkpt>
      <trkpt lat="59.8139743" lon="14.6624599">
        <ele>225</ele>
        <time>2012-07-19T18:59:25Z</time>
      </trkpt>
      <trkpt lat="59.8143146" lon="14.6620103">
        <ele>222.2</ele>
        <time>2012-07-19T18:59:29Z</time>
      </trkpt>
      <trkpt lat="59.8146938" lon="14.6615898">
        <ele>220.2</ele>
        <time>2012-07-19T18:59:33Z</time>
      </trkpt>
      <trkpt lat="59.8150828" lon="14.6611633">
        <ele>217.4</ele>
        <time>2012-07-19T18:59:37Z</time>
      </trkpt>
      <trkpt lat="59.8154525" lon="14.6606935">
        <ele>215.6</ele>
        <time>2012-07-19T18:59:41Z</time>
      </trkpt>
      <trkpt lat="59.8157996" lon="14.6601066">
        <ele>213.4</ele>
        <time>2012-07-19T18:59:45Z</time>
      </trkpt>
      <trkpt lat="59.8160974" lon="14.6593715">
        <ele>212.2</ele>
        <time>2012-07-19T18:59:49Z</time>
      </trkpt>
      <trkpt lat="59.8163213" lon="14.658565">
        <ele>211</ele>
        <time>2012-07-19T18:59:53Z</time>
      </trkpt>
      <trkpt lat="59.8164804" lon="14.6576891">
        <ele>208.8</ele>
        <time>2012-07-19T18:59:57Z</time>
      </trkpt>
      <trkpt lat="59.8165646" lon="14.6569798">
        <ele>206.8</ele>
        <time>2012-07-19T19:00:00Z</time>
      </trkpt>
      <trkpt lat="59.8166371" lon="14.6562419">
        <ele>205.2</ele>
        <time>2012-07-19T19:00:03Z</time>
      </trkpt>
      <trkpt lat="59.8167148" lon="14.6554937">
        <ele>203.6</ele>
        <time>2012-07-19T19:00:06Z</time>
      </trkpt>
      <trkpt lat="59.8167943" lon="14.6547328">
        <ele>202.4</ele>
        <time>2012-07-19T19:00:09Z</time>
      </trkpt>
      <trkpt lat="59.8168761" lon="14.6539931">
        <ele>201</ele>
        <time>2012-07-19T19:00:12Z</time>
      </trkpt>
      <trkpt lat="59.8169771" lon="14.6532794">
        <ele>198.6</ele>
        <time>2012-07-19T19:00:15Z</time>
      </trkpt>
      <trkpt lat="59.8170826" lon="14.6525887">
        <ele>197.4</ele>
        <time>2012-07-19T19:00:18Z</time>
      </trkpt>
      <trkpt lat="59.8172448" lon="14.651724">
        <ele>196.6</ele>
        <time>2012-07-19T19:00:22Z</time>
      </trkpt>
      <trkpt lat="59.8174574" lon="14.6508928">
        <ele>195.8</ele>
        <time>2012-07-19T19:00:26Z</time>
      </trkpt>
      <trkpt lat="59.8177192" lon="14.6501121">
        <ele>195</ele>
        <time>2012-07-19T19:00:30Z</time>
      </trkpt>
      <trkpt lat="59.8180119" lon="14.6493971">
        <ele>194</ele>
        <time>2012-07-19T19:00:34Z</time>
      </trkpt>
      <trkpt lat="59.8183279" lon="14.6487916">
        <ele>194.4</ele>
        <time>2012-07-19T19:00:38Z</time>
      </trkpt>
      <trkpt lat="59.8186361" lon="14.6482338">
        <ele>196.2</ele>
        <time>2012-07-19T19:00:42Z</time>
      </trkpt>
      <trkpt lat="59.8189232" lon="14.6476876">
        <ele>196.4</ele>
        <time>2012-07-19T19:00:46Z</time>
      </trkpt>
      <trkpt lat="59.8191858" lon="14.6471738">
        <ele>196.8</ele>
        <time>2012-07-19T19:00:50Z</time>
      </trkpt>
      <trkpt lat="59.819471" lon="14.6465695">
        <ele>196.8</ele>
        <time>2012-07-19T19:00:55Z</time>
      </trkpt>
      <trkpt lat="59.8197267" lon="14.6459586">
        <ele>197.6</ele>
        <time>2012-07-19T19:01:00Z</time>
      </trkpt>
      <trkpt lat="59.8199322" lon="14.64532">
        <ele>199.4</ele>
        <time>2012-07-19T19:01:05Z</time>
      </trkpt>
      <trkpt lat="59.8201058" lon="14.6446518">
        <ele>201.2</ele>
        <time>2012-07-19T19:01:10Z</time>
      </trkpt>
      <trkpt lat="59.8202425" lon="14.6439305">
        <ele>201.2</ele>
        <time>2012-07-19T19:01:15Z</time>
      </trkpt>
      <trkpt lat="59.8203593" lon="14.6432221">
        <ele>201.6</ele>
        <time>2012-07-19T19:01:20Z</time>
      </trkpt>
      <trkpt lat="59.8204473" lon="14.6424973">
        <ele>201.4</ele>
        <time>2012-07-19T19:01:25Z</time>
      </trkpt>
      <trkpt lat="59.8205083" lon="14.641734">
        <ele>200.4</ele>
        <time>2012-07-19T19:01:30Z</time>
      </trkpt>
      <trkpt lat="59.8205337" lon="14.6408777">
        <ele>198.4</ele>
        <time>2012-07-19T19:01:35Z</time>
      </trkpt>
      <trkpt lat="59.8205245" lon="14.6401553">
        <ele>197.2</ele>
        <time>2012-07-19T19:01:39Z</time>
      </trkpt>
      <trkpt lat="59.8204763" lon="14.6392959">
        <ele>197.2</ele>
        <time>2012-07-19T19:01:44Z</time>
      </trkpt>
      <trkpt lat="59.8203872" lon="14.6384683">
        <ele>197.8</ele>
        <time>2012-07-19T19:01:49Z</time>
      </trkpt>
      <trkpt lat="59.8202762" lon="14.6377354">
        <ele>200.4</ele>
        <time>2012-07-19T19:01:54Z</time>
      </trkpt>
      <trkpt lat="59.8201364" lon="14.6370592">
        <ele>203</ele>
        <time>2012-07-19T19:01:59Z</time>
      </trkpt>
      <trkpt lat="59.8199428" lon="14.6362889">
        <ele>204</ele>
        <time>2012-07-19T19:02:05Z</time>
      </trkpt>
      <trkpt lat="59.8197661" lon="14.6356395">
        <ele>204.4</ele>
        <time>2012-07-19T19:02:10Z</time>
      </trkpt>
      <trkpt lat="59.819588" lon="14.6349667">
        <ele>205.4</ele>
        <time>2012-07-19T19:02:15Z</time>
      </trkpt>
      <trkpt lat="59.8194098" lon="14.6342878">
        <ele>204.8</ele>
        <time>2012-07-19T19:02:20Z</time>
      </trkpt>
      <trkpt lat="59.8192243" lon="14.6336038">
        <ele>204.2</ele>
        <time>2012-07-19T19:02:25Z</time>
      </trkpt>
      <trkpt lat="59.8190439" lon="14.6329151">
        <ele>203</ele>
        <time>2012-07-19T19:02:30Z</time>
      </trkpt>
      <trkpt lat="59.8188563" lon="14.6321803">
        <ele>202</ele>
        <time>2012-07-19T19:02:35Z</time>
      </trkpt>
      <trkpt lat="59.8186627" lon="14.631412">
        <ele>201.2</ele>
        <time>2012-07-19T19:02:40Z</time>
      </trkpt>
      <trkpt lat="59.8184659" lon="14.6306293">
        <ele>201.4</ele>
        <time>2012-07-19T19:02:45Z</time>
      </trkpt>
      <trkpt lat="59.8182996" lon="14.6299724">
        <ele>200.6</ele>
        <time>2012-07-19T19:02:49Z</time>
      </trkpt>
      <trkpt lat="59.81812" lon="14.6293081">
        <ele>198.6</ele>
        <time>2012-07-19T19:02:53Z</time>
      </trkpt>
      <trkpt lat="59.8179487" lon="14.6286488">
        <ele>197.8</ele>
        <time>2012-07-19T19:02:57Z</time>
      </trkpt>
      <trkpt lat="59.8177503" lon="14.6279035">
        <ele>197.2</ele>
        <time>2012-07-19T19:03:02Z</time>
      </trkpt>
      <trkpt lat="59.8175735" lon="14.6272012">
        <ele>201.2</ele>
        <time>2012-07-19T19:03:08Z</time>
      </trkpt>
      <trkpt lat="59.8174112" lon="14.6265394">
        <ele>205.6</ele>
        <time>2012-07-19T19:03:14Z</time>
      </trkpt>
      <trkpt lat="59.8172501" lon="14.625932">
        <ele>211.2</ele>
        <time>2012-07-19T19:03:20Z</time>
      </trkpt>
      <trkpt lat="59.8170712" lon="14.6252518">
        <ele>213.6</ele>
        <time>2012-07-19T19:03:27Z</time>
      </trkpt>
      <trkpt lat="59.8168868" lon="14.6245613">
        <ele>217.4</ele>
        <time>2012-07-19T19:03:34Z</time>
      </trkpt>
      <trkpt lat="59.8166974" lon="14.6238437">
        <ele>219</ele>
        <time>2012-07-19T19:03:41Z</time>
      </trkpt>
      <trkpt lat="59.8165279" lon="14.6231533">
        <ele>221.2</ele>
        <time>2012-07-19T19:03:48Z</time>
      </trkpt>
      <trkpt lat="59.8163543" lon="14.6224622">
        <ele>221.8</ele>
        <time>2012-07-19T19:03:55Z</time>
      </trkpt>
      <trkpt lat="59.8161825" lon="14.6217759">
        <ele>218.4</ele>
        <time>2012-07-19T19:04:01Z</time>
      </trkpt>
      <trkpt lat="59.8159976" lon="14.6210518">
        <ele>218.4</ele>
        <time>2012-07-19T19:04:07Z</time>
      </trkpt>
      <trkpt lat="59.8158199" lon="14.6203621">
        <ele>215.6</ele>
        <time>2012-07-19T19:04:12Z</time>
      </trkpt>
      <trkpt lat="59.8156345" lon="14.6196309">
        <ele>214.6</ele>
        <time>2012-07-19T19:04:17Z</time>
      </trkpt>
      <trkpt lat="59.8154552" lon="14.6189663">
        <ele>216.2</ele>
        <time>2012-07-19T19:04:22Z</time>
      </trkpt>
      <trkpt lat="59.8152946" lon="14.6182849">
        <ele>220.4</ele>
        <time>2012-07-19T19:04:28Z</time>
      </trkpt>
      <trkpt lat="59.8151325" lon="14.6176262">
        <ele>223</ele>
        <time>2012-07-19T19:04:34Z</time>
      </trkpt>
      <trkpt lat="59.8149719" lon="14.6169505">
        <ele>221.6</ele>
        <time>2012-07-19T19:04:40Z</time>
      </trkpt>
      <trkpt lat="59.8147994" lon="14.6162808">
        <ele>221.2</ele>
        <time>2012-07-19T19:04:46Z</time>
      </trkpt>
      <trkpt lat="59.8146218" lon="14.6155763">
        <ele>220.6</ele>
        <time>2012-07-19T19:04:52Z</time>
      </trkpt>
      <trkpt lat="59.8144331" lon="14.6148187">
        <ele>220</ele>
        <time>2012-07-19T19:04:58Z</time>
      </trkpt>
      <trkpt lat="59.8142405" lon="14.6140793">
        <ele>220.8</ele>
        <time>2012-07-19T19:05:04Z</time>
      </trkpt>
      <trkpt lat="59.814064" lon="14.6133962">
        <ele>222</ele>
        <time>2012-07-19T19:05:10Z</time>
      </trkpt>
      <trkpt lat="59.8138878" lon="14.6127486">
        <ele>222.8</ele>
        <time>2012-07-19T19:05:16Z</time>
      </trkpt>
      <trkpt lat="59.8137189" lon="14.6121061">
        <ele>225.6</ele>
        <time>2012-07-19T19:05:22Z</time>
      </trkpt>
      <trkpt lat="59.8135379" lon="14.6114551">
        <ele>227.2</ele>
        <time>2012-07-19T19:05:28Z</time>
      </trkpt>
      <trkpt lat="59.8133395" lon="14.6108464">
        <ele>229.4</ele>
        <time>2012-07-19T19:05:34Z</time>
      </trkpt>
      <trkpt lat="59.8130676" lon="14.6102076">
        <ele>229</ele>
        <time>2012-07-19T19:05:41Z</time>
      </trkpt>
      <trkpt lat="59.8127947" lon="14.6096474">
        <ele>227.8</ele>
        <time>2012-07-19T19:05:48Z</time>
      </trkpt>
      <trkpt lat="59.8125114" lon="14.6091698">
        <ele>229.6</ele>
        <time>2012-07-19T19:05:55Z</time>
      </trkpt>
      <trkpt lat="59.8123279" lon="14.60888">
        <ele>233.8</ele>
        <time>2012-07-19T19:06:00Z</time>
      </trkpt>
      <trkpt lat="59.812204" lon="14.6087227">
        <ele>235.4</ele>
        <time>2012-07-19T19:06:03Z</time>
      </trkpt>
      <trkpt lat="59.8118385" lon="14.6082904">
        <ele>234</ele>
        <time>2012-07-19T19:06:11Z</time>
      </trkpt>
      <trkpt lat="59.8115007" lon="14.6079569">
        <ele>233.6</ele>
        <time>2012-07-19T19:06:18Z</time>
      </trkpt>
      <trkpt lat="59.8111444" lon="14.6076768">
        <ele>234.4</ele>
        <time>2012-07-19T19:06:25Z</time>
      </trkpt>
      <trkpt lat="59.8107952" lon="14.6074623">
        <ele>235.4</ele>
        <time>2012-07-19T19:06:31Z</time>
      </trkpt>
      <trkpt lat="59.810385" lon="14.6072432">
        <ele>234</ele>
        <time>2012-07-19T19:06:37Z</time>
      </trkpt>
      <trkpt lat="59.8100261" lon="14.6070546">
        <ele>233</ele>
        <time>2012-07-19T19:06:42Z</time>
      </trkpt>
      <trkpt lat="59.809667" lon="14.6068671">
        <ele>233</ele>
        <time>2012-07-19T19:06:47Z</time>
      </trkpt>
      <trkpt lat="59.8093029" lon="14.6066801">
        <ele>233.4</ele>
        <time>2012-07-19T19:06:52Z</time>
      </trkpt>
      <trkpt lat="59.8089055" lon="14.6064761">
        <ele>234</ele>
        <time>2012-07-19T19:06:58Z</time>
      </trkpt>
      <trkpt lat="59.8085195" lon="14.606274">
        <ele>234.8</ele>
        <time>2012-07-19T19:07:04Z</time>
      </trkpt>
      <trkpt lat="59.8081451" lon="14.6060847">
        <ele>236.8</ele>
        <time>2012-07-19T19:07:10Z</time>
      </trkpt>
      <trkpt lat="59.8077585" lon="14.6058181">
        <ele>237.8</ele>
        <time>2012-07-19T19:07:16Z</time>
      </trkpt>
      <trkpt lat="59.8074178" lon="14.6055249">
        <ele>237.6</ele>
        <time>2012-07-19T19:07:21Z</time>
      </trkpt>
      <trkpt lat="59.8070666" lon="14.6051653">
        <ele>237.4</ele>
        <time>2012-07-19T19:07:26Z</time>
      </trkpt>
      <trkpt lat="59.8067019" lon="14.6046814">
        <ele>236.4</ele>
        <time>2012-07-19T19:07:31Z</time>
      </trkpt>
      <trkpt lat="59.806387" lon="14.6042046">
        <ele>235.6</ele>
        <time>2012-07-19T19:07:35Z</time>
      </trkpt>
      <trkpt lat="59.8061058" lon="14.6036735">
        <ele>236.6</ele>
        <time>2012-07-19T19:07:39Z</time>
      </trkpt>
      <trkpt lat="59.8058367" lon="14.6030376">
        <ele>241.4</ele>
        <time>2012-07-19T19:07:44Z</time>
      </trkpt>
      <trkpt lat="59.805624" lon="14.6025249">
        <ele>241.8</ele>
        <time>2012-07-19T19:07:48Z</time>
      </trkpt>
      <trkpt lat="59.8055747" lon="14.6023965">
        <ele>241.6</ele>
        <time>2012-07-19T19:07:49Z</time>
      </trkpt>
      <trkpt lat="59.8053798" lon="14.6017357">
        <ele>239.8</ele>
        <time>2012-07-19T19:07:54Z</time>
      </trkpt>
      <trkpt lat="59.8052038" lon="14.6010243">
        <ele>239</ele>
        <time>2012-07-19T19:07:59Z</time>
      </trkpt>
      <trkpt lat="59.8050748" lon="14.6002685">
        <ele>239.6</ele>
        <time>2012-07-19T19:08:04Z</time>
      </trkpt>
      <trkpt lat="59.804976" lon="14.5994968">
        <ele>241</ele>
        <time>2012-07-19T19:08:09Z</time>
      </trkpt>
      <trkpt lat="59.8049011" lon="14.5986961">
        <ele>240</ele>
        <time>2012-07-19T19:08:14Z</time>
      </trkpt>
      <trkpt lat="59.8048666" lon="14.5979522">
        <ele>238.4</ele>
        <time>2012-07-19T19:08:18Z</time>
      </trkpt>
      <trkpt lat="59.8048733" lon="14.5971607">
        <ele>235.8</ele>
        <time>2012-07-19T19:08:22Z</time>
      </trkpt>
      <trkpt lat="59.804906" lon="14.5962945">
        <ele>232.2</ele>
        <time>2012-07-19T19:08:26Z</time>
      </trkpt>
      <trkpt lat="59.8049525" lon="14.5953626">
        <ele>228</ele>
        <time>2012-07-19T19:08:30Z</time>
      </trkpt>
      <trkpt lat="59.8049702" lon="14.5944124">
        <ele>223.6</ele>
        <time>2012-07-19T19:08:34Z</time>
      </trkpt>
      <trkpt lat="59.8049686" lon="14.5934655">
        <ele>220.2</ele>
        <time>2012-07-19T19:08:38Z</time>
      </trkpt>
      <trkpt lat="59.8049239" lon="14.5925742">
        <ele>219</ele>
        <time>2012-07-19T19:08:42Z</time>
      </trkpt>
      <trkpt lat="59.8048324" lon="14.591748">
        <ele>218.2</ele>
        <time>2012-07-19T19:08:46Z</time>
      </trkpt>
      <trkpt lat="59.8047861" lon="14.5915205">
        <ele>218.2</ele>
        <time>2012-07-19T19:08:47Z</time>
      </trkpt>
      <trkpt lat="59.8046673" lon="14.5908927">
        <ele>215</ele>
        <time>2012-07-19T19:08:50Z</time>
      </trkpt>
      <trkpt lat="59.8044868" lon="14.5900326">
        <ele>213.4</ele>
        <time>2012-07-19T19:08:54Z</time>
      </trkpt>
      <trkpt lat="59.8043131" lon="14.5893978">
        <ele>212.8</ele>
        <time>2012-07-19T19:08:57Z</time>
      </trkpt>
      <trkpt lat="59.8041133" lon="14.5888119">
        <ele>214.6</ele>
        <time>2012-07-19T19:09:00Z</time>
      </trkpt>
      <trkpt lat="59.8037977" lon="14.5880794">
        <ele>214</ele>
        <time>2012-07-19T19:09:04Z</time>
      </trkpt>
      <trkpt lat="59.8034712" lon="14.5874314">
        <ele>211</ele>
        <time>2012-07-19T19:09:08Z</time>
      </trkpt>
      <trkpt lat="59.803101" lon="14.5868341">
        <ele>206.8</ele>
        <time>2012-07-19T19:09:12Z</time>
      </trkpt>
      <trkpt lat="59.8027898" lon="14.5863801">
        <ele>202.8</ele>
        <time>2012-07-19T19:09:15Z</time>
      </trkpt>
      <trkpt lat="59.8024556" lon="14.5859157">
        <ele>200</ele>
        <time>2012-07-19T19:09:18Z</time>
      </trkpt>
      <trkpt lat="59.8021463" lon="14.5854736">
        <ele>198</ele>
        <time>2012-07-19T19:09:21Z</time>
      </trkpt>
      <trkpt lat="59.8017822" lon="14.5849626">
        <ele>197.6</ele>
        <time>2012-07-19T19:09:25Z</time>
      </trkpt>
      <trkpt lat="59.8014466" lon="14.5844787">
        <ele>197.2</ele>
        <time>2012-07-19T19:09:29Z</time>
      </trkpt>
      <trkpt lat="59.8011147" lon="14.5840142">
        <ele>196.6</ele>
        <time>2012-07-19T19:09:33Z</time>
      </trkpt>
      <trkpt lat="59.8007842" lon="14.5835437">
        <ele>196</ele>
        <time>2012-07-19T19:09:37Z</time>
      </trkpt>
      <trkpt lat="59.8004474" lon="14.5830656">
        <ele>195.6</ele>
        <time>2012-07-19T19:09:41Z</time>
      </trkpt>
      <trkpt lat="59.8001233" lon="14.5825995">
        <ele>195.4</ele>
        <time>2012-07-19T19:09:45Z</time>
      </trkpt>
      <trkpt lat="59.7998101" lon="14.5821164">
        <ele>195.2</ele>
        <time>2012-07-19T19:09:49Z</time>
      </trkpt>
      <trkpt lat="59.7995285" lon="14.5816067">
        <ele>195.4</ele>
        <time>2012-07-19T19:09:53Z</time>
      </trkpt>
      <trkpt lat="59.7992725" lon="14.5810641">
        <ele>195.6</ele>
        <time>2012-07-19T19:09:57Z</time>
      </trkpt>
      <trkpt lat="59.7990452" lon="14.5805161">
        <ele>196.2</ele>
        <time>2012-07-19T19:10:01Z</time>
      </trkpt>
      <trkpt lat="59.7988046" lon="14.5798317">
        <ele>197.4</ele>
        <time>2012-07-19T19:10:06Z</time>
      </trkpt>
      <trkpt lat="59.7986047" lon="14.5791277">
        <ele>198.8</ele>
        <time>2012-07-19T19:10:11Z</time>
      </trkpt>
      <trkpt lat="59.7984381" lon="14.5784149">
        <ele>201</ele>
        <time>2012-07-19T19:10:16Z</time>
      </trkpt>
      <trkpt lat="59.7983064" lon="14.5776913">
        <ele>203.6</ele>
        <time>2012-07-19T19:10:21Z</time>
      </trkpt>
      <trkpt lat="59.7982035" lon="14.576943">
        <ele>205.8</ele>
        <time>2012-07-19T19:10:26Z</time>
      </trkpt>
      <trkpt lat="59.7981527" lon="14.5761673">
        <ele>206.2</ele>
        <time>2012-07-19T19:10:31Z</time>
      </trkpt>
      <trkpt lat="59.7981297" lon="14.5753608">
        <ele>203</ele>
        <time>2012-07-19T19:10:36Z</time>
      </trkpt>
      <trkpt lat="59.7981221" lon="14.5745618">
        <ele>201.2</ele>
        <time>2012-07-19T19:10:41Z</time>
      </trkpt>
      <trkpt lat="59.7981314" lon="14.5737926">
        <ele>201.6</ele>
        <time>2012-07-19T19:10:46Z</time>
      </trkpt>
      <trkpt lat="59.798174" lon="14.5730706">
        <ele>201</ele>
        <time>2012-07-19T19:10:51Z</time>
      </trkpt>
      <trkpt lat="59.7982498" lon="14.5723553">
        <ele>200.6</ele>
        <time>2012-07-19T19:10:56Z</time>
      </trkpt>
      <trkpt lat="59.7983759" lon="14.5715761">
        <ele>201</ele>
        <time>2012-07-19T19:11:02Z</time>
      </trkpt>
      <trkpt lat="59.7985004" lon="14.5708711">
        <ele>202.6</ele>
        <time>2012-07-19T19:11:08Z</time>
      </trkpt>
      <trkpt lat="59.7986277" lon="14.570197">
        <ele>204.8</ele>
        <time>2012-07-19T19:11:14Z</time>
      </trkpt>
      <trkpt lat="59.7987571" lon="14.5694859">
        <ele>206.8</ele>
        <time>2012-07-19T19:11:21Z</time>
      </trkpt>
      <trkpt lat="59.7988887" lon="14.5687841">
        <ele>210.2</ele>
        <time>2012-07-19T19:11:28Z</time>
      </trkpt>
      <trkpt lat="59.7990147" lon="14.5680955">
        <ele>212.8</ele>
        <time>2012-07-19T19:11:35Z</time>
      </trkpt>
      <trkpt lat="59.7991488" lon="14.5674386">
        <ele>215.4</ele>
        <time>2012-07-19T19:11:42Z</time>
      </trkpt>
      <trkpt lat="59.7992746" lon="14.5667478">
        <ele>218.4</ele>
        <time>2012-07-19T19:11:49Z</time>
      </trkpt>
      <trkpt lat="59.7994312" lon="14.5660188">
        <ele>220.8</ele>
        <time>2012-07-19T19:11:57Z</time>
      </trkpt>
      <trkpt lat="59.7995573" lon="14.5653342">
        <ele>223.8</ele>
        <time>2012-07-19T19:12:05Z</time>
      </trkpt>
      <trkpt lat="59.7997332" lon="14.5646517">
        <ele>225.6</ele>
        <time>2012-07-19T19:12:14Z</time>
      </trkpt>
      <trkpt lat="59.7998967" lon="14.5639967">
        <ele>228</ele>
        <time>2012-07-19T19:12:22Z</time>
      </trkpt>
      <trkpt lat="59.8000258" lon="14.5633401">
        <ele>230.2</ele>
        <time>2012-07-19T19:12:30Z</time>
      </trkpt>
      <trkpt lat="59.8000574" lon="14.5631684">
        <ele>230.6</ele>
        <time>2012-07-19T19:12:32Z</time>
      </trkpt>
      <trkpt lat="59.8001066" lon="14.5628237">
        <ele>231.6</ele>
        <time>2012-07-19T19:12:36Z</time>
      </trkpt>
      <trkpt lat="59.8001257" lon="14.562659">
        <ele>231.2</ele>
        <time>2012-07-19T19:12:38Z</time>
      </trkpt>
      <trkpt lat="59.8002131" lon="14.561905">
        <ele>232</ele>
        <time>2012-07-19T19:12:45Z</time>
      </trkpt>
      <trkpt lat="59.8002646" lon="14.5611978">
        <ele>234.4</ele>
        <time>2012-07-19T19:12:52Z</time>
      </trkpt>
      <trkpt lat="59.800287" lon="14.560386">
        <ele>237</ele>
        <time>2012-07-19T19:13:00Z</time>
      </trkpt>
      <trkpt lat="59.800277" lon="14.5596665">
        <ele>239.8</ele>
        <time>2012-07-19T19:13:07Z</time>
      </trkpt>
      <trkpt lat="59.800231" lon="14.558899">
        <ele>242.8</ele>
        <time>2012-07-19T19:13:15Z</time>
      </trkpt>
      <trkpt lat="59.8001599" lon="14.5581596">
        <ele>245.6</ele>
        <time>2012-07-19T19:13:23Z</time>
      </trkpt>
      <trkpt lat="59.8000718" lon="14.5574266">
        <ele>248</ele>
        <time>2012-07-19T19:13:31Z</time>
      </trkpt>
      <trkpt lat="59.7999284" lon="14.5566928">
        <ele>250</ele>
        <time>2012-07-19T19:13:39Z</time>
      </trkpt>
      <trkpt lat="59.7997694" lon="14.5560296">
        <ele>251.4</ele>
        <time>2012-07-19T19:13:47Z</time>
      </trkpt>
      <trkpt lat="59.7997005" lon="14.5557855">
        <ele>251.8</ele>
        <time>2012-07-19T19:13:50Z</time>
      </trkpt>
      <trkpt lat="59.7995669" lon="14.5553685">
        <ele>254</ele>
        <time>2012-07-19T19:13:55Z</time>
      </trkpt>
      <trkpt lat="59.7993744" lon="14.5547993">
        <ele>257.4</ele>
        <time>2012-07-19T19:14:01Z</time>
      </trkpt>
      <trkpt lat="59.7991049" lon="14.5541727">
        <ele>259</ele>
        <time>2012-07-19T19:14:07Z</time>
      </trkpt>
      <trkpt lat="59.7988219" lon="14.5536236">
        <ele>260</ele>
        <time>2012-07-19T19:14:13Z</time>
      </trkpt>
      <trkpt lat="59.7985215" lon="14.5530884">
        <ele>259.8</ele>
        <time>2012-07-19T19:14:19Z</time>
      </trkpt>
      <trkpt lat="59.7981987" lon="14.552571">
        <ele>257</ele>
        <time>2012-07-19T19:14:25Z</time>
      </trkpt>
      <trkpt lat="59.7978651" lon="14.5520507">
        <ele>255</ele>
        <time>2012-07-19T19:14:31Z</time>
      </trkpt>
      <trkpt lat="59.7975762" lon="14.5516162">
        <ele>254.2</ele>
        <time>2012-07-19T19:14:36Z</time>
      </trkpt>
      <trkpt lat="59.7972787" lon="14.5511578">
        <ele>253.4</ele>
        <time>2012-07-19T19:14:41Z</time>
      </trkpt>
      <trkpt lat="59.7969683" lon="14.550693">
        <ele>253.2</ele>
        <time>2012-07-19T19:14:46Z</time>
      </trkpt>
      <trkpt lat="59.7966293" lon="14.55018">
        <ele>251</ele>
        <time>2012-07-19T19:14:51Z</time>
      </trkpt>
      <trkpt lat="59.7962724" lon="14.5496323">
        <ele>249.6</ele>
        <time>2012-07-19T19:14:56Z</time>
      </trkpt>
      <trkpt lat="59.7959789" lon="14.5491837">
        <ele>249</ele>
        <time>2012-07-19T19:15:00Z</time>
      </trkpt>
      <trkpt lat="59.7956736" lon="14.5487261">
        <ele>248.2</ele>
        <time>2012-07-19T19:15:04Z</time>
      </trkpt>
      <trkpt lat="59.7953593" lon="14.5482497">
        <ele>247.2</ele>
        <time>2012-07-19T19:15:08Z</time>
      </trkpt>
      <trkpt lat="59.7950544" lon="14.5477839">
        <ele>248.2</ele>
        <time>2012-07-19T19:15:12Z</time>
      </trkpt>
      <trkpt lat="59.7947596" lon="14.5473274">
        <ele>246.2</ele>
        <time>2012-07-19T19:15:16Z</time>
      </trkpt>
      <trkpt lat="59.7944585" lon="14.5468578">
        <ele>244.6</ele>
        <time>2012-07-19T19:15:20Z</time>
      </trkpt>
      <trkpt lat="59.7941231" lon="14.546369">
        <ele>245.6</ele>
        <time>2012-07-19T19:15:24Z</time>
      </trkpt>
      <trkpt lat="59.7938128" lon="14.5459014">
        <ele>244</ele>
        <time>2012-07-19T19:15:28Z</time>
      </trkpt>
      <trkpt lat="59.7935102" lon="14.5454472">
        <ele>243.2</ele>
        <time>2012-07-19T19:15:32Z</time>
      </trkpt>
      <trkpt lat="59.793216" lon="14.5449991">
        <ele>242.4</ele>
        <time>2012-07-19T19:15:36Z</time>
      </trkpt>
      <trkpt lat="59.792928" lon="14.5445526">
        <ele>241.6</ele>
        <time>2012-07-19T19:15:40Z</time>
      </trkpt>
      <trkpt lat="59.7925712" lon="14.5440114">
        <ele>241.6</ele>
        <time>2012-07-19T19:15:45Z</time>
      </trkpt>
      <trkpt lat="59.7922872" lon="14.5435834">
        <ele>240.4</ele>
        <time>2012-07-19T19:15:49Z</time>
      </trkpt>
      <trkpt lat="59.7919992" lon="14.5431451">
        <ele>239.6</ele>
        <time>2012-07-19T19:15:53Z</time>
      </trkpt>
      <trkpt lat="59.7917102" lon="14.5426919">
        <ele>239.8</ele>
        <time>2012-07-19T19:15:57Z</time>
      </trkpt>
      <trkpt lat="59.791417" lon="14.5422562">
        <ele>239.2</ele>
        <time>2012-07-19T19:16:01Z</time>
      </trkpt>
      <trkpt lat="59.7911357" lon="14.5418018">
        <ele>238.6</ele>
        <time>2012-07-19T19:16:05Z</time>
      </trkpt>
      <trkpt lat="59.7908032" lon="14.541254">
        <ele>237.8</ele>
        <time>2012-07-19T19:16:10Z</time>
      </trkpt>
      <trkpt lat="59.7904971" lon="14.5406859">
        <ele>239.6</ele>
        <time>2012-07-19T19:16:15Z</time>
      </trkpt>
      <trkpt lat="59.7902001" lon="14.5400743">
        <ele>239.2</ele>
        <time>2012-07-19T19:16:20Z</time>
      </trkpt>
      <trkpt lat="59.7898976" lon="14.5394976">
        <ele>238.2</ele>
        <time>2012-07-19T19:16:25Z</time>
      </trkpt>
      <trkpt lat="59.7896386" lon="14.538939">
        <ele>240</ele>
        <time>2012-07-19T19:16:30Z</time>
      </trkpt>
      <trkpt lat="59.7893673" lon="14.5383681">
        <ele>238</ele>
        <time>2012-07-19T19:16:35Z</time>
      </trkpt>
      <trkpt lat="59.78907" lon="14.5377623">
        <ele>235.6</ele>
        <time>2012-07-19T19:16:40Z</time>
      </trkpt>
      <trkpt lat="59.7887934" lon="14.5371624">
        <ele>235.8</ele>
        <time>2012-07-19T19:16:45Z</time>
      </trkpt>
      <trkpt lat="59.7885076" lon="14.5365667">
        <ele>234.2</ele>
        <time>2012-07-19T19:16:50Z</time>
      </trkpt>
      <trkpt lat="59.7881994" lon="14.5359251">
        <ele>231.8</ele>
        <time>2012-07-19T19:16:55Z</time>
      </trkpt>
      <trkpt lat="59.7879298" lon="14.5353758">
        <ele>229.6</ele>
        <time>2012-07-19T19:16:59Z</time>
      </trkpt>
      <trkpt lat="59.7876479" lon="14.5348043">
        <ele>227.4</ele>
        <time>2012-07-19T19:17:03Z</time>
      </trkpt>
      <trkpt lat="59.7873692" lon="14.5341991">
        <ele>226</ele>
        <time>2012-07-19T19:17:07Z</time>
      </trkpt>
      <trkpt lat="59.7870584" lon="14.5336841">
        <ele>225</ele>
        <time>2012-07-19T19:17:11Z</time>
      </trkpt>
      <trkpt lat="59.7867272" lon="14.5333492">
        <ele>224.2</ele>
        <time>2012-07-19T19:17:15Z</time>
      </trkpt>
      <trkpt lat="59.786305" lon="14.5330916">
        <ele>223.4</ele>
        <time>2012-07-19T19:17:20Z</time>
      </trkpt>
      <trkpt lat="59.7858721" lon="14.5329118">
        <ele>222.4</ele>
        <time>2012-07-19T19:17:25Z</time>
      </trkpt>
      <trkpt lat="59.7853164" lon="14.5323405">
        <ele>210.6</ele>
        <time>2012-07-19T19:21:28Z</time>
      </trkpt>
      <trkpt lat="59.7850594" lon="14.5325478">
        <ele>212.4</ele>
        <time>2012-07-19T19:21:33Z</time>
      </trkpt>
      <trkpt lat="59.7849916" lon="14.5325227">
        <ele>212.2</ele>
        <time>2012-07-19T19:21:34Z</time>
      </trkpt>
      <trkpt lat="59.7846523" lon="14.5324032">
        <ele>212.4</ele>
        <time>2012-07-19T19:21:39Z</time>
      </trkpt>
      <trkpt lat="59.7842805" lon="14.5323026">
        <ele>212.6</ele>
        <time>2012-07-19T19:21:44Z</time>
      </trkpt>
      <trkpt lat="59.7838906" lon="14.532172">
        <ele>213.2</ele>
        <time>2012-07-19T19:21:49Z</time>
      </trkpt>
      <trkpt lat="59.7835138" lon="14.5320182">
        <ele>213.2</ele>
        <time>2012-07-19T19:21:54Z</time>
      </trkpt>
      <trkpt lat="59.7831407" lon="14.5318787">
        <ele>213.4</ele>
        <time>2012-07-19T19:21:59Z</time>
      </trkpt>
      <trkpt lat="59.7827694" lon="14.5317301">
        <ele>213.4</ele>
        <time>2012-07-19T19:22:04Z</time>
      </trkpt>
      <trkpt lat="59.7823937" lon="14.5315727">
        <ele>214.2</ele>
        <time>2012-07-19T19:22:09Z</time>
      </trkpt>
      <trkpt lat="59.7820166" lon="14.5313817">
        <ele>214.6</ele>
        <time>2012-07-19T19:22:14Z</time>
      </trkpt>
      <trkpt lat="59.7816447" lon="14.5311377">
        <ele>213.2</ele>
        <time>2012-07-19T19:22:19Z</time>
      </trkpt>
      <trkpt lat="59.7812748" lon="14.5307864">
        <ele>210.4</ele>
        <time>2012-07-19T19:22:24Z</time>
      </trkpt>
      <trkpt lat="59.7809106" lon="14.5303753">
        <ele>209.4</ele>
        <time>2012-07-19T19:22:29Z</time>
      </trkpt>
      <trkpt lat="59.7805458" lon="14.5299189">
        <ele>209.4</ele>
        <time>2012-07-19T19:22:34Z</time>
      </trkpt>
      <trkpt lat="59.7801889" lon="14.5294717">
        <ele>208.4</ele>
        <time>2012-07-19T19:22:39Z</time>
      </trkpt>
      <trkpt lat="59.7798291" lon="14.5290174">
        <ele>206</ele>
        <time>2012-07-19T19:22:44Z</time>
      </trkpt>
      <trkpt lat="59.7794602" lon="14.5285528">
        <ele>204.2</ele>
        <time>2012-07-19T19:22:49Z</time>
      </trkpt>
      <trkpt lat="59.7790848" lon="14.5280654">
        <ele>201.6</ele>
        <time>2012-07-19T19:22:54Z</time>
      </trkpt>
      <trkpt lat="59.7787196" lon="14.5276046">
        <ele>200.4</ele>
        <time>2012-07-19T19:22:59Z</time>
      </trkpt>
      <trkpt lat="59.7783745" lon="14.5271563">
        <ele>199.6</ele>
        <time>2012-07-19T19:23:04Z</time>
      </trkpt>
      <trkpt lat="59.7780102" lon="14.5267033">
        <ele>199.4</ele>
        <time>2012-07-19T19:23:09Z</time>
      </trkpt>
      <trkpt lat="59.7776453" lon="14.5262326">
        <ele>198.4</ele>
        <time>2012-07-19T19:23:14Z</time>
      </trkpt>
      <trkpt lat="59.7772884" lon="14.525787">
        <ele>198.2</ele>
        <time>2012-07-19T19:23:19Z</time>
      </trkpt>
      <trkpt lat="59.776927" lon="14.5253634">
        <ele>198.2</ele>
        <time>2012-07-19T19:23:24Z</time>
      </trkpt>
      <trkpt lat="59.7767871" lon="14.5251887">
        <ele>198.2</ele>
        <time>2012-07-19T19:23:26Z</time>
      </trkpt>
      <trkpt lat="59.7766515" lon="14.5250082">
        <ele>198.4</ele>
        <time>2012-07-19T19:23:28Z</time>
      </trkpt>
      <trkpt lat="59.7765792" lon="14.5249351">
        <ele>198.4</ele>
        <time>2012-07-19T19:23:29Z</time>
      </trkpt>
      <trkpt lat="59.7762066" lon="14.5246278">
        <ele>198.8</ele>
        <time>2012-07-19T19:23:34Z</time>
      </trkpt>
      <trkpt lat="59.7758155" lon="14.5243686">
        <ele>199.2</ele>
        <time>2012-07-19T19:23:39Z</time>
      </trkpt>
      <trkpt lat="59.7754094" lon="14.5241902">
        <ele>199.4</ele>
        <time>2012-07-19T19:23:44Z</time>
      </trkpt>
      <trkpt lat="59.7749959" lon="14.5240778">
        <ele>199.6</ele>
        <time>2012-07-19T19:23:49Z</time>
      </trkpt>
      <trkpt lat="59.7745831" lon="14.5239977">
        <ele>199.4</ele>
        <time>2012-07-19T19:23:54Z</time>
      </trkpt>
      <trkpt lat="59.7741717" lon="14.5239369">
        <ele>200.6</ele>
        <time>2012-07-19T19:23:59Z</time>
      </trkpt>
      <trkpt lat="59.7737615" lon="14.5238642">
        <ele>201</ele>
        <time>2012-07-19T19:24:04Z</time>
      </trkpt>
      <trkpt lat="59.7733512" lon="14.5237914">
        <ele>201.4</ele>
        <time>2012-07-19T19:24:09Z</time>
      </trkpt>
      <trkpt lat="59.7729443" lon="14.5237233">
        <ele>201.8</ele>
        <time>2012-07-19T19:24:14Z</time>
      </trkpt>
      <trkpt lat="59.7725428" lon="14.5236535">
        <ele>202</ele>
        <time>2012-07-19T19:24:19Z</time>
      </trkpt>
      <trkpt lat="59.7721439" lon="14.523604">
        <ele>201.8</ele>
        <time>2012-07-19T19:24:24Z</time>
      </trkpt>
      <trkpt lat="59.7717545" lon="14.5235248">
        <ele>200.8</ele>
        <time>2012-07-19T19:24:29Z</time>
      </trkpt>
      <trkpt lat="59.7713706" lon="14.5234433">
        <ele>201.6</ele>
        <time>2012-07-19T19:24:34Z</time>
      </trkpt>
      <trkpt lat="59.7709842" lon="14.5233551">
        <ele>201.8</ele>
        <time>2012-07-19T19:24:39Z</time>
      </trkpt>
      <trkpt lat="59.7706006" lon="14.5233083">
        <ele>202</ele>
        <time>2012-07-19T19:24:44Z</time>
      </trkpt>
      <trkpt lat="59.7702045" lon="14.523243">
        <ele>201.4</ele>
        <time>2012-07-19T19:24:49Z</time>
      </trkpt>
      <trkpt lat="59.7697993" lon="14.5231255">
        <ele>200.6</ele>
        <time>2012-07-19T19:24:54Z</time>
      </trkpt>
      <trkpt lat="59.7693967" lon="14.522967">
        <ele>200</ele>
        <time>2012-07-19T19:24:59Z</time>
      </trkpt>
      <trkpt lat="59.7690083" lon="14.5228029">
        <ele>199</ele>
        <time>2012-07-19T19:25:04Z</time>
      </trkpt>
      <trkpt lat="59.7686129" lon="14.5226198">
        <ele>198.2</ele>
        <time>2012-07-19T19:25:09Z</time>
      </trkpt>
      <trkpt lat="59.7682138" lon="14.5224137">
        <ele>197.4</ele>
        <time>2012-07-19T19:25:14Z</time>
      </trkpt>
      <trkpt lat="59.7678216" lon="14.5221778">
        <ele>197.2</ele>
        <time>2012-07-19T19:25:19Z</time>
      </trkpt>
      <trkpt lat="59.767436" lon="14.5219301">
        <ele>197</ele>
        <time>2012-07-19T19:25:24Z</time>
      </trkpt>
      <trkpt lat="59.767059" lon="14.5216483">
        <ele>196.6</ele>
        <time>2012-07-19T19:25:29Z</time>
      </trkpt>
      <trkpt lat="59.766683" lon="14.5213476">
        <ele>195.8</ele>
        <time>2012-07-19T19:25:34Z</time>
      </trkpt>
      <trkpt lat="59.7663223" lon="14.5210479">
        <ele>195</ele>
        <time>2012-07-19T19:25:39Z</time>
      </trkpt>
      <trkpt lat="59.7659608" lon="14.5207527">
        <ele>195.2</ele>
        <time>2012-07-19T19:25:44Z</time>
      </trkpt>
      <trkpt lat="59.7655957" lon="14.5204454">
        <ele>195.8</ele>
        <time>2012-07-19T19:25:49Z</time>
      </trkpt>
      <trkpt lat="59.7652222" lon="14.5201195">
        <ele>194.6</ele>
        <time>2012-07-19T19:25:54Z</time>
      </trkpt>
      <trkpt lat="59.7648488" lon="14.519799">
        <ele>195</ele>
        <time>2012-07-19T19:25:59Z</time>
      </trkpt>
      <trkpt lat="59.7644525" lon="14.519472">
        <ele>195</ele>
        <time>2012-07-19T19:26:04Z</time>
      </trkpt>
      <trkpt lat="59.7640534" lon="14.5191385">
        <ele>194.8</ele>
        <time>2012-07-19T19:26:09Z</time>
      </trkpt>
      <trkpt lat="59.7636561" lon="14.5187907">
        <ele>194</ele>
        <time>2012-07-19T19:26:14Z</time>
      </trkpt>
      <trkpt lat="59.7632671" lon="14.5184607">
        <ele>193.2</ele>
        <time>2012-07-19T19:26:19Z</time>
      </trkpt>
      <trkpt lat="59.7628897" lon="14.5181368">
        <ele>193.8</ele>
        <time>2012-07-19T19:26:24Z</time>
      </trkpt>
      <trkpt lat="59.7625208" lon="14.5178125">
        <ele>192.4</ele>
        <time>2012-07-19T19:26:29Z</time>
      </trkpt>
      <trkpt lat="59.7621614" lon="14.5175005">
        <ele>191.8</ele>
        <time>2012-07-19T19:26:34Z</time>
      </trkpt>
      <trkpt lat="59.7618056" lon="14.5172042">
        <ele>191</ele>
        <time>2012-07-19T19:26:39Z</time>
      </trkpt>
      <trkpt lat="59.7614579" lon="14.5169031">
        <ele>190.4</ele>
        <time>2012-07-19T19:26:44Z</time>
      </trkpt>
      <trkpt lat="59.7611134" lon="14.5166068">
        <ele>190</ele>
        <time>2012-07-19T19:26:49Z</time>
      </trkpt>
      <trkpt lat="59.7607657" lon="14.5162899">
        <ele>189.6</ele>
        <time>2012-07-19T19:26:54Z</time>
      </trkpt>
      <trkpt lat="59.7604048" lon="14.515988">
        <ele>190.2</ele>
        <time>2012-07-19T19:26:59Z</time>
      </trkpt>
      <trkpt lat="59.7600458" lon="14.5156824">
        <ele>190</ele>
        <time>2012-07-19T19:27:04Z</time>
      </trkpt>
      <trkpt lat="59.7596995" lon="14.5153882">
        <ele>190.2</ele>
        <time>2012-07-19T19:27:09Z</time>
      </trkpt>
      <trkpt lat="59.759363" lon="14.5151159">
        <ele>191</ele>
        <time>2012-07-19T19:27:14Z</time>
      </trkpt>
      <trkpt lat="59.7590313" lon="14.5148266">
        <ele>190.6</ele>
        <time>2012-07-19T19:27:19Z</time>
      </trkpt>
      <trkpt lat="59.7586508" lon="14.5144996">
        <ele>192.6</ele>
        <time>2012-07-19T19:27:25Z</time>
      </trkpt>
      <trkpt lat="59.7582738" lon="14.5141734">
        <ele>191.2</ele>
        <time>2012-07-19T19:27:31Z</time>
      </trkpt>
      <trkpt lat="59.7579198" lon="14.513876">
        <ele>191.8</ele>
        <time>2012-07-19T19:27:37Z</time>
      </trkpt>
      <trkpt lat="59.7575478" lon="14.5135604">
        <ele>191.4</ele>
        <time>2012-07-19T19:27:43Z</time>
      </trkpt>
      <trkpt lat="59.7571807" lon="14.5132464">
        <ele>191.6</ele>
        <time>2012-07-19T19:27:49Z</time>
      </trkpt>
      <trkpt lat="59.7568434" lon="14.5129399">
        <ele>192.6</ele>
        <time>2012-07-19T19:27:55Z</time>
      </trkpt>
      <trkpt lat="59.7564819" lon="14.5126349">
        <ele>193.4</ele>
        <time>2012-07-19T19:28:01Z</time>
      </trkpt>
      <trkpt lat="59.756114" lon="14.5123142">
        <ele>194.2</ele>
        <time>2012-07-19T19:28:07Z</time>
      </trkpt>
      <trkpt lat="59.7557806" lon="14.5120276">
        <ele>194</ele>
        <time>2012-07-19T19:28:12Z</time>
      </trkpt>
      <trkpt lat="59.7554226" lon="14.5117139">
        <ele>192.8</ele>
        <time>2012-07-19T19:28:17Z</time>
      </trkpt>
      <trkpt lat="59.7550523" lon="14.511402">
        <ele>192</ele>
        <time>2012-07-19T19:28:22Z</time>
      </trkpt>
      <trkpt lat="59.7546723" lon="14.5110781">
        <ele>191.2</ele>
        <time>2012-07-19T19:28:27Z</time>
      </trkpt>
      <trkpt lat="59.754282" lon="14.5107386">
        <ele>190</ele>
        <time>2012-07-19T19:28:32Z</time>
      </trkpt>
      <trkpt lat="59.7538771" lon="14.5104012">
        <ele>189</ele>
        <time>2012-07-19T19:28:37Z</time>
      </trkpt>
      <trkpt lat="59.7534796" lon="14.5100536">
        <ele>189.2</ele>
        <time>2012-07-19T19:28:42Z</time>
      </trkpt>
      <trkpt lat="59.7530885" lon="14.509734">
        <ele>189.2</ele>
        <time>2012-07-19T19:28:47Z</time>
      </trkpt>
      <trkpt lat="59.7527223" lon="14.5094294">
        <ele>190</ele>
        <time>2012-07-19T19:28:52Z</time>
      </trkpt>
      <trkpt lat="59.7523624" lon="14.5091507">
        <ele>190.4</ele>
        <time>2012-07-19T19:28:57Z</time>
      </trkpt>
      <trkpt lat="59.7519972" lon="14.5089213">
        <ele>190</ele>
        <time>2012-07-19T19:29:02Z</time>
      </trkpt>
      <trkpt lat="59.7516365" lon="14.5087794">
        <ele>191</ele>
        <time>2012-07-19T19:29:07Z</time>
      </trkpt>
      <trkpt lat="59.7512458" lon="14.5086949">
        <ele>194.2</ele>
        <time>2012-07-19T19:29:13Z</time>
      </trkpt>
      <trkpt lat="59.7508542" lon="14.5086641">
        <ele>197.8</ele>
        <time>2012-07-19T19:29:19Z</time>
      </trkpt>
      <trkpt lat="59.7504663" lon="14.5086911">
        <ele>200.2</ele>
        <time>2012-07-19T19:29:25Z</time>
      </trkpt>
      <trkpt lat="59.7500595" lon="14.5088129">
        <ele>201</ele>
        <time>2012-07-19T19:29:31Z</time>
      </trkpt>
      <trkpt lat="59.7496565" lon="14.5090405">
        <ele>201.2</ele>
        <time>2012-07-19T19:29:37Z</time>
      </trkpt>
      <trkpt lat="59.749309" lon="14.5092925">
        <ele>200.8</ele>
        <time>2012-07-19T19:29:42Z</time>
      </trkpt>
      <trkpt lat="59.7489396" lon="14.5095531">
        <ele>200.4</ele>
        <time>2012-07-19T19:29:47Z</time>
      </trkpt>
      <trkpt lat="59.7485624" lon="14.5098297">
        <ele>199.4</ele>
        <time>2012-07-19T19:29:52Z</time>
      </trkpt>
      <trkpt lat="59.7481749" lon="14.5101096">
        <ele>198.4</ele>
        <time>2012-07-19T19:29:57Z</time>
      </trkpt>
      <trkpt lat="59.7477855" lon="14.5103981">
        <ele>197.2</ele>
        <time>2012-07-19T19:30:02Z</time>
      </trkpt>
      <trkpt lat="59.7473944" lon="14.5106906">
        <ele>195.8</ele>
        <time>2012-07-19T19:30:07Z</time>
      </trkpt>
      <trkpt lat="59.7470008" lon="14.510989">
        <ele>194.8</ele>
        <time>2012-07-19T19:30:12Z</time>
      </trkpt>
      <trkpt lat="59.7465988" lon="14.5112744">
        <ele>193.8</ele>
        <time>2012-07-19T19:30:17Z</time>
      </trkpt>
      <trkpt lat="59.7461999" lon="14.511566">
        <ele>193</ele>
        <time>2012-07-19T19:30:22Z</time>
      </trkpt>
      <trkpt lat="59.7457989" lon="14.5118414">
        <ele>192.2</ele>
        <time>2012-07-19T19:30:27Z</time>
      </trkpt>
      <trkpt lat="59.7454027" lon="14.5121353">
        <ele>192</ele>
        <time>2012-07-19T19:30:32Z</time>
      </trkpt>
      <trkpt lat="59.7450059" lon="14.5124182">
        <ele>190.8</ele>
        <time>2012-07-19T19:30:37Z</time>
      </trkpt>
      <trkpt lat="59.7446142" lon="14.5127153">
        <ele>189.8</ele>
        <time>2012-07-19T19:30:42Z</time>
      </trkpt>
      <trkpt lat="59.7441433" lon="14.5130654">
        <ele>189.2</ele>
        <time>2012-07-19T19:30:47Z</time>
      </trkpt>
      <trkpt lat="59.7438324" lon="14.5132975">
        <ele>188.4</ele>
        <time>2012-07-19T19:30:52Z</time>
      </trkpt>
      <trkpt lat="59.7434374" lon="14.5135824">
        <ele>187.6</ele>
        <time>2012-07-19T19:30:57Z</time>
      </trkpt>
      <trkpt lat="59.7430472" lon="14.5138717">
        <ele>187.4</ele>
        <time>2012-07-19T19:31:02Z</time>
      </trkpt>
      <trkpt lat="59.7425504" lon="14.5142205">
        <ele>186.6</ele>
        <time>2012-07-19T19:31:07Z</time>
      </trkpt>
      <trkpt lat="59.7421589" lon="14.5144908">
        <ele>184</ele>
        <time>2012-07-19T19:31:12Z</time>
      </trkpt>
      <trkpt lat="59.7417636" lon="14.5147763">
        <ele>182.8</ele>
        <time>2012-07-19T19:31:17Z</time>
      </trkpt>
      <trkpt lat="59.7414348" lon="14.5149997">
        <ele>182.6</ele>
        <time>2012-07-19T19:31:22Z</time>
      </trkpt>
      <trkpt lat="59.7409328" lon="14.5153404">
        <ele>183.2</ele>
        <time>2012-07-19T19:31:27Z</time>
      </trkpt>
      <trkpt lat="59.7405888" lon="14.5155679">
        <ele>184.2</ele>
        <time>2012-07-19T19:31:32Z</time>
      </trkpt>
      <trkpt lat="59.7401625" lon="14.5158435">
        <ele>185.4</ele>
        <time>2012-07-19T19:31:37Z</time>
      </trkpt>
      <trkpt lat="59.7396704" lon="14.5161631">
        <ele>185.8</ele>
        <time>2012-07-19T19:31:42Z</time>
      </trkpt>
      <trkpt lat="59.7392721" lon="14.516436">
        <ele>187</ele>
        <time>2012-07-19T19:31:47Z</time>
      </trkpt>
      <trkpt lat="59.7388768" lon="14.5167064">
        <ele>188</ele>
        <time>2012-07-19T19:31:52Z</time>
      </trkpt>
      <trkpt lat="59.7384872" lon="14.516982">
        <ele>188.2</ele>
        <time>2012-07-19T19:31:57Z</time>
      </trkpt>
      <trkpt lat="59.738151" lon="14.5171999">
        <ele>189.2</ele>
        <time>2012-07-19T19:32:02Z</time>
      </trkpt>
      <trkpt lat="59.7376689" lon="14.5175063">
        <ele>190.6</ele>
        <time>2012-07-19T19:32:07Z</time>
      </trkpt>
      <trkpt lat="59.737359" lon="14.5177248">
        <ele>190.8</ele>
        <time>2012-07-19T19:32:12Z</time>
      </trkpt>
      <trkpt lat="59.7370005" lon="14.5179648">
        <ele>191.2</ele>
        <time>2012-07-19T19:32:17Z</time>
      </trkpt>
      <trkpt lat="59.7366193" lon="14.5181937">
        <ele>191.8</ele>
        <time>2012-07-19T19:32:22Z</time>
      </trkpt>
      <trkpt lat="59.7362349" lon="14.5184136">
        <ele>191.2</ele>
        <time>2012-07-19T19:32:27Z</time>
      </trkpt>
      <trkpt lat="59.7358433" lon="14.5186391">
        <ele>191.4</ele>
        <time>2012-07-19T19:32:32Z</time>
      </trkpt>
      <trkpt lat="59.7354547" lon="14.5188575">
        <ele>191.2</ele>
        <time>2012-07-19T19:32:37Z</time>
      </trkpt>
      <trkpt lat="59.7349683" lon="14.5191286">
        <ele>191.8</ele>
        <time>2012-07-19T19:32:42Z</time>
      </trkpt>
      <trkpt lat="59.7345628" lon="14.5193457">
        <ele>192.4</ele>
        <time>2012-07-19T19:32:47Z</time>
      </trkpt>
      <trkpt lat="59.7341611" lon="14.5195656">
        <ele>192.6</ele>
        <time>2012-07-19T19:32:52Z</time>
      </trkpt>
      <trkpt lat="59.7337521" lon="14.5197265">
        <ele>193.2</ele>
        <time>2012-07-19T19:32:57Z</time>
      </trkpt>
      <trkpt lat="59.7333427" lon="14.5199015">
        <ele>193.8</ele>
        <time>2012-07-19T19:33:02Z</time>
      </trkpt>
      <trkpt lat="59.7329343" lon="14.5200633">
        <ele>193.8</ele>
        <time>2012-07-19T19:33:07Z</time>
      </trkpt>
      <trkpt lat="59.7325413" lon="14.5202311">
        <ele>193.6</ele>
        <time>2012-07-19T19:33:12Z</time>
      </trkpt>
      <trkpt lat="59.7321411" lon="14.5203805">
        <ele>193.4</ele>
        <time>2012-07-19T19:33:17Z</time>
      </trkpt>
      <trkpt lat="59.7317473" lon="14.520523">
        <ele>193.2</ele>
        <time>2012-07-19T19:33:22Z</time>
      </trkpt>
      <trkpt lat="59.731348" lon="14.5206647">
        <ele>193.2</ele>
        <time>2012-07-19T19:33:27Z</time>
      </trkpt>
      <trkpt lat="59.7310294" lon="14.5207752">
        <ele>193.2</ele>
        <time>2012-07-19T19:33:32Z</time>
      </trkpt>
      <trkpt lat="59.7305616" lon="14.5209401">
        <ele>193.2</ele>
        <time>2012-07-19T19:33:37Z</time>
      </trkpt>
      <trkpt lat="59.7301623" lon="14.5210814">
        <ele>193.4</ele>
        <time>2012-07-19T19:33:42Z</time>
      </trkpt>
      <trkpt lat="59.7297573" lon="14.5212218">
        <ele>193.2</ele>
        <time>2012-07-19T19:33:47Z</time>
      </trkpt>
      <trkpt lat="59.7293608" lon="14.5213664">
        <ele>193.2</ele>
        <time>2012-07-19T19:33:52Z</time>
      </trkpt>
      <trkpt lat="59.7289663" lon="14.5215047">
        <ele>193.2</ele>
        <time>2012-07-19T19:33:57Z</time>
      </trkpt>
      <trkpt lat="59.7285904" lon="14.5216369">
        <ele>193.2</ele>
        <time>2012-07-19T19:34:02Z</time>
      </trkpt>
      <trkpt lat="59.7282111" lon="14.5217694">
        <ele>193.2</ele>
        <time>2012-07-19T19:34:07Z</time>
      </trkpt>
      <trkpt lat="59.7278187" lon="14.5219057">
        <ele>193.4</ele>
        <time>2012-07-19T19:34:12Z</time>
      </trkpt>
      <trkpt lat="59.7274363" lon="14.5220394">
        <ele>193.4</ele>
        <time>2012-07-19T19:34:17Z</time>
      </trkpt>
      <trkpt lat="59.7270678" lon="14.5221698">
        <ele>193.8</ele>
        <time>2012-07-19T19:34:22Z</time>
      </trkpt>
      <trkpt lat="59.7267034" lon="14.5222925">
        <ele>193.8</ele>
        <time>2012-07-19T19:34:27Z</time>
      </trkpt>
      <trkpt lat="59.7263316" lon="14.5224211">
        <ele>194.2</ele>
        <time>2012-07-19T19:34:32Z</time>
      </trkpt>
      <trkpt lat="59.7259711" lon="14.5225525">
        <ele>194.4</ele>
        <time>2012-07-19T19:34:37Z</time>
      </trkpt>
      <trkpt lat="59.7255592" lon="14.5227004">
        <ele>194.6</ele>
        <time>2012-07-19T19:34:43Z</time>
      </trkpt>
      <trkpt lat="59.7251458" lon="14.5228455">
        <ele>194.4</ele>
        <time>2012-07-19T19:34:49Z</time>
      </trkpt>
      <trkpt lat="59.7247396" lon="14.522992">
        <ele>194.2</ele>
        <time>2012-07-19T19:34:55Z</time>
      </trkpt>
      <trkpt lat="59.7243399" lon="14.5231401">
        <ele>193.2</ele>
        <time>2012-07-19T19:35:01Z</time>
      </trkpt>
      <trkpt lat="59.7239395" lon="14.5232836">
        <ele>194</ele>
        <time>2012-07-19T19:35:07Z</time>
      </trkpt>
      <trkpt lat="59.7235332" lon="14.5234492">
        <ele>194.8</ele>
        <time>2012-07-19T19:35:13Z</time>
      </trkpt>
      <trkpt lat="59.7231271" lon="14.5236079">
        <ele>195.4</ele>
        <time>2012-07-19T19:35:19Z</time>
      </trkpt>
      <trkpt lat="59.7227256" lon="14.5237411">
        <ele>196.6</ele>
        <time>2012-07-19T19:35:25Z</time>
      </trkpt>
      <trkpt lat="59.7223339" lon="14.5239228">
        <ele>197.8</ele>
        <time>2012-07-19T19:35:31Z</time>
      </trkpt>
      <trkpt lat="59.7219326" lon="14.5241001">
        <ele>199.8</ele>
        <time>2012-07-19T19:35:37Z</time>
      </trkpt>
      <trkpt lat="59.721554" lon="14.5242972">
        <ele>200.8</ele>
        <time>2012-07-19T19:35:43Z</time>
      </trkpt>
      <trkpt lat="59.7211881" lon="14.524492">
        <ele>202</ele>
        <time>2012-07-19T19:35:49Z</time>
      </trkpt>
      <trkpt lat="59.7208017" lon="14.5247081">
        <ele>203.6</ele>
        <time>2012-07-19T19:35:55Z</time>
      </trkpt>
      <trkpt lat="59.7204235" lon="14.5249431">
        <ele>204.4</ele>
        <time>2012-07-19T19:36:01Z</time>
      </trkpt>
      <trkpt lat="59.720058" lon="14.5251925">
        <ele>205.2</ele>
        <time>2012-07-19T19:36:07Z</time>
      </trkpt>
      <trkpt lat="59.7196933" lon="14.5254489">
        <ele>205.8</ele>
        <time>2012-07-19T19:36:13Z</time>
      </trkpt>
      <trkpt lat="59.7193416" lon="14.5257253">
        <ele>205.6</ele>
        <time>2012-07-19T19:36:19Z</time>
      </trkpt>
      <trkpt lat="59.7190102" lon="14.5259976">
        <ele>205.6</ele>
        <time>2012-07-19T19:36:24Z</time>
      </trkpt>
      <trkpt lat="59.7186547" lon="14.5262927">
        <ele>205.8</ele>
        <time>2012-07-19T19:36:29Z</time>
      </trkpt>
      <trkpt lat="59.7183111" lon="14.5265942">
        <ele>206</ele>
        <time>2012-07-19T19:36:34Z</time>
      </trkpt>
      <trkpt lat="59.7179756" lon="14.5269029">
        <ele>206.2</ele>
        <time>2012-07-19T19:36:39Z</time>
      </trkpt>
      <trkpt lat="59.7176436" lon="14.5272092">
        <ele>207</ele>
        <time>2012-07-19T19:36:44Z</time>
      </trkpt>
      <trkpt lat="59.7173253" lon="14.5275182">
        <ele>208.4</ele>
        <time>2012-07-19T19:36:50Z</time>
      </trkpt>
      <trkpt lat="59.7168821" lon="14.5279628">
        <ele>209.2</ele>
        <time>2012-07-19T19:36:56Z</time>
      </trkpt>
      <trkpt lat="59.7165454" lon="14.5283202">
        <ele>209.4</ele>
        <time>2012-07-19T19:37:01Z</time>
      </trkpt>
      <trkpt lat="59.7162" lon="14.5287101">
        <ele>209.2</ele>
        <time>2012-07-19T19:37:06Z</time>
      </trkpt>
      <trkpt lat="59.7158438" lon="14.5291264">
        <ele>208.8</ele>
        <time>2012-07-19T19:37:11Z</time>
      </trkpt>
      <trkpt lat="59.7154721" lon="14.5295835">
        <ele>207.6</ele>
        <time>2012-07-19T19:37:16Z</time>
      </trkpt>
      <trkpt lat="59.7151508" lon="14.5300063">
        <ele>206.6</ele>
        <time>2012-07-19T19:37:20Z</time>
      </trkpt>
      <trkpt lat="59.7148225" lon="14.5304366">
        <ele>204.8</ele>
        <time>2012-07-19T19:37:24Z</time>
      </trkpt>
      <trkpt lat="59.714489" lon="14.5308862">
        <ele>203</ele>
        <time>2012-07-19T19:37:28Z</time>
      </trkpt>
      <trkpt lat="59.7141558" lon="14.531355">
        <ele>201.4</ele>
        <time>2012-07-19T19:37:32Z</time>
      </trkpt>
      <trkpt lat="59.7138335" lon="14.5318115">
        <ele>200</ele>
        <time>2012-07-19T19:37:36Z</time>
      </trkpt>
      <trkpt lat="59.7135357" lon="14.5322654">
        <ele>199.2</ele>
        <time>2012-07-19T19:37:40Z</time>
      </trkpt>
      <trkpt lat="59.7132508" lon="14.5327119">
        <ele>198.8</ele>
        <time>2012-07-19T19:37:44Z</time>
      </trkpt>
      <trkpt lat="59.7129203" lon="14.5332372">
        <ele>199.8</ele>
        <time>2012-07-19T19:37:49Z</time>
      </trkpt>
      <trkpt lat="59.7126156" lon="14.5337344">
        <ele>201.2</ele>
        <time>2012-07-19T19:37:54Z</time>
      </trkpt>
      <trkpt lat="59.7123178" lon="14.534211">
        <ele>203</ele>
        <time>2012-07-19T19:37:59Z</time>
      </trkpt>
      <trkpt lat="59.7120226" lon="14.5346855">
        <ele>204.6</ele>
        <time>2012-07-19T19:38:04Z</time>
      </trkpt>
      <trkpt lat="59.7117304" lon="14.5351432">
        <ele>205.6</ele>
        <time>2012-07-19T19:38:09Z</time>
      </trkpt>
      <trkpt lat="59.7114301" lon="14.5356103">
        <ele>206.4</ele>
        <time>2012-07-19T19:38:14Z</time>
      </trkpt>
      <trkpt lat="59.7111372" lon="14.53608">
        <ele>207.2</ele>
        <time>2012-07-19T19:38:19Z</time>
      </trkpt>
      <trkpt lat="59.7108399" lon="14.5365508">
        <ele>207.4</ele>
        <time>2012-07-19T19:38:24Z</time>
      </trkpt>
      <trkpt lat="59.710528" lon="14.5370404">
        <ele>206.4</ele>
        <time>2012-07-19T19:38:29Z</time>
      </trkpt>
      <trkpt lat="59.7101977" lon="14.5375671">
        <ele>205</ele>
        <time>2012-07-19T19:38:34Z</time>
      </trkpt>
      <trkpt lat="59.709869" lon="14.5380961">
        <ele>203.6</ele>
        <time>2012-07-19T19:38:39Z</time>
      </trkpt>
      <trkpt lat="59.7095522" lon="14.5385951">
        <ele>202.2</ele>
        <time>2012-07-19T19:38:44Z</time>
      </trkpt>
      <trkpt lat="59.7092383" lon="14.5390922">
        <ele>202.4</ele>
        <time>2012-07-19T19:38:49Z</time>
      </trkpt>
      <trkpt lat="59.7089135" lon="14.5396062">
        <ele>203</ele>
        <time>2012-07-19T19:38:54Z</time>
      </trkpt>
      <trkpt lat="59.708587" lon="14.5401215">
        <ele>201.6</ele>
        <time>2012-07-19T19:38:59Z</time>
      </trkpt>
      <trkpt lat="59.7082717" lon="14.540622">
        <ele>200.2</ele>
        <time>2012-07-19T19:39:04Z</time>
      </trkpt>
      <trkpt lat="59.7079443" lon="14.541143">
        <ele>198.4</ele>
        <time>2012-07-19T19:39:09Z</time>
      </trkpt>
      <trkpt lat="59.707676" lon="14.5415941">
        <ele>198.2</ele>
        <time>2012-07-19T19:39:13Z</time>
      </trkpt>
      <trkpt lat="59.7074016" lon="14.5420449">
        <ele>199.8</ele>
        <time>2012-07-19T19:39:17Z</time>
      </trkpt>
      <trkpt lat="59.7071068" lon="14.5425066">
        <ele>199</ele>
        <time>2012-07-19T19:39:21Z</time>
      </trkpt>
      <trkpt lat="59.7068063" lon="14.5429809">
        <ele>198</ele>
        <time>2012-07-19T19:39:25Z</time>
      </trkpt>
      <trkpt lat="59.7065075" lon="14.54346">
        <ele>197</ele>
        <time>2012-07-19T19:39:29Z</time>
      </trkpt>
      <trkpt lat="59.7062017" lon="14.5439403">
        <ele>196.2</ele>
        <time>2012-07-19T19:39:33Z</time>
      </trkpt>
      <trkpt lat="59.7058961" lon="14.5444256">
        <ele>194.8</ele>
        <time>2012-07-19T19:39:37Z</time>
      </trkpt>
      <trkpt lat="59.7055955" lon="14.5449055">
        <ele>193.6</ele>
        <time>2012-07-19T19:39:41Z</time>
      </trkpt>
      <trkpt lat="59.7052989" lon="14.5453876">
        <ele>192.8</ele>
        <time>2012-07-19T19:39:45Z</time>
      </trkpt>
      <trkpt lat="59.7049968" lon="14.5458664">
        <ele>192.2</ele>
        <time>2012-07-19T19:39:49Z</time>
      </trkpt>
      <trkpt lat="59.7046993" lon="14.5463267">
        <ele>191.4</ele>
        <time>2012-07-19T19:39:53Z</time>
      </trkpt>
      <trkpt lat="59.7044058" lon="14.5467306">
        <ele>190.4</ele>
        <time>2012-07-19T19:39:57Z</time>
      </trkpt>
      <trkpt lat="59.7040442" lon="14.547169">
        <ele>189.8</ele>
        <time>2012-07-19T19:40:02Z</time>
      </trkpt>
      <trkpt lat="59.7036765" lon="14.5475468">
        <ele>189.2</ele>
        <time>2012-07-19T19:40:07Z</time>
      </trkpt>
      <trkpt lat="59.7032934" lon="14.5478623">
        <ele>189.4</ele>
        <time>2012-07-19T19:40:12Z</time>
      </trkpt>
      <trkpt lat="59.7029003" lon="14.5481187">
        <ele>189.4</ele>
        <time>2012-07-19T19:40:17Z</time>
      </trkpt>
      <trkpt lat="59.7025038" lon="14.5483165">
        <ele>189.6</ele>
        <time>2012-07-19T19:40:22Z</time>
      </trkpt>
      <trkpt lat="59.702097" lon="14.5484418">
        <ele>189.2</ele>
        <time>2012-07-19T19:40:27Z</time>
      </trkpt>
      <trkpt lat="59.7017028" lon="14.5485095">
        <ele>189</ele>
        <time>2012-07-19T19:40:32Z</time>
      </trkpt>
      <trkpt lat="59.7013108" lon="14.54852">
        <ele>189.4</ele>
        <time>2012-07-19T19:40:37Z</time>
      </trkpt>
      <trkpt lat="59.7009267" lon="14.5484566">
        <ele>192.2</ele>
        <time>2012-07-19T19:40:42Z</time>
      </trkpt>
      <trkpt lat="59.700546" lon="14.5483154">
        <ele>196</ele>
        <time>2012-07-19T19:40:47Z</time>
      </trkpt>
      <trkpt lat="59.7001586" lon="14.5481729">
        <ele>196</ele>
        <time>2012-07-19T19:40:52Z</time>
      </trkpt>
      <trkpt lat="59.6997727" lon="14.5480259">
        <ele>192.6</ele>
        <time>2012-07-19T19:40:57Z</time>
      </trkpt>
      <trkpt lat="59.6993796" lon="14.5478816">
        <ele>187.4</ele>
        <time>2012-07-19T19:41:02Z</time>
      </trkpt>
      <trkpt lat="59.6989931" lon="14.5477197">
        <ele>186.2</ele>
        <time>2012-07-19T19:41:07Z</time>
      </trkpt>
      <trkpt lat="59.6985989" lon="14.5475672">
        <ele>189.8</ele>
        <time>2012-07-19T19:41:12Z</time>
      </trkpt>
      <trkpt lat="59.6982146" lon="14.5474375">
        <ele>191.2</ele>
        <time>2012-07-19T19:41:17Z</time>
      </trkpt>
      <trkpt lat="59.697824" lon="14.5473131">
        <ele>191</ele>
        <time>2012-07-19T19:41:22Z</time>
      </trkpt>
      <trkpt lat="59.6974334" lon="14.5472431">
        <ele>192</ele>
        <time>2012-07-19T19:41:27Z</time>
      </trkpt>
      <trkpt lat="59.6970536" lon="14.547212">
        <ele>195.4</ele>
        <time>2012-07-19T19:41:32Z</time>
      </trkpt>
      <trkpt lat="59.6966427" lon="14.5472012">
        <ele>197.2</ele>
        <time>2012-07-19T19:41:37Z</time>
      </trkpt>
      <trkpt lat="59.6962312" lon="14.547222">
        <ele>196.4</ele>
        <time>2012-07-19T19:41:42Z</time>
      </trkpt>
      <trkpt lat="59.6958149" lon="14.5472752">
        <ele>195.6</ele>
        <time>2012-07-19T19:41:47Z</time>
      </trkpt>
      <trkpt lat="59.6953965" lon="14.5473566">
        <ele>194.2</ele>
        <time>2012-07-19T19:41:52Z</time>
      </trkpt>
      <trkpt lat="59.6949812" lon="14.5474483">
        <ele>193.4</ele>
        <time>2012-07-19T19:41:57Z</time>
      </trkpt>
      <trkpt lat="59.6945631" lon="14.5475529">
        <ele>193</ele>
        <time>2012-07-19T19:42:02Z</time>
      </trkpt>
      <trkpt lat="59.6941394" lon="14.5476435">
        <ele>193.2</ele>
        <time>2012-07-19T19:42:07Z</time>
      </trkpt>
      <trkpt lat="59.6937339" lon="14.5477832">
        <ele>192.4</ele>
        <time>2012-07-19T19:42:12Z</time>
      </trkpt>
      <trkpt lat="59.6933167" lon="14.5479201">
        <ele>191.4</ele>
        <time>2012-07-19T19:42:17Z</time>
      </trkpt>
      <trkpt lat="59.6929024" lon="14.5480391">
        <ele>191.2</ele>
        <time>2012-07-19T19:42:22Z</time>
      </trkpt>
      <trkpt lat="59.6924831" lon="14.54816">
        <ele>190.6</ele>
        <time>2012-07-19T19:42:27Z</time>
      </trkpt>
      <trkpt lat="59.6920653" lon="14.54829">
        <ele>190.4</ele>
        <time>2012-07-19T19:42:32Z</time>
      </trkpt>
      <trkpt lat="59.691657" lon="14.5484326">
        <ele>190.4</ele>
        <time>2012-07-19T19:42:37Z</time>
      </trkpt>
      <trkpt lat="59.6912696" lon="14.5485734">
        <ele>190</ele>
        <time>2012-07-19T19:42:42Z</time>
      </trkpt>
      <trkpt lat="59.6908682" lon="14.548723">
        <ele>190.2</ele>
        <time>2012-07-19T19:42:47Z</time>
      </trkpt>
      <trkpt lat="59.690478" lon="14.5488816">
        <ele>190.4</ele>
        <time>2012-07-19T19:42:52Z</time>
      </trkpt>
      <trkpt lat="59.6900812" lon="14.5490251">
        <ele>191.4</ele>
        <time>2012-07-19T19:42:57Z</time>
      </trkpt>
      <trkpt lat="59.6896939" lon="14.5491975">
        <ele>190.2</ele>
        <time>2012-07-19T19:43:02Z</time>
      </trkpt>
      <trkpt lat="59.6892841" lon="14.5493464">
        <ele>190</ele>
        <time>2012-07-19T19:43:07Z</time>
      </trkpt>
      <trkpt lat="59.6888825" lon="14.5494935">
        <ele>190.4</ele>
        <time>2012-07-19T19:43:12Z</time>
      </trkpt>
      <trkpt lat="59.6884946" lon="14.5496318">
        <ele>192.8</ele>
        <time>2012-07-19T19:43:17Z</time>
      </trkpt>
      <trkpt lat="59.6881174" lon="14.5497885">
        <ele>193</ele>
        <time>2012-07-19T19:43:22Z</time>
      </trkpt>
      <trkpt lat="59.6876887" lon="14.5499475">
        <ele>193.6</ele>
        <time>2012-07-19T19:43:28Z</time>
      </trkpt>
      <trkpt lat="59.6873245" lon="14.5500974">
        <ele>193.2</ele>
        <time>2012-07-19T19:43:33Z</time>
      </trkpt>
      <trkpt lat="59.6869516" lon="14.5502453">
        <ele>192</ele>
        <time>2012-07-19T19:43:38Z</time>
      </trkpt>
      <trkpt lat="59.6865741" lon="14.5503964">
        <ele>191</ele>
        <time>2012-07-19T19:43:43Z</time>
      </trkpt>
      <trkpt lat="59.6861934" lon="14.5505484">
        <ele>191</ele>
        <time>2012-07-19T19:43:48Z</time>
      </trkpt>
      <trkpt lat="59.6858149" lon="14.550701">
        <ele>190.8</ele>
        <time>2012-07-19T19:43:53Z</time>
      </trkpt>
      <trkpt lat="59.6854206" lon="14.550863">
        <ele>190.8</ele>
        <time>2012-07-19T19:43:58Z</time>
      </trkpt>
      <trkpt lat="59.6850243" lon="14.5510178">
        <ele>191</ele>
        <time>2012-07-19T19:44:03Z</time>
      </trkpt>
      <trkpt lat="59.6846418" lon="14.5511622">
        <ele>191</ele>
        <time>2012-07-19T19:44:08Z</time>
      </trkpt>
      <trkpt lat="59.6842474" lon="14.5513259">
        <ele>190</ele>
        <time>2012-07-19T19:44:13Z</time>
      </trkpt>
      <trkpt lat="59.6838558" lon="14.551485">
        <ele>190.2</ele>
        <time>2012-07-19T19:44:18Z</time>
      </trkpt>
      <trkpt lat="59.6834666" lon="14.551641">
        <ele>189.8</ele>
        <time>2012-07-19T19:44:23Z</time>
      </trkpt>
      <trkpt lat="59.6830948" lon="14.5517834">
        <ele>188.6</ele>
        <time>2012-07-19T19:44:28Z</time>
      </trkpt>
      <trkpt lat="59.6827225" lon="14.5519238">
        <ele>190.4</ele>
        <time>2012-07-19T19:44:33Z</time>
      </trkpt>
      <trkpt lat="59.682335" lon="14.5520669">
        <ele>192</ele>
        <time>2012-07-19T19:44:38Z</time>
      </trkpt>
      <trkpt lat="59.6819542" lon="14.5522222">
        <ele>193.4</ele>
        <time>2012-07-19T19:44:43Z</time>
      </trkpt>
      <trkpt lat="59.6815691" lon="14.5523498">
        <ele>195</ele>
        <time>2012-07-19T19:44:48Z</time>
      </trkpt>
      <trkpt lat="59.6812004" lon="14.5524936">
        <ele>196.2</ele>
        <time>2012-07-19T19:44:53Z</time>
      </trkpt>
      <trkpt lat="59.6808354" lon="14.5526123">
        <ele>197</ele>
        <time>2012-07-19T19:44:58Z</time>
      </trkpt>
      <trkpt lat="59.6804824" lon="14.5527663">
        <ele>197.8</ele>
        <time>2012-07-19T19:45:03Z</time>
      </trkpt>
      <trkpt lat="59.6801292" lon="14.5529304">
        <ele>198.6</ele>
        <time>2012-07-19T19:45:08Z</time>
      </trkpt>
      <trkpt lat="59.6797308" lon="14.5530992">
        <ele>199.2</ele>
        <time>2012-07-19T19:45:14Z</time>
      </trkpt>
      <trkpt lat="59.6793393" lon="14.5532598">
        <ele>198.8</ele>
        <time>2012-07-19T19:45:20Z</time>
      </trkpt>
      <trkpt lat="59.6789534" lon="14.553415">
        <ele>198.8</ele>
        <time>2012-07-19T19:45:26Z</time>
      </trkpt>
      <trkpt lat="59.6785924" lon="14.5535556">
        <ele>199.6</ele>
        <time>2012-07-19T19:45:32Z</time>
      </trkpt>
      <trkpt lat="59.6781915" lon="14.5537235">
        <ele>200.6</ele>
        <time>2012-07-19T19:45:39Z</time>
      </trkpt>
      <trkpt lat="59.677805" lon="14.5538865">
        <ele>201</ele>
        <time>2012-07-19T19:45:46Z</time>
      </trkpt>
      <trkpt lat="59.677424" lon="14.5539985">
        <ele>205</ele>
        <time>2012-07-19T19:45:53Z</time>
      </trkpt>
      <trkpt lat="59.6770625" lon="14.5541322">
        <ele>205.6</ele>
        <time>2012-07-19T19:46:00Z</time>
      </trkpt>
      <trkpt lat="59.6766546" lon="14.5542766">
        <ele>206.4</ele>
        <time>2012-07-19T19:46:07Z</time>
      </trkpt>
      <trkpt lat="59.6762728" lon="14.5544386">
        <ele>205.8</ele>
        <time>2012-07-19T19:46:13Z</time>
      </trkpt>
      <trkpt lat="59.675875" lon="14.5546038">
        <ele>205.2</ele>
        <time>2012-07-19T19:46:19Z</time>
      </trkpt>
      <trkpt lat="59.6755003" lon="14.5547668">
        <ele>205.2</ele>
        <time>2012-07-19T19:46:25Z</time>
      </trkpt>
      <trkpt lat="59.6750989" lon="14.5549407">
        <ele>205.2</ele>
        <time>2012-07-19T19:46:32Z</time>
      </trkpt>
      <trkpt lat="59.6747031" lon="14.5551133">
        <ele>205.4</ele>
        <time>2012-07-19T19:46:38Z</time>
      </trkpt>
      <trkpt lat="59.6743187" lon="14.5552832">
        <ele>205.8</ele>
        <time>2012-07-19T19:46:44Z</time>
      </trkpt>
      <trkpt lat="59.6739515" lon="14.5554501">
        <ele>207</ele>
        <time>2012-07-19T19:46:50Z</time>
      </trkpt>
      <trkpt lat="59.6735581" lon="14.5556239">
        <ele>208.8</ele>
        <time>2012-07-19T19:46:56Z</time>
      </trkpt>
      <trkpt lat="59.6731817" lon="14.5557999">
        <ele>210.8</ele>
        <time>2012-07-19T19:47:02Z</time>
      </trkpt>
      <trkpt lat="59.6728318" lon="14.5559654">
        <ele>212.6</ele>
        <time>2012-07-19T19:47:08Z</time>
      </trkpt>
      <trkpt lat="59.6724327" lon="14.5561467">
        <ele>215.8</ele>
        <time>2012-07-19T19:47:15Z</time>
      </trkpt>
      <trkpt lat="59.6720499" lon="14.5563283">
        <ele>218.4</ele>
        <time>2012-07-19T19:47:22Z</time>
      </trkpt>
      <trkpt lat="59.6716689" lon="14.5565295">
        <ele>221.8</ele>
        <time>2012-07-19T19:47:29Z</time>
      </trkpt>
      <trkpt lat="59.6713215" lon="14.5567054">
        <ele>223.4</ele>
        <time>2012-07-19T19:47:35Z</time>
      </trkpt>
      <trkpt lat="59.6709195" lon="14.5568901">
        <ele>223.4</ele>
        <time>2012-07-19T19:47:42Z</time>
      </trkpt>
      <trkpt lat="59.6705659" lon="14.5570688">
        <ele>223.6</ele>
        <time>2012-07-19T19:47:48Z</time>
      </trkpt>
      <trkpt lat="59.6701762" lon="14.5572931">
        <ele>223.8</ele>
        <time>2012-07-19T19:47:55Z</time>
      </trkpt>
      <trkpt lat="59.6698105" lon="14.5575246">
        <ele>225.6</ele>
        <time>2012-07-19T19:48:02Z</time>
      </trkpt>
      <trkpt lat="59.6694373" lon="14.5577784">
        <ele>226</ele>
        <time>2012-07-19T19:48:09Z</time>
      </trkpt>
      <trkpt lat="59.6690628" lon="14.5580875">
        <ele>228.6</ele>
        <time>2012-07-19T19:48:16Z</time>
      </trkpt>
      <trkpt lat="59.6687303" lon="14.5583885">
        <ele>231.2</ele>
        <time>2012-07-19T19:48:22Z</time>
      </trkpt>
      <trkpt lat="59.6683715" lon="14.5587398">
        <ele>235</ele>
        <time>2012-07-19T19:48:29Z</time>
      </trkpt>
      <trkpt lat="59.6680384" lon="14.559066">
        <ele>237.8</ele>
        <time>2012-07-19T19:48:35Z</time>
      </trkpt>
      <trkpt lat="59.6677119" lon="14.5594234">
        <ele>240.4</ele>
        <time>2012-07-19T19:48:41Z</time>
      </trkpt>
      <trkpt lat="59.6673979" lon="14.5597876">
        <ele>241.4</ele>
        <time>2012-07-19T19:48:47Z</time>
      </trkpt>
      <trkpt lat="59.6670711" lon="14.5601592">
        <ele>241.8</ele>
        <time>2012-07-19T19:48:53Z</time>
      </trkpt>
      <trkpt lat="59.6667373" lon="14.56057">
        <ele>242.8</ele>
        <time>2012-07-19T19:48:59Z</time>
      </trkpt>
      <trkpt lat="59.6664355" lon="14.5609684">
        <ele>243.4</ele>
        <time>2012-07-19T19:49:04Z</time>
      </trkpt>
      <trkpt lat="59.6660903" lon="14.5614553">
        <ele>244</ele>
        <time>2012-07-19T19:49:10Z</time>
      </trkpt>
      <trkpt lat="59.66576" lon="14.561957">
        <ele>244.4</ele>
        <time>2012-07-19T19:49:16Z</time>
      </trkpt>
      <trkpt lat="59.6654336" lon="14.5624778">
        <ele>244.6</ele>
        <time>2012-07-19T19:49:22Z</time>
      </trkpt>
      <trkpt lat="59.6651463" lon="14.5629822">
        <ele>244</ele>
        <time>2012-07-19T19:49:27Z</time>
      </trkpt>
      <trkpt lat="59.6648788" lon="14.5634613">
        <ele>243.4</ele>
        <time>2012-07-19T19:49:31Z</time>
      </trkpt>
      <trkpt lat="59.6645781" lon="14.5640874">
        <ele>242.2</ele>
        <time>2012-07-19T19:49:36Z</time>
      </trkpt>
      <trkpt lat="59.664278" lon="14.5647204">
        <ele>239.8</ele>
        <time>2012-07-19T19:49:41Z</time>
      </trkpt>
      <trkpt lat="59.6639737" lon="14.5653757">
        <ele>238.6</ele>
        <time>2012-07-19T19:49:46Z</time>
      </trkpt>
      <trkpt lat="59.6637294" lon="14.5659241">
        <ele>238.2</ele>
        <time>2012-07-19T19:49:50Z</time>
      </trkpt>
      <trkpt lat="59.6634908" lon="14.5664793">
        <ele>238.2</ele>
        <time>2012-07-19T19:49:54Z</time>
      </trkpt>
      <trkpt lat="59.6632488" lon="14.5670388">
        <ele>238</ele>
        <time>2012-07-19T19:49:58Z</time>
      </trkpt>
      <trkpt lat="59.6630099" lon="14.5676061">
        <ele>238</ele>
        <time>2012-07-19T19:50:02Z</time>
      </trkpt>
      <trkpt lat="59.6627674" lon="14.5681598">
        <ele>237.6</ele>
        <time>2012-07-19T19:50:06Z</time>
      </trkpt>
      <trkpt lat="59.6625278" lon="14.568716">
        <ele>237.2</ele>
        <time>2012-07-19T19:50:10Z</time>
      </trkpt>
      <trkpt lat="59.6622805" lon="14.5692504">
        <ele>235.8</ele>
        <time>2012-07-19T19:50:14Z</time>
      </trkpt>
      <trkpt lat="59.6620212" lon="14.5697663">
        <ele>235</ele>
        <time>2012-07-19T19:50:18Z</time>
      </trkpt>
      <trkpt lat="59.6617533" lon="14.570274">
        <ele>234.2</ele>
        <time>2012-07-19T19:50:22Z</time>
      </trkpt>
      <trkpt lat="59.6614685" lon="14.570766">
        <ele>234</ele>
        <time>2012-07-19T19:50:26Z</time>
      </trkpt>
      <trkpt lat="59.6611722" lon="14.5712466">
        <ele>233.6</ele>
        <time>2012-07-19T19:50:30Z</time>
      </trkpt>
      <trkpt lat="59.6608661" lon="14.5716953">
        <ele>233.6</ele>
        <time>2012-07-19T19:50:34Z</time>
      </trkpt>
      <trkpt lat="59.6605568" lon="14.5721199">
        <ele>233.6</ele>
        <time>2012-07-19T19:50:38Z</time>
      </trkpt>
      <trkpt lat="59.660239" lon="14.5725277">
        <ele>233.8</ele>
        <time>2012-07-19T19:50:42Z</time>
      </trkpt>
      <trkpt lat="59.6599153" lon="14.5729129">
        <ele>234</ele>
        <time>2012-07-19T19:50:46Z</time>
      </trkpt>
      <trkpt lat="59.6595881" lon="14.5732624">
        <ele>234</ele>
        <time>2012-07-19T19:50:50Z</time>
      </trkpt>
      <trkpt lat="59.6592561" lon="14.5735839">
        <ele>233.6</ele>
        <time>2012-07-19T19:50:54Z</time>
      </trkpt>
      <trkpt lat="59.6589101" lon="14.5738791">
        <ele>233.2</ele>
        <time>2012-07-19T19:50:58Z</time>
      </trkpt>
      <trkpt lat="59.6585639" lon="14.5741868">
        <ele>232.6</ele>
        <time>2012-07-19T19:51:02Z</time>
      </trkpt>
      <trkpt lat="59.6582142" lon="14.5745004">
        <ele>232</ele>
        <time>2012-07-19T19:51:06Z</time>
      </trkpt>
      <trkpt lat="59.6578646" lon="14.574826">
        <ele>231.4</ele>
        <time>2012-07-19T19:51:10Z</time>
      </trkpt>
      <trkpt lat="59.6575089" lon="14.5750997">
        <ele>230.2</ele>
        <time>2012-07-19T19:51:14Z</time>
      </trkpt>
      <trkpt lat="59.6571422" lon="14.5754154">
        <ele>228.8</ele>
        <time>2012-07-19T19:51:18Z</time>
      </trkpt>
      <trkpt lat="59.6567541" lon="14.5757478">
        <ele>226.8</ele>
        <time>2012-07-19T19:51:22Z</time>
      </trkpt>
      <trkpt lat="59.656348" lon="14.5761139">
        <ele>225</ele>
        <time>2012-07-19T19:51:26Z</time>
      </trkpt>
      <trkpt lat="59.6559382" lon="14.5764989">
        <ele>223</ele>
        <time>2012-07-19T19:51:30Z</time>
      </trkpt>
      <trkpt lat="59.6552094" lon="14.5773318">
        <ele>230.6</ele>
        <time>2012-07-19T19:52:15Z</time>
      </trkpt>
      <trkpt lat="59.6551605" lon="14.5773904">
        <ele>229.6</ele>
        <time>2012-07-19T19:52:16Z</time>
      </trkpt>
      <trkpt lat="59.654815" lon="14.5777358">
        <ele>222.4</ele>
        <time>2012-07-19T19:52:21Z</time>
      </trkpt>
      <trkpt lat="59.6544563" lon="14.5781424">
        <ele>216</ele>
        <time>2012-07-19T19:52:25Z</time>
      </trkpt>
      <trkpt lat="59.6540748" lon="14.5786168">
        <ele>210.6</ele>
        <time>2012-07-19T19:52:29Z</time>
      </trkpt>
      <trkpt lat="59.6536784" lon="14.5791276">
        <ele>206.2</ele>
        <time>2012-07-19T19:52:33Z</time>
      </trkpt>
      <trkpt lat="59.653276" lon="14.5796514">
        <ele>200.4</ele>
        <time>2012-07-19T19:52:37Z</time>
      </trkpt>
      <trkpt lat="59.6529703" lon="14.580071">
        <ele>197.4</ele>
        <time>2012-07-19T19:52:40Z</time>
      </trkpt>
      <trkpt lat="59.6526679" lon="14.5805165">
        <ele>195</ele>
        <time>2012-07-19T19:52:43Z</time>
      </trkpt>
      <trkpt lat="59.6523661" lon="14.5809688">
        <ele>192.4</ele>
        <time>2012-07-19T19:52:46Z</time>
      </trkpt>
      <trkpt lat="59.6520714" lon="14.5814388">
        <ele>189.6</ele>
        <time>2012-07-19T19:52:49Z</time>
      </trkpt>
      <trkpt lat="59.6517768" lon="14.5818994">
        <ele>186.4</ele>
        <time>2012-07-19T19:52:52Z</time>
      </trkpt>
      <trkpt lat="59.6514927" lon="14.5823808">
        <ele>184</ele>
        <time>2012-07-19T19:52:55Z</time>
      </trkpt>
      <trkpt lat="59.6512179" lon="14.5828584">
        <ele>181.4</ele>
        <time>2012-07-19T19:52:58Z</time>
      </trkpt>
      <trkpt lat="59.6508732" lon="14.58351">
        <ele>180.2</ele>
        <time>2012-07-19T19:53:02Z</time>
      </trkpt>
      <trkpt lat="59.6505477" lon="14.5841658">
        <ele>179.2</ele>
        <time>2012-07-19T19:53:06Z</time>
      </trkpt>
      <trkpt lat="59.6502571" lon="14.5848161">
        <ele>178.4</ele>
        <time>2012-07-19T19:53:10Z</time>
      </trkpt>
      <trkpt lat="59.6499908" lon="14.5854473">
        <ele>178.8</ele>
        <time>2012-07-19T19:53:14Z</time>
      </trkpt>
      <trkpt lat="59.6497609" lon="14.5860864">
        <ele>179.2</ele>
        <time>2012-07-19T19:53:18Z</time>
      </trkpt>
      <trkpt lat="59.6495484" lon="14.5867492">
        <ele>180.8</ele>
        <time>2012-07-19T19:53:22Z</time>
      </trkpt>
      <trkpt lat="59.6493517" lon="14.5874172">
        <ele>181.4</ele>
        <time>2012-07-19T19:53:26Z</time>
      </trkpt>
      <trkpt lat="59.649173" lon="14.5881088">
        <ele>180.6</ele>
        <time>2012-07-19T19:53:30Z</time>
      </trkpt>
      <trkpt lat="59.6490277" lon="14.5888058">
        <ele>180.2</ele>
        <time>2012-07-19T19:53:34Z</time>
      </trkpt>
      <trkpt lat="59.6489042" lon="14.5895039">
        <ele>179.6</ele>
        <time>2012-07-19T19:53:38Z</time>
      </trkpt>
      <trkpt lat="59.6488036" lon="14.5902085">
        <ele>178.4</ele>
        <time>2012-07-19T19:53:42Z</time>
      </trkpt>
      <trkpt lat="59.6487119" lon="14.590917">
        <ele>177.6</ele>
        <time>2012-07-19T19:53:46Z</time>
      </trkpt>
      <trkpt lat="59.6486302" lon="14.59162">
        <ele>176.6</ele>
        <time>2012-07-19T19:53:50Z</time>
      </trkpt>
      <trkpt lat="59.6485498" lon="14.5923168">
        <ele>176</ele>
        <time>2012-07-19T19:53:54Z</time>
      </trkpt>
      <trkpt lat="59.6484783" lon="14.5930192">
        <ele>176</ele>
        <time>2012-07-19T19:53:58Z</time>
      </trkpt>
      <trkpt lat="59.6483975" lon="14.5937147">
        <ele>176</ele>
        <time>2012-07-19T19:54:02Z</time>
      </trkpt>
      <trkpt lat="59.6482916" lon="14.594571">
        <ele>175.6</ele>
        <time>2012-07-19T19:54:07Z</time>
      </trkpt>
      <trkpt lat="59.6481754" lon="14.5952435">
        <ele>176.2</ele>
        <time>2012-07-19T19:54:11Z</time>
      </trkpt>
      <trkpt lat="59.6479767" lon="14.596036">
        <ele>176.4</ele>
        <time>2012-07-19T19:54:16Z</time>
      </trkpt>
      <trkpt lat="59.647737" lon="14.5967814">
        <ele>176</ele>
        <time>2012-07-19T19:54:21Z</time>
      </trkpt>
      <trkpt lat="59.6474796" lon="14.5974453">
        <ele>177.4</ele>
        <time>2012-07-19T19:54:26Z</time>
      </trkpt>
      <trkpt lat="59.6472155" lon="14.598004">
        <ele>179.4</ele>
        <time>2012-07-19T19:54:31Z</time>
      </trkpt>
      <trkpt lat="59.6469159" lon="14.5985215">
        <ele>181</ele>
        <time>2012-07-19T19:54:37Z</time>
      </trkpt>
      <trkpt lat="59.6465975" lon="14.5989869">
        <ele>185.2</ele>
        <time>2012-07-19T19:54:44Z</time>
      </trkpt>
      <trkpt lat="59.6462956" lon="14.5993891">
        <ele>188.8</ele>
        <time>2012-07-19T19:54:51Z</time>
      </trkpt>
      <trkpt lat="59.6459762" lon="14.59976">
        <ele>192.4</ele>
        <time>2012-07-19T19:54:58Z</time>
      </trkpt>
      <trkpt lat="59.6456402" lon="14.6001516">
        <ele>196.2</ele>
        <time>2012-07-19T19:55:06Z</time>
      </trkpt>
      <trkpt lat="59.645337" lon="14.6005249">
        <ele>199.4</ele>
        <time>2012-07-19T19:55:13Z</time>
      </trkpt>
      <trkpt lat="59.6449827" lon="14.6009282">
        <ele>203.6</ele>
        <time>2012-07-19T19:55:21Z</time>
      </trkpt>
      <trkpt lat="59.6446622" lon="14.6013517">
        <ele>204.6</ele>
        <time>2012-07-19T19:55:28Z</time>
      </trkpt>
      <trkpt lat="59.6443441" lon="14.6018567">
        <ele>204</ele>
        <time>2012-07-19T19:55:35Z</time>
      </trkpt>
      <trkpt lat="59.6440753" lon="14.6023474">
        <ele>202.6</ele>
        <time>2012-07-19T19:55:41Z</time>
      </trkpt>
      <trkpt lat="59.643801" lon="14.60291">
        <ele>202.2</ele>
        <time>2012-07-19T19:55:47Z</time>
      </trkpt>
      <trkpt lat="59.6435348" lon="14.6035166">
        <ele>203.2</ele>
        <time>2012-07-19T19:55:53Z</time>
      </trkpt>
      <trkpt lat="59.6432828" lon="14.6041748">
        <ele>205.2</ele>
        <time>2012-07-19T19:55:59Z</time>
      </trkpt>
      <trkpt lat="59.6430551" lon="14.6048516">
        <ele>206.6</ele>
        <time>2012-07-19T19:56:05Z</time>
      </trkpt>
      <trkpt lat="59.6428517" lon="14.6055633">
        <ele>207.6</ele>
        <time>2012-07-19T19:56:11Z</time>
      </trkpt>
      <trkpt lat="59.6426808" lon="14.6062072">
        <ele>208.4</ele>
        <time>2012-07-19T19:56:16Z</time>
      </trkpt>
      <trkpt lat="59.6424982" lon="14.6069503">
        <ele>208.2</ele>
        <time>2012-07-19T19:56:21Z</time>
      </trkpt>
      <trkpt lat="59.6423223" lon="14.6077116">
        <ele>207.4</ele>
        <time>2012-07-19T19:56:26Z</time>
      </trkpt>
      <trkpt lat="59.6421436" lon="14.6085064">
        <ele>206</ele>
        <time>2012-07-19T19:56:31Z</time>
      </trkpt>
      <trkpt lat="59.6420022" lon="14.6091884">
        <ele>204.2</ele>
        <time>2012-07-19T19:56:35Z</time>
      </trkpt>
      <trkpt lat="59.6418564" lon="14.6099172">
        <ele>202.2</ele>
        <time>2012-07-19T19:56:39Z</time>
      </trkpt>
      <trkpt lat="59.6417157" lon="14.6106972">
        <ele>199.8</ele>
        <time>2012-07-19T19:56:43Z</time>
      </trkpt>
      <trkpt lat="59.6415619" lon="14.611551">
        <ele>196.6</ele>
        <time>2012-07-19T19:56:47Z</time>
      </trkpt>
      <trkpt lat="59.6414492" lon="14.6122508">
        <ele>193.6</ele>
        <time>2012-07-19T19:56:50Z</time>
      </trkpt>
      <trkpt lat="59.6413246" lon="14.6129786">
        <ele>190.4</ele>
        <time>2012-07-19T19:56:53Z</time>
      </trkpt>
      <trkpt lat="59.6411848" lon="14.6137222">
        <ele>187.4</ele>
        <time>2012-07-19T19:56:56Z</time>
      </trkpt>
      <trkpt lat="59.641019" lon="14.6144699">
        <ele>185</ele>
        <time>2012-07-19T19:56:59Z</time>
      </trkpt>
      <trkpt lat="59.6408336" lon="14.61521">
        <ele>182.8</ele>
        <time>2012-07-19T19:57:02Z</time>
      </trkpt>
      <trkpt lat="59.6406258" lon="14.6159095">
        <ele>181.6</ele>
        <time>2012-07-19T19:57:05Z</time>
      </trkpt>
      <trkpt lat="59.6404165" lon="14.616557">
        <ele>181.6</ele>
        <time>2012-07-19T19:57:08Z</time>
      </trkpt>
      <trkpt lat="59.6401596" lon="14.6173018">
        <ele>182.2</ele>
        <time>2012-07-19T19:57:12Z</time>
      </trkpt>
      <trkpt lat="59.6399413" lon="14.617937">
        <ele>184.2</ele>
        <time>2012-07-19T19:57:16Z</time>
      </trkpt>
      <trkpt lat="59.6397233" lon="14.6186331">
        <ele>186.4</ele>
        <time>2012-07-19T19:57:21Z</time>
      </trkpt>
      <trkpt lat="59.6395081" lon="14.6192636">
        <ele>189.4</ele>
        <time>2012-07-19T19:57:26Z</time>
      </trkpt>
      <trkpt lat="59.6393086" lon="14.6198527">
        <ele>191.4</ele>
        <time>2012-07-19T19:57:31Z</time>
      </trkpt>
      <trkpt lat="59.6391144" lon="14.620445">
        <ele>194.6</ele>
        <time>2012-07-19T19:57:36Z</time>
      </trkpt>
      <trkpt lat="59.6388869" lon="14.6211461">
        <ele>197.2</ele>
        <time>2012-07-19T19:57:42Z</time>
      </trkpt>
      <trkpt lat="59.6386691" lon="14.6218293">
        <ele>200</ele>
        <time>2012-07-19T19:57:48Z</time>
      </trkpt>
      <trkpt lat="59.6384761" lon="14.6225614">
        <ele>194.6</ele>
        <time>2012-07-19T19:57:53Z</time>
      </trkpt>
      <trkpt lat="59.6382809" lon="14.6233433">
        <ele>190.4</ele>
        <time>2012-07-19T19:57:58Z</time>
      </trkpt>
      <trkpt lat="59.6380922" lon="14.6241547">
        <ele>188</ele>
        <time>2012-07-19T19:58:03Z</time>
      </trkpt>
      <trkpt lat="59.6379703" lon="14.624797">
        <ele>188.2</ele>
        <time>2012-07-19T19:58:07Z</time>
      </trkpt>
      <trkpt lat="59.637817" lon="14.6255787">
        <ele>187.8</ele>
        <time>2012-07-19T19:58:12Z</time>
      </trkpt>
      <trkpt lat="59.6376728" lon="14.6263011">
        <ele>188.8</ele>
        <time>2012-07-19T19:58:17Z</time>
      </trkpt>
      <trkpt lat="59.6375089" lon="14.6270193">
        <ele>189.2</ele>
        <time>2012-07-19T19:58:22Z</time>
      </trkpt>
      <trkpt lat="59.6373109" lon="14.6277303">
        <ele>188.6</ele>
        <time>2012-07-19T19:58:27Z</time>
      </trkpt>
      <trkpt lat="59.6370406" lon="14.6284116">
        <ele>187.2</ele>
        <time>2012-07-19T19:58:32Z</time>
      </trkpt>
      <trkpt lat="59.6367291" lon="14.6290251">
        <ele>186.2</ele>
        <time>2012-07-19T19:58:37Z</time>
      </trkpt>
      <trkpt lat="59.6364527" lon="14.6294601">
        <ele>187</ele>
        <time>2012-07-19T19:58:41Z</time>
      </trkpt>
      <trkpt lat="59.6361483" lon="14.6298578">
        <ele>186.8</ele>
        <time>2012-07-19T19:58:45Z</time>
      </trkpt>
      <trkpt lat="59.6358177" lon="14.6301744">
        <ele>186.4</ele>
        <time>2012-07-19T19:58:49Z</time>
      </trkpt>
      <trkpt lat="59.6354795" lon="14.6304159">
        <ele>184.8</ele>
        <time>2012-07-19T19:58:53Z</time>
      </trkpt>
      <trkpt lat="59.6350505" lon="14.6306273">
        <ele>183.8</ele>
        <time>2012-07-19T19:58:58Z</time>
      </trkpt>
      <trkpt lat="59.6346074" lon="14.6307685">
        <ele>183.4</ele>
        <time>2012-07-19T19:59:03Z</time>
      </trkpt>
      <trkpt lat="59.6342377" lon="14.6308463">
        <ele>183.8</ele>
        <time>2012-07-19T19:59:07Z</time>
      </trkpt>
      <trkpt lat="59.6338714" lon="14.6309046">
        <ele>184</ele>
        <time>2012-07-19T19:59:11Z</time>
      </trkpt>
      <trkpt lat="59.6334285" lon="14.6309808">
        <ele>181.4</ele>
        <time>2012-07-19T19:59:16Z</time>
      </trkpt>
      <trkpt lat="59.6330091" lon="14.6310376">
        <ele>180.4</ele>
        <time>2012-07-19T19:59:21Z</time>
      </trkpt>
      <trkpt lat="59.6326102" lon="14.6311189">
        <ele>185</ele>
        <time>2012-07-19T19:59:26Z</time>
      </trkpt>
      <trkpt lat="59.6322088" lon="14.6312875">
        <ele>188.8</ele>
        <time>2012-07-19T19:59:31Z</time>
      </trkpt>
      <trkpt lat="59.6318049" lon="14.6315451">
        <ele>190.2</ele>
        <time>2012-07-19T19:59:36Z</time>
      </trkpt>
      <trkpt lat="59.6314095" lon="14.6318792">
        <ele>190.2</ele>
        <time>2012-07-19T19:59:41Z</time>
      </trkpt>
      <trkpt lat="59.6310196" lon="14.6322921">
        <ele>189</ele>
        <time>2012-07-19T19:59:46Z</time>
      </trkpt>
      <trkpt lat="59.6307117" lon="14.6326903">
        <ele>188.6</ele>
        <time>2012-07-19T19:59:50Z</time>
      </trkpt>
      <trkpt lat="59.6304828" lon="14.6330152">
        <ele>189</ele>
        <time>2012-07-19T19:59:53Z</time>
      </trkpt>
      <trkpt lat="59.6304126" lon="14.6331323">
        <ele>189.2</ele>
        <time>2012-07-19T19:59:54Z</time>
      </trkpt>
      <trkpt lat="59.6301085" lon="14.6335167">
        <ele>189.2</ele>
        <time>2012-07-19T19:59:58Z</time>
      </trkpt>
      <trkpt lat="59.6300259" lon="14.6335869">
        <ele>189.2</ele>
        <time>2012-07-19T19:59:59Z</time>
      </trkpt>
      <trkpt lat="59.6296387" lon="14.6339619">
        <ele>189.6</ele>
        <time>2012-07-19T20:00:04Z</time>
      </trkpt>
      <trkpt lat="59.6292436" lon="14.6342665">
        <ele>190.8</ele>
        <time>2012-07-19T20:00:09Z</time>
      </trkpt>
      <trkpt lat="59.6288279" lon="14.6344678">
        <ele>191.8</ele>
        <time>2012-07-19T20:00:14Z</time>
      </trkpt>
      <trkpt lat="59.6284239" lon="14.6346208">
        <ele>192.8</ele>
        <time>2012-07-19T20:00:19Z</time>
      </trkpt>
      <trkpt lat="59.6280195" lon="14.6347516">
        <ele>191.4</ele>
        <time>2012-07-19T20:00:24Z</time>
      </trkpt>
      <trkpt lat="59.627635" lon="14.6348463">
        <ele>191</ele>
        <time>2012-07-19T20:00:29Z</time>
      </trkpt>
      <trkpt lat="59.6272658" lon="14.6349324">
        <ele>192</ele>
        <time>2012-07-19T20:00:34Z</time>
      </trkpt>
      <trkpt lat="59.626901" lon="14.6350207">
        <ele>190.2</ele>
        <time>2012-07-19T20:00:39Z</time>
      </trkpt>
      <trkpt lat="59.6265514" lon="14.6351168">
        <ele>190.6</ele>
        <time>2012-07-19T20:00:44Z</time>
      </trkpt>
      <trkpt lat="59.626163" lon="14.6352021">
        <ele>190.6</ele>
        <time>2012-07-19T20:00:50Z</time>
      </trkpt>
      <trkpt lat="59.6257479" lon="14.635311">
        <ele>189.8</ele>
        <time>2012-07-19T20:00:57Z</time>
      </trkpt>
      <trkpt lat="59.6253502" lon="14.6354134">
        <ele>190.8</ele>
        <time>2012-07-19T20:01:04Z</time>
      </trkpt>
      <trkpt lat="59.6249907" lon="14.6354888">
        <ele>192.4</ele>
        <time>2012-07-19T20:01:11Z</time>
      </trkpt>
      <trkpt lat="59.624889" lon="14.6355088">
        <ele>192.6</ele>
        <time>2012-07-19T20:01:13Z</time>
      </trkpt>
      <trkpt lat="59.6246292" lon="14.6355807">
        <ele>193.4</ele>
        <time>2012-07-19T20:01:18Z</time>
      </trkpt>
      <trkpt lat="59.6242216" lon="14.6356928">
        <ele>194.8</ele>
        <time>2012-07-19T20:01:26Z</time>
      </trkpt>
      <trkpt lat="59.623876" lon="14.6357859">
        <ele>198.2</ele>
        <time>2012-07-19T20:01:33Z</time>
      </trkpt>
      <trkpt lat="59.6235085" lon="14.6358943">
        <ele>200.4</ele>
        <time>2012-07-19T20:01:39Z</time>
      </trkpt>
      <trkpt lat="59.623173" lon="14.6360999">
        <ele>201.6</ele>
        <time>2012-07-19T20:01:45Z</time>
      </trkpt>
      <trkpt lat="59.6228081" lon="14.6362958">
        <ele>202.6</ele>
        <time>2012-07-19T20:01:51Z</time>
      </trkpt>
      <trkpt lat="59.6224345" lon="14.6365526">
        <ele>203.4</ele>
        <time>2012-07-19T20:01:57Z</time>
      </trkpt>
      <trkpt lat="59.6220962" lon="14.6368009">
        <ele>204</ele>
        <time>2012-07-19T20:02:02Z</time>
      </trkpt>
      <trkpt lat="59.6217164" lon="14.6370775">
        <ele>203</ele>
        <time>2012-07-19T20:02:07Z</time>
      </trkpt>
      <trkpt lat="59.6213111" lon="14.6373743">
        <ele>201.4</ele>
        <time>2012-07-19T20:02:12Z</time>
      </trkpt>
      <trkpt lat="59.6208938" lon="14.6376971">
        <ele>200</ele>
        <time>2012-07-19T20:02:17Z</time>
      </trkpt>
      <trkpt lat="59.620544" lon="14.6379568">
        <ele>198.6</ele>
        <time>2012-07-19T20:02:21Z</time>
      </trkpt>
      <trkpt lat="59.6201705" lon="14.6382409">
        <ele>197.8</ele>
        <time>2012-07-19T20:02:25Z</time>
      </trkpt>
      <trkpt lat="59.6197998" lon="14.6385304">
        <ele>197</ele>
        <time>2012-07-19T20:02:29Z</time>
      </trkpt>
      <trkpt lat="59.6194263" lon="14.6388255">
        <ele>195</ele>
        <time>2012-07-19T20:02:33Z</time>
      </trkpt>
      <trkpt lat="59.6190407" lon="14.6391094">
        <ele>193</ele>
        <time>2012-07-19T20:02:37Z</time>
      </trkpt>
      <trkpt lat="59.6186638" lon="14.6393832">
        <ele>191.2</ele>
        <time>2012-07-19T20:02:41Z</time>
      </trkpt>
      <trkpt lat="59.6182789" lon="14.6396178">
        <ele>188.6</ele>
        <time>2012-07-19T20:02:45Z</time>
      </trkpt>
      <trkpt lat="59.6178836" lon="14.6398326">
        <ele>186.2</ele>
        <time>2012-07-19T20:02:49Z</time>
      </trkpt>
      <trkpt lat="59.6174696" lon="14.6400233">
        <ele>184.8</ele>
        <time>2012-07-19T20:02:53Z</time>
      </trkpt>
      <trkpt lat="59.6170461" lon="14.6402243">
        <ele>185.2</ele>
        <time>2012-07-19T20:02:57Z</time>
      </trkpt>
      <trkpt lat="59.6166357" lon="14.6404336">
        <ele>184.2</ele>
        <time>2012-07-19T20:03:01Z</time>
      </trkpt>
      <trkpt lat="59.616231" lon="14.6406474">
        <ele>183.8</ele>
        <time>2012-07-19T20:03:05Z</time>
      </trkpt>
      <trkpt lat="59.6158411" lon="14.6408755">
        <ele>183.4</ele>
        <time>2012-07-19T20:03:09Z</time>
      </trkpt>
      <trkpt lat="59.6154707" lon="14.6411184">
        <ele>183.4</ele>
        <time>2012-07-19T20:03:13Z</time>
      </trkpt>
      <trkpt lat="59.6151085" lon="14.6413821">
        <ele>183.4</ele>
        <time>2012-07-19T20:03:17Z</time>
      </trkpt>
      <trkpt lat="59.6147647" lon="14.6416513">
        <ele>182.8</ele>
        <time>2012-07-19T20:03:21Z</time>
      </trkpt>
      <trkpt lat="59.61436" lon="14.6419797">
        <ele>182</ele>
        <time>2012-07-19T20:03:26Z</time>
      </trkpt>
      <trkpt lat="59.6139688" lon="14.642297">
        <ele>181.8</ele>
        <time>2012-07-19T20:03:31Z</time>
      </trkpt>
      <trkpt lat="59.6135915" lon="14.6426197">
        <ele>180.8</ele>
        <time>2012-07-19T20:03:36Z</time>
      </trkpt>
      <trkpt lat="59.6131931" lon="14.6429174">
        <ele>177.8</ele>
        <time>2012-07-19T20:03:41Z</time>
      </trkpt>
      <trkpt lat="59.6128424" lon="14.6432413">
        <ele>176.8</ele>
        <time>2012-07-19T20:03:46Z</time>
      </trkpt>
      <trkpt lat="59.6125172" lon="14.6436432">
        <ele>179.6</ele>
        <time>2012-07-19T20:03:51Z</time>
      </trkpt>
      <trkpt lat="59.612188" lon="14.6441215">
        <ele>183.2</ele>
        <time>2012-07-19T20:03:57Z</time>
      </trkpt>
      <trkpt lat="59.6119192" lon="14.6446257">
        <ele>183.2</ele>
        <time>2012-07-19T20:04:03Z</time>
      </trkpt>
      <trkpt lat="59.6116519" lon="14.6452036">
        <ele>185.2</ele>
        <time>2012-07-19T20:04:10Z</time>
      </trkpt>
      <trkpt lat="59.6113894" lon="14.6457545">
        <ele>188.4</ele>
        <time>2012-07-19T20:04:17Z</time>
      </trkpt>
      <trkpt lat="59.6111179" lon="14.6462949">
        <ele>189</ele>
        <time>2012-07-19T20:04:24Z</time>
      </trkpt>
      <trkpt lat="59.6108366" lon="14.6468275">
        <ele>192.6</ele>
        <time>2012-07-19T20:04:31Z</time>
      </trkpt>
      <trkpt lat="59.6105372" lon="14.6472522">
        <ele>194.8</ele>
        <time>2012-07-19T20:04:38Z</time>
      </trkpt>
      <trkpt lat="59.6102022" lon="14.6476628">
        <ele>196.4</ele>
        <time>2012-07-19T20:04:46Z</time>
      </trkpt>
      <trkpt lat="59.6098567" lon="14.648039">
        <ele>197.2</ele>
        <time>2012-07-19T20:04:54Z</time>
      </trkpt>
      <trkpt lat="59.6095145" lon="14.6483678">
        <ele>198.8</ele>
        <time>2012-07-19T20:05:05Z</time>
      </trkpt>
      <trkpt lat="59.6091519" lon="14.64867">
        <ele>201.8</ele>
        <time>2012-07-19T20:05:13Z</time>
      </trkpt>
      <trkpt lat="59.6088034" lon="14.6490029">
        <ele>206.6</ele>
        <time>2012-07-19T20:05:20Z</time>
      </trkpt>
      <trkpt lat="59.6084294" lon="14.6493111">
        <ele>208.6</ele>
        <time>2012-07-19T20:05:28Z</time>
      </trkpt>
      <trkpt lat="59.6080749" lon="14.649633">
        <ele>211.4</ele>
        <time>2012-07-19T20:05:36Z</time>
      </trkpt>
      <trkpt lat="59.6077429" lon="14.6499468">
        <ele>213.4</ele>
        <time>2012-07-19T20:05:43Z</time>
      </trkpt>
      <trkpt lat="59.6073924" lon="14.6502974">
        <ele>214.4</ele>
        <time>2012-07-19T20:05:51Z</time>
      </trkpt>
      <trkpt lat="59.607066" lon="14.6506834">
        <ele>214.6</ele>
        <time>2012-07-19T20:05:59Z</time>
      </trkpt>
      <trkpt lat="59.6067708" lon="14.6511212">
        <ele>215.6</ele>
        <time>2012-07-19T20:06:07Z</time>
      </trkpt>
      <trkpt lat="59.6064878" lon="14.6515837">
        <ele>218.6</ele>
        <time>2012-07-19T20:06:14Z</time>
      </trkpt>
      <trkpt lat="59.6062263" lon="14.6521355">
        <ele>219</ele>
        <time>2012-07-19T20:06:22Z</time>
      </trkpt>
      <trkpt lat="59.6061743" lon="14.6522748">
        <ele>220</ele>
        <time>2012-07-19T20:06:24Z</time>
      </trkpt>
      <trkpt lat="59.6059892" lon="14.6526768">
        <ele>219.8</ele>
        <time>2012-07-19T20:06:30Z</time>
      </trkpt>
      <trkpt lat="59.6057185" lon="14.6532609">
        <ele>222.6</ele>
        <time>2012-07-19T20:06:38Z</time>
      </trkpt>
      <trkpt lat="59.6054555" lon="14.6538204">
        <ele>224.6</ele>
        <time>2012-07-19T20:06:45Z</time>
      </trkpt>
      <trkpt lat="59.6052075" lon="14.6543883">
        <ele>226</ele>
        <time>2012-07-19T20:06:52Z</time>
      </trkpt>
      <trkpt lat="59.6049618" lon="14.6549628">
        <ele>227.8</ele>
        <time>2012-07-19T20:06:59Z</time>
      </trkpt>
      <trkpt lat="59.6046928" lon="14.6555563">
        <ele>227.4</ele>
        <time>2012-07-19T20:07:06Z</time>
      </trkpt>
      <trkpt lat="59.6044382" lon="14.6561349">
        <ele>228.2</ele>
        <time>2012-07-19T20:07:13Z</time>
      </trkpt>
      <trkpt lat="59.6041989" lon="14.6566908">
        <ele>227</ele>
        <time>2012-07-19T20:07:19Z</time>
      </trkpt>
      <trkpt lat="59.6039569" lon="14.6572425">
        <ele>229.2</ele>
        <time>2012-07-19T20:07:25Z</time>
      </trkpt>
      <trkpt lat="59.603696" lon="14.6578191">
        <ele>234</ele>
        <time>2012-07-19T20:07:31Z</time>
      </trkpt>
      <trkpt lat="59.6034387" lon="14.6583951">
        <ele>234.6</ele>
        <time>2012-07-19T20:07:37Z</time>
      </trkpt>
      <trkpt lat="59.6031794" lon="14.6589726">
        <ele>237.8</ele>
        <time>2012-07-19T20:07:43Z</time>
      </trkpt>
      <trkpt lat="59.6029317" lon="14.6595508">
        <ele>238.8</ele>
        <time>2012-07-19T20:07:49Z</time>
      </trkpt>
      <trkpt lat="59.6026791" lon="14.66011">
        <ele>238.6</ele>
        <time>2012-07-19T20:07:55Z</time>
      </trkpt>
      <trkpt lat="59.6024229" lon="14.6607278">
        <ele>240.4</ele>
        <time>2012-07-19T20:08:01Z</time>
      </trkpt>
      <trkpt lat="59.6021574" lon="14.6613312">
        <ele>239.4</ele>
        <time>2012-07-19T20:08:07Z</time>
      </trkpt>
      <trkpt lat="59.6018869" lon="14.6618994">
        <ele>237.8</ele>
        <time>2012-07-19T20:08:13Z</time>
      </trkpt>
      <trkpt lat="59.6016144" lon="14.6625017">
        <ele>237.2</ele>
        <time>2012-07-19T20:08:19Z</time>
      </trkpt>
      <trkpt lat="59.6013534" lon="14.6630803">
        <ele>235.6</ele>
        <time>2012-07-19T20:08:24Z</time>
      </trkpt>
      <trkpt lat="59.6011026" lon="14.6636664">
        <ele>234.2</ele>
        <time>2012-07-19T20:08:29Z</time>
      </trkpt>
      <trkpt lat="59.6008401" lon="14.6642196">
        <ele>233</ele>
        <time>2012-07-19T20:08:34Z</time>
      </trkpt>
      <trkpt lat="59.6005506" lon="14.6648439">
        <ele>232</ele>
        <time>2012-07-19T20:08:40Z</time>
      </trkpt>
      <trkpt lat="59.6002661" lon="14.6654825">
        <ele>233</ele>
        <time>2012-07-19T20:08:46Z</time>
      </trkpt>
      <trkpt lat="59.5999851" lon="14.6660952">
        <ele>232.6</ele>
        <time>2012-07-19T20:08:51Z</time>
      </trkpt>
      <trkpt lat="59.5997109" lon="14.6667321">
        <ele>230.2</ele>
        <time>2012-07-19T20:08:56Z</time>
      </trkpt>
      <trkpt lat="59.5994504" lon="14.6673644">
        <ele>228.8</ele>
        <time>2012-07-19T20:09:01Z</time>
      </trkpt>
      <trkpt lat="59.5991793" lon="14.6679762">
        <ele>230.4</ele>
        <time>2012-07-19T20:09:06Z</time>
      </trkpt>
      <trkpt lat="59.5989052" lon="14.6685826">
        <ele>230.2</ele>
        <time>2012-07-19T20:09:11Z</time>
      </trkpt>
      <trkpt lat="59.5986376" lon="14.6691802">
        <ele>230.4</ele>
        <time>2012-07-19T20:09:16Z</time>
      </trkpt>
      <trkpt lat="59.5983754" lon="14.6697851">
        <ele>230.6</ele>
        <time>2012-07-19T20:09:21Z</time>
      </trkpt>
      <trkpt lat="59.5981126" lon="14.670413">
        <ele>230.6</ele>
        <time>2012-07-19T20:09:26Z</time>
      </trkpt>
      <trkpt lat="59.5978424" lon="14.6710454">
        <ele>230</ele>
        <time>2012-07-19T20:09:31Z</time>
      </trkpt>
      <trkpt lat="59.5975248" lon="14.6716748">
        <ele>237.2</ele>
        <time>2012-07-19T20:09:36Z</time>
      </trkpt>
      <trkpt lat="59.5971948" lon="14.6722669">
        <ele>239.6</ele>
        <time>2012-07-19T20:09:41Z</time>
      </trkpt>
      <trkpt lat="59.5968373" lon="14.6727923">
        <ele>239.2</ele>
        <time>2012-07-19T20:09:46Z</time>
      </trkpt>
      <trkpt lat="59.596471" lon="14.6732527">
        <ele>237</ele>
        <time>2012-07-19T20:09:51Z</time>
      </trkpt>
      <trkpt lat="59.5961006" lon="14.6737172">
        <ele>235.4</ele>
        <time>2012-07-19T20:09:56Z</time>
      </trkpt>
      <trkpt lat="59.5957143" lon="14.6742151">
        <ele>234.4</ele>
        <time>2012-07-19T20:10:01Z</time>
      </trkpt>
      <trkpt lat="59.5953788" lon="14.6746564">
        <ele>233</ele>
        <time>2012-07-19T20:10:05Z</time>
      </trkpt>
      <trkpt lat="59.5950384" lon="14.6751848">
        <ele>232.4</ele>
        <time>2012-07-19T20:10:09Z</time>
      </trkpt>
      <trkpt lat="59.5947082" lon="14.675779">
        <ele>231</ele>
        <time>2012-07-19T20:10:13Z</time>
      </trkpt>
      <trkpt lat="59.5944173" lon="14.6763932">
        <ele>231.2</ele>
        <time>2012-07-19T20:10:17Z</time>
      </trkpt>
      <trkpt lat="59.5941765" lon="14.6770272">
        <ele>230.8</ele>
        <time>2012-07-19T20:10:21Z</time>
      </trkpt>
      <trkpt lat="59.5939731" lon="14.6776853">
        <ele>231</ele>
        <time>2012-07-19T20:10:25Z</time>
      </trkpt>
      <trkpt lat="59.5937841" lon="14.6783913">
        <ele>231.4</ele>
        <time>2012-07-19T20:10:29Z</time>
      </trkpt>
      <trkpt lat="59.5936029" lon="14.6790877">
        <ele>231.4</ele>
        <time>2012-07-19T20:10:33Z</time>
      </trkpt>
      <trkpt lat="59.5934315" lon="14.6797677">
        <ele>231.4</ele>
        <time>2012-07-19T20:10:37Z</time>
      </trkpt>
      <trkpt lat="59.593259" lon="14.6804385">
        <ele>230.8</ele>
        <time>2012-07-19T20:10:41Z</time>
      </trkpt>
      <trkpt lat="59.593086" lon="14.6811338">
        <ele>229.6</ele>
        <time>2012-07-19T20:10:45Z</time>
      </trkpt>
      <trkpt lat="59.5929088" lon="14.6818407">
        <ele>226.8</ele>
        <time>2012-07-19T20:10:49Z</time>
      </trkpt>
      <trkpt lat="59.5927253" lon="14.6825713">
        <ele>224.4</ele>
        <time>2012-07-19T20:10:53Z</time>
      </trkpt>
      <trkpt lat="59.5925322" lon="14.6833371">
        <ele>223</ele>
        <time>2012-07-19T20:10:57Z</time>
      </trkpt>
      <trkpt lat="59.5923395" lon="14.68409">
        <ele>221.6</ele>
        <time>2012-07-19T20:11:01Z</time>
      </trkpt>
      <trkpt lat="59.5921352" lon="14.6848303">
        <ele>220.2</ele>
        <time>2012-07-19T20:11:05Z</time>
      </trkpt>
      <trkpt lat="59.5919448" lon="14.6855563">
        <ele>219.2</ele>
        <time>2012-07-19T20:11:09Z</time>
      </trkpt>
      <trkpt lat="59.5917605" lon="14.6862844">
        <ele>218.4</ele>
        <time>2012-07-19T20:11:13Z</time>
      </trkpt>
      <trkpt lat="59.5915832" lon="14.6869845">
        <ele>218.2</ele>
        <time>2012-07-19T20:11:17Z</time>
      </trkpt>
      <trkpt lat="59.5914162" lon="14.6876322">
        <ele>217</ele>
        <time>2012-07-19T20:11:21Z</time>
      </trkpt>
      <trkpt lat="59.5912116" lon="14.6883354">
        <ele>215.6</ele>
        <time>2012-07-19T20:11:26Z</time>
      </trkpt>
      <trkpt lat="59.5909666" lon="14.6890256">
        <ele>214</ele>
        <time>2012-07-19T20:11:31Z</time>
      </trkpt>
      <trkpt lat="59.5907073" lon="14.6895394">
        <ele>216.2</ele>
        <time>2012-07-19T20:11:35Z</time>
      </trkpt>
      <trkpt lat="59.5904332" lon="14.6900492">
        <ele>218.2</ele>
        <time>2012-07-19T20:11:39Z</time>
      </trkpt>
      <trkpt lat="59.5901629" lon="14.6905857">
        <ele>219.2</ele>
        <time>2012-07-19T20:11:43Z</time>
      </trkpt>
      <trkpt lat="59.5898899" lon="14.6911199">
        <ele>219</ele>
        <time>2012-07-19T20:11:47Z</time>
      </trkpt>
      <trkpt lat="59.5896121" lon="14.6916755">
        <ele>218.6</ele>
        <time>2012-07-19T20:11:51Z</time>
      </trkpt>
      <trkpt lat="59.5893267" lon="14.6922046">
        <ele>216.6</ele>
        <time>2012-07-19T20:11:55Z</time>
      </trkpt>
      <trkpt lat="59.589019" lon="14.6928035">
        <ele>216.8</ele>
        <time>2012-07-19T20:12:00Z</time>
      </trkpt>
      <trkpt lat="59.588763" lon="14.6933021">
        <ele>218.4</ele>
        <time>2012-07-19T20:12:05Z</time>
      </trkpt>
      <trkpt lat="59.5885089" lon="14.6938212">
        <ele>220.6</ele>
        <time>2012-07-19T20:12:11Z</time>
      </trkpt>
      <trkpt lat="59.5882641" lon="14.6943143">
        <ele>222</ele>
        <time>2012-07-19T20:12:17Z</time>
      </trkpt>
      <trkpt lat="59.5880212" lon="14.6948014">
        <ele>222.8</ele>
        <time>2012-07-19T20:12:23Z</time>
      </trkpt>
      <trkpt lat="59.587977" lon="14.6948836">
        <ele>222.6</ele>
        <time>2012-07-19T20:12:24Z</time>
      </trkpt>
      <trkpt lat="59.5877561" lon="14.6953062">
        <ele>221</ele>
        <time>2012-07-19T20:12:29Z</time>
      </trkpt>
      <trkpt lat="59.5874987" lon="14.6958662">
        <ele>218.8</ele>
        <time>2012-07-19T20:12:35Z</time>
      </trkpt>
      <trkpt lat="59.5872318" lon="14.6963685">
        <ele>218</ele>
        <time>2012-07-19T20:12:40Z</time>
      </trkpt>
      <trkpt lat="59.5869705" lon="14.6968708">
        <ele>216.8</ele>
        <time>2012-07-19T20:12:45Z</time>
      </trkpt>
      <trkpt lat="59.5867124" lon="14.697366">
        <ele>215.6</ele>
        <time>2012-07-19T20:12:50Z</time>
      </trkpt>
      <trkpt lat="59.5864211" lon="14.6979777">
        <ele>215.8</ele>
        <time>2012-07-19T20:12:56Z</time>
      </trkpt>
      <trkpt lat="59.5861607" lon="14.6985089">
        <ele>214.4</ele>
        <time>2012-07-19T20:13:01Z</time>
      </trkpt>
      <trkpt lat="59.5858973" lon="14.6990501">
        <ele>214</ele>
        <time>2012-07-19T20:13:06Z</time>
      </trkpt>
      <trkpt lat="59.5856324" lon="14.6995891">
        <ele>213.8</ele>
        <time>2012-07-19T20:13:11Z</time>
      </trkpt>
      <trkpt lat="59.5853283" lon="14.700154">
        <ele>211.8</ele>
        <time>2012-07-19T20:13:16Z</time>
      </trkpt>
      <trkpt lat="59.5850366" lon="14.7007102">
        <ele>210.6</ele>
        <time>2012-07-19T20:13:21Z</time>
      </trkpt>
      <trkpt lat="59.5847517" lon="14.7012557">
        <ele>212.2</ele>
        <time>2012-07-19T20:13:26Z</time>
      </trkpt>
      <trkpt lat="59.5844803" lon="14.7017922">
        <ele>212.8</ele>
        <time>2012-07-19T20:13:31Z</time>
      </trkpt>
      <trkpt lat="59.5842088" lon="14.7023105">
        <ele>213.4</ele>
        <time>2012-07-19T20:13:36Z</time>
      </trkpt>
      <trkpt lat="59.5839422" lon="14.7028311">
        <ele>214</ele>
        <time>2012-07-19T20:13:41Z</time>
      </trkpt>
      <trkpt lat="59.583679" lon="14.7033437">
        <ele>214</ele>
        <time>2012-07-19T20:13:46Z</time>
      </trkpt>
      <trkpt lat="59.5834209" lon="14.7038511">
        <ele>214.4</ele>
        <time>2012-07-19T20:13:51Z</time>
      </trkpt>
      <trkpt lat="59.5831656" lon="14.7043752">
        <ele>215.8</ele>
        <time>2012-07-19T20:13:56Z</time>
      </trkpt>
      <trkpt lat="59.5829035" lon="14.7049022">
        <ele>218</ele>
        <time>2012-07-19T20:14:01Z</time>
      </trkpt>
      <trkpt lat="59.5825921" lon="14.7054895">
        <ele>217.8</ele>
        <time>2012-07-19T20:14:07Z</time>
      </trkpt>
      <trkpt lat="59.5823311" lon="14.7060218">
        <ele>218.2</ele>
        <time>2012-07-19T20:14:12Z</time>
      </trkpt>
      <trkpt lat="59.5820585" lon="14.706545">
        <ele>218.6</ele>
        <time>2012-07-19T20:14:17Z</time>
      </trkpt>
      <trkpt lat="59.5817921" lon="14.7070733">
        <ele>219</ele>
        <time>2012-07-19T20:14:22Z</time>
      </trkpt>
      <trkpt lat="59.5815209" lon="14.7076325">
        <ele>218.4</ele>
        <time>2012-07-19T20:14:27Z</time>
      </trkpt>
      <trkpt lat="59.5812324" lon="14.7082106">
        <ele>217.4</ele>
        <time>2012-07-19T20:14:32Z</time>
      </trkpt>
      <trkpt lat="59.580919" lon="14.7087679">
        <ele>217.4</ele>
        <time>2012-07-19T20:14:37Z</time>
      </trkpt>
      <trkpt lat="59.5806017" lon="14.7092953">
        <ele>216.4</ele>
        <time>2012-07-19T20:14:42Z</time>
      </trkpt>
      <trkpt lat="59.5802602" lon="14.7097894">
        <ele>215.6</ele>
        <time>2012-07-19T20:14:47Z</time>
      </trkpt>
      <trkpt lat="59.5798902" lon="14.710266">
        <ele>215.4</ele>
        <time>2012-07-19T20:14:52Z</time>
      </trkpt>
      <trkpt lat="59.5795238" lon="14.7107043">
        <ele>216</ele>
        <time>2012-07-19T20:14:57Z</time>
      </trkpt>
      <trkpt lat="59.5791428" lon="14.711132">
        <ele>216.8</ele>
        <time>2012-07-19T20:15:02Z</time>
      </trkpt>
      <trkpt lat="59.5787521" lon="14.7115549">
        <ele>217.6</ele>
        <time>2012-07-19T20:15:07Z</time>
      </trkpt>
      <trkpt lat="59.5784293" lon="14.7119092">
        <ele>219</ele>
        <time>2012-07-19T20:15:11Z</time>
      </trkpt>
      <trkpt lat="59.5780942" lon="14.7122661">
        <ele>218</ele>
        <time>2012-07-19T20:15:15Z</time>
      </trkpt>
      <trkpt lat="59.5777558" lon="14.7126442">
        <ele>216.8</ele>
        <time>2012-07-19T20:15:19Z</time>
      </trkpt>
      <trkpt lat="59.5774115" lon="14.7130142">
        <ele>216.2</ele>
        <time>2012-07-19T20:15:23Z</time>
      </trkpt>
      <trkpt lat="59.577071" lon="14.7133783">
        <ele>213.6</ele>
        <time>2012-07-19T20:15:27Z</time>
      </trkpt>
      <trkpt lat="59.5767376" lon="14.7137363">
        <ele>211.8</ele>
        <time>2012-07-19T20:15:31Z</time>
      </trkpt>
      <trkpt lat="59.5763869" lon="14.7141232">
        <ele>209.4</ele>
        <time>2012-07-19T20:15:35Z</time>
      </trkpt>
      <trkpt lat="59.5760011" lon="14.7145434">
        <ele>206.8</ele>
        <time>2012-07-19T20:15:39Z</time>
      </trkpt>
      <trkpt lat="59.5755954" lon="14.7149908">
        <ele>203.8</ele>
        <time>2012-07-19T20:15:43Z</time>
      </trkpt>
      <trkpt lat="59.5751588" lon="14.7154138">
        <ele>197.4</ele>
        <time>2012-07-19T20:15:47Z</time>
      </trkpt>
      <trkpt lat="59.5747208" lon="14.7158433">
        <ele>193.6</ele>
        <time>2012-07-19T20:15:51Z</time>
      </trkpt>
      <trkpt lat="59.5743976" lon="14.7161826">
        <ele>192.2</ele>
        <time>2012-07-19T20:15:54Z</time>
      </trkpt>
      <trkpt lat="59.5740743" lon="14.7165294">
        <ele>191</ele>
        <time>2012-07-19T20:15:57Z</time>
      </trkpt>
      <trkpt lat="59.5737476" lon="14.7168697">
        <ele>189.6</ele>
        <time>2012-07-19T20:16:00Z</time>
      </trkpt>
      <trkpt lat="59.5734294" lon="14.7172053">
        <ele>187.2</ele>
        <time>2012-07-19T20:16:03Z</time>
      </trkpt>
      <trkpt lat="59.5731074" lon="14.7175546">
        <ele>186.8</ele>
        <time>2012-07-19T20:16:06Z</time>
      </trkpt>
      <trkpt lat="59.5727846" lon="14.7178844">
        <ele>185.8</ele>
        <time>2012-07-19T20:16:09Z</time>
      </trkpt>
      <trkpt lat="59.572466" lon="14.718221">
        <ele>184.8</ele>
        <time>2012-07-19T20:16:12Z</time>
      </trkpt>
      <trkpt lat="59.5721424" lon="14.7185552">
        <ele>185</ele>
        <time>2012-07-19T20:16:15Z</time>
      </trkpt>
      <trkpt lat="59.5717215" lon="14.7190062">
        <ele>185.6</ele>
        <time>2012-07-19T20:16:19Z</time>
      </trkpt>
      <trkpt lat="59.5713337" lon="14.7194388">
        <ele>186</ele>
        <time>2012-07-19T20:16:23Z</time>
      </trkpt>
      <trkpt lat="59.5709805" lon="14.7198697">
        <ele>186.2</ele>
        <time>2012-07-19T20:16:27Z</time>
      </trkpt>
      <trkpt lat="59.5706572" lon="14.720271">
        <ele>186</ele>
        <time>2012-07-19T20:16:31Z</time>
      </trkpt>
      <trkpt lat="59.5703525" lon="14.7206694">
        <ele>185.8</ele>
        <time>2012-07-19T20:16:35Z</time>
      </trkpt>
      <trkpt lat="59.5700704" lon="14.7210957">
        <ele>186</ele>
        <time>2012-07-19T20:16:39Z</time>
      </trkpt>
      <trkpt lat="59.5697792" lon="14.7215385">
        <ele>185</ele>
        <time>2012-07-19T20:16:43Z</time>
      </trkpt>
      <trkpt lat="59.5694907" lon="14.7220021">
        <ele>187.6</ele>
        <time>2012-07-19T20:16:47Z</time>
      </trkpt>
      <trkpt lat="59.5692146" lon="14.7224964">
        <ele>193.4</ele>
        <time>2012-07-19T20:16:51Z</time>
      </trkpt>
      <trkpt lat="59.5689617" lon="14.7230091">
        <ele>196.6</ele>
        <time>2012-07-19T20:16:55Z</time>
      </trkpt>
      <trkpt lat="59.5687234" lon="14.7235337">
        <ele>197</ele>
        <time>2012-07-19T20:16:59Z</time>
      </trkpt>
      <trkpt lat="59.5684836" lon="14.7240689">
        <ele>196.8</ele>
        <time>2012-07-19T20:17:03Z</time>
      </trkpt>
      <trkpt lat="59.5682441" lon="14.7246116">
        <ele>196.4</ele>
        <time>2012-07-19T20:17:07Z</time>
      </trkpt>
      <trkpt lat="59.5680008" lon="14.7251574">
        <ele>196.2</ele>
        <time>2012-07-19T20:17:11Z</time>
      </trkpt>
      <trkpt lat="59.567747" lon="14.7256984">
        <ele>195.4</ele>
        <time>2012-07-19T20:17:15Z</time>
      </trkpt>
      <trkpt lat="59.5675033" lon="14.7262212">
        <ele>195</ele>
        <time>2012-07-19T20:17:19Z</time>
      </trkpt>
      <trkpt lat="59.5672496" lon="14.7267465">
        <ele>194.4</ele>
        <time>2012-07-19T20:17:23Z</time>
      </trkpt>
      <trkpt lat="59.5670076" lon="14.7272897">
        <ele>194.6</ele>
        <time>2012-07-19T20:17:27Z</time>
      </trkpt>
      <trkpt lat="59.5667074" lon="14.7279292">
        <ele>193.8</ele>
        <time>2012-07-19T20:17:32Z</time>
      </trkpt>
      <trkpt lat="59.5664225" lon="14.7285596">
        <ele>192.6</ele>
        <time>2012-07-19T20:17:37Z</time>
      </trkpt>
      <trkpt lat="59.5661425" lon="14.7291657">
        <ele>191.6</ele>
        <time>2012-07-19T20:17:42Z</time>
      </trkpt>
      <trkpt lat="59.5658605" lon="14.7297298">
        <ele>187.8</ele>
        <time>2012-07-19T20:17:47Z</time>
      </trkpt>
      <trkpt lat="59.5656049" lon="14.7302851">
        <ele>187.2</ele>
        <time>2012-07-19T20:17:52Z</time>
      </trkpt>
      <trkpt lat="59.5653365" lon="14.7308482">
        <ele>184.8</ele>
        <time>2012-07-19T20:17:57Z</time>
      </trkpt>
      <trkpt lat="59.5650829" lon="14.7313963">
        <ele>185.2</ele>
        <time>2012-07-19T20:18:02Z</time>
      </trkpt>
      <trkpt lat="59.5648331" lon="14.731949">
        <ele>184.2</ele>
        <time>2012-07-19T20:18:07Z</time>
      </trkpt>
      <trkpt lat="59.5645582" lon="14.7325346">
        <ele>185</ele>
        <time>2012-07-19T20:18:12Z</time>
      </trkpt>
      <trkpt lat="59.5643193" lon="14.7330596">
        <ele>185.2</ele>
        <time>2012-07-19T20:18:16Z</time>
      </trkpt>
      <trkpt lat="59.5640547" lon="14.7336304">
        <ele>185.6</ele>
        <time>2012-07-19T20:18:20Z</time>
      </trkpt>
      <trkpt lat="59.5637894" lon="14.7342452">
        <ele>184.4</ele>
        <time>2012-07-19T20:18:24Z</time>
      </trkpt>
      <trkpt lat="59.5635357" lon="14.7348586">
        <ele>184.8</ele>
        <time>2012-07-19T20:18:28Z</time>
      </trkpt>
      <trkpt lat="59.5632496" lon="14.7354311">
        <ele>180.2</ele>
        <time>2012-07-19T20:18:32Z</time>
      </trkpt>
      <trkpt lat="59.5629787" lon="14.7360054">
        <ele>177.8</ele>
        <time>2012-07-19T20:18:36Z</time>
      </trkpt>
      <trkpt lat="59.562726" lon="14.7365669">
        <ele>178</ele>
        <time>2012-07-19T20:18:40Z</time>
      </trkpt>
      <trkpt lat="59.5624664" lon="14.7371032">
        <ele>176.2</ele>
        <time>2012-07-19T20:18:44Z</time>
      </trkpt>
      <trkpt lat="59.5622292" lon="14.7376336">
        <ele>175</ele>
        <time>2012-07-19T20:18:48Z</time>
      </trkpt>
      <trkpt lat="59.5619354" lon="14.7382641">
        <ele>173.6</ele>
        <time>2012-07-19T20:18:53Z</time>
      </trkpt>
      <trkpt lat="59.5616597" lon="14.7388643">
        <ele>171.8</ele>
        <time>2012-07-19T20:18:58Z</time>
      </trkpt>
      <trkpt lat="59.5613826" lon="14.7394614">
        <ele>173.2</ele>
        <time>2012-07-19T20:19:03Z</time>
      </trkpt>
      <trkpt lat="59.5610986" lon="14.7400744">
        <ele>174.4</ele>
        <time>2012-07-19T20:19:08Z</time>
      </trkpt>
      <trkpt lat="59.5608019" lon="14.7406976">
        <ele>175</ele>
        <time>2012-07-19T20:19:13Z</time>
      </trkpt>
      <trkpt lat="59.560471" lon="14.7412428">
        <ele>173.8</ele>
        <time>2012-07-19T20:19:18Z</time>
      </trkpt>
      <trkpt lat="59.5601415" lon="14.7417258">
        <ele>175</ele>
        <time>2012-07-19T20:19:23Z</time>
      </trkpt>
      <trkpt lat="59.5598095" lon="14.7421852">
        <ele>175</ele>
        <time>2012-07-19T20:19:28Z</time>
      </trkpt>
      <trkpt lat="59.5594617" lon="14.7425763">
        <ele>176.6</ele>
        <time>2012-07-19T20:19:33Z</time>
      </trkpt>
      <trkpt lat="59.5591055" lon="14.7429245">
        <ele>177</ele>
        <time>2012-07-19T20:19:38Z</time>
      </trkpt>
      <trkpt lat="59.558759" lon="14.7432584">
        <ele>176.6</ele>
        <time>2012-07-19T20:19:43Z</time>
      </trkpt>
      <trkpt lat="59.5584283" lon="14.7435742">
        <ele>175.4</ele>
        <time>2012-07-19T20:19:48Z</time>
      </trkpt>
      <trkpt lat="59.5580784" lon="14.7439196">
        <ele>175.4</ele>
        <time>2012-07-19T20:19:53Z</time>
      </trkpt>
      <trkpt lat="59.5577277" lon="14.7442603">
        <ele>175</ele>
        <time>2012-07-19T20:19:58Z</time>
      </trkpt>
      <trkpt lat="59.5573838" lon="14.7445904">
        <ele>175</ele>
        <time>2012-07-19T20:20:03Z</time>
      </trkpt>
      <trkpt lat="59.5570458" lon="14.7449178">
        <ele>176.8</ele>
        <time>2012-07-19T20:20:08Z</time>
      </trkpt>
      <trkpt lat="59.5567123" lon="14.7452419">
        <ele>176.8</ele>
        <time>2012-07-19T20:20:13Z</time>
      </trkpt>
      <trkpt lat="59.5563975" lon="14.7455886">
        <ele>175.8</ele>
        <time>2012-07-19T20:20:18Z</time>
      </trkpt>
      <trkpt lat="59.5560201" lon="14.7460521">
        <ele>180</ele>
        <time>2012-07-19T20:20:24Z</time>
      </trkpt>
      <trkpt lat="59.5557084" lon="14.746505">
        <ele>181.4</ele>
        <time>2012-07-19T20:20:29Z</time>
      </trkpt>
      <trkpt lat="59.5554489" lon="14.7470126">
        <ele>180.4</ele>
        <time>2012-07-19T20:20:34Z</time>
      </trkpt>
      <trkpt lat="59.5552002" lon="14.7475564">
        <ele>179.8</ele>
        <time>2012-07-19T20:20:39Z</time>
      </trkpt>
      <trkpt lat="59.5549519" lon="14.7480975">
        <ele>178.4</ele>
        <time>2012-07-19T20:20:44Z</time>
      </trkpt>
      <trkpt lat="59.5546998" lon="14.748654">
        <ele>178.6</ele>
        <time>2012-07-19T20:20:49Z</time>
      </trkpt>
      <trkpt lat="59.5544512" lon="14.7492484">
        <ele>178</ele>
        <time>2012-07-19T20:20:54Z</time>
      </trkpt>
      <trkpt lat="59.5541995" lon="14.7498815">
        <ele>177.4</ele>
        <time>2012-07-19T20:20:59Z</time>
      </trkpt>
      <trkpt lat="59.5539445" lon="14.7505408">
        <ele>177</ele>
        <time>2012-07-19T20:21:04Z</time>
      </trkpt>
      <trkpt lat="59.553685" lon="14.7511945">
        <ele>175.2</ele>
        <time>2012-07-19T20:21:09Z</time>
      </trkpt>
      <trkpt lat="59.5534101" lon="14.7518709">
        <ele>173.4</ele>
        <time>2012-07-19T20:21:14Z</time>
      </trkpt>
      <trkpt lat="59.553135" lon="14.7525507">
        <ele>173</ele>
        <time>2012-07-19T20:21:19Z</time>
      </trkpt>
      <trkpt lat="59.5528454" lon="14.7532038">
        <ele>171.6</ele>
        <time>2012-07-19T20:21:24Z</time>
      </trkpt>
      <trkpt lat="59.5525341" lon="14.7538333">
        <ele>170.2</ele>
        <time>2012-07-19T20:21:29Z</time>
      </trkpt>
      <trkpt lat="59.5522663" lon="14.7543061">
        <ele>169.8</ele>
        <time>2012-07-19T20:21:33Z</time>
      </trkpt>
      <trkpt lat="59.5519342" lon="14.7548802">
        <ele>169.4</ele>
        <time>2012-07-19T20:21:38Z</time>
      </trkpt>
      <trkpt lat="59.5515966" lon="14.7554377">
        <ele>168.8</ele>
        <time>2012-07-19T20:21:43Z</time>
      </trkpt>
      <trkpt lat="59.5512639" lon="14.7559945">
        <ele>168.2</ele>
        <time>2012-07-19T20:21:48Z</time>
      </trkpt>
      <trkpt lat="59.5509349" lon="14.7565436">
        <ele>170</ele>
        <time>2012-07-19T20:21:53Z</time>
      </trkpt>
      <trkpt lat="59.550625" lon="14.7570848">
        <ele>170.6</ele>
        <time>2012-07-19T20:21:58Z</time>
      </trkpt>
      <trkpt lat="59.5503021" lon="14.7576615">
        <ele>171</ele>
        <time>2012-07-19T20:22:03Z</time>
      </trkpt>
      <trkpt lat="59.5500008" lon="14.7582968">
        <ele>172</ele>
        <time>2012-07-19T20:22:08Z</time>
      </trkpt>
      <trkpt lat="59.5497016" lon="14.7589353">
        <ele>171.2</ele>
        <time>2012-07-19T20:22:13Z</time>
      </trkpt>
      <trkpt lat="59.549403" lon="14.7596027">
        <ele>171.2</ele>
        <time>2012-07-19T20:22:18Z</time>
      </trkpt>
      <trkpt lat="59.549167" lon="14.7601446">
        <ele>170.8</ele>
        <time>2012-07-19T20:22:22Z</time>
      </trkpt>
      <trkpt lat="59.5489266" lon="14.7606938">
        <ele>170.6</ele>
        <time>2012-07-19T20:22:26Z</time>
      </trkpt>
      <trkpt lat="59.5486797" lon="14.761246">
        <ele>170.2</ele>
        <time>2012-07-19T20:22:30Z</time>
      </trkpt>
      <trkpt lat="59.5483939" lon="14.7619121">
        <ele>170.2</ele>
        <time>2012-07-19T20:22:35Z</time>
      </trkpt>
      <trkpt lat="59.5481034" lon="14.7625627">
        <ele>169</ele>
        <time>2012-07-19T20:22:40Z</time>
      </trkpt>
      <trkpt lat="59.5478158" lon="14.7632118">
        <ele>168.6</ele>
        <time>2012-07-19T20:22:45Z</time>
      </trkpt>
      <trkpt lat="59.5475104" lon="14.7638837">
        <ele>168.2</ele>
        <time>2012-07-19T20:22:50Z</time>
      </trkpt>
      <trkpt lat="59.5472519" lon="14.7644598">
        <ele>168.2</ele>
        <time>2012-07-19T20:22:54Z</time>
      </trkpt>
      <trkpt lat="59.5469872" lon="14.7650473">
        <ele>167.8</ele>
        <time>2012-07-19T20:22:58Z</time>
      </trkpt>
      <trkpt lat="59.5467221" lon="14.7656537">
        <ele>167.2</ele>
        <time>2012-07-19T20:23:02Z</time>
      </trkpt>
      <trkpt lat="59.5464635" lon="14.7662695">
        <ele>167.6</ele>
        <time>2012-07-19T20:23:06Z</time>
      </trkpt>
      <trkpt lat="59.5462335" lon="14.7668973">
        <ele>167.4</ele>
        <time>2012-07-19T20:23:10Z</time>
      </trkpt>
      <trkpt lat="59.5460332" lon="14.7675169">
        <ele>167.2</ele>
        <time>2012-07-19T20:23:14Z</time>
      </trkpt>
      <trkpt lat="59.5458217" lon="14.768293">
        <ele>167.2</ele>
        <time>2012-07-19T20:23:19Z</time>
      </trkpt>
      <trkpt lat="59.5456518" lon="14.7690745">
        <ele>167.6</ele>
        <time>2012-07-19T20:23:24Z</time>
      </trkpt>
      <trkpt lat="59.5455088" lon="14.7698782">
        <ele>167.6</ele>
        <time>2012-07-19T20:23:29Z</time>
      </trkpt>
      <trkpt lat="59.5453846" lon="14.7707138">
        <ele>167.6</ele>
        <time>2012-07-19T20:23:34Z</time>
      </trkpt>
      <trkpt lat="59.5452628" lon="14.7715092">
        <ele>165.6</ele>
        <time>2012-07-19T20:23:39Z</time>
      </trkpt>
      <trkpt lat="59.5451514" lon="14.7722722">
        <ele>163</ele>
        <time>2012-07-19T20:23:44Z</time>
      </trkpt>
      <trkpt lat="59.5450438" lon="14.772992">
        <ele>162.2</ele>
        <time>2012-07-19T20:23:49Z</time>
      </trkpt>
      <trkpt lat="59.5449378" lon="14.7737169">
        <ele>161.2</ele>
        <time>2012-07-19T20:23:54Z</time>
      </trkpt>
      <trkpt lat="59.5448301" lon="14.7744382">
        <ele>161.8</ele>
        <time>2012-07-19T20:23:59Z</time>
      </trkpt>
      <trkpt lat="59.5447223" lon="14.7751183">
        <ele>161.8</ele>
        <time>2012-07-19T20:24:04Z</time>
      </trkpt>
      <trkpt lat="59.5445956" lon="14.7759032">
        <ele>161.4</ele>
        <time>2012-07-19T20:24:10Z</time>
      </trkpt>
      <trkpt lat="59.5444969" lon="14.7765839">
        <ele>161.2</ele>
        <time>2012-07-19T20:24:15Z</time>
      </trkpt>
      <trkpt lat="59.544377" lon="14.7772739">
        <ele>164.8</ele>
        <time>2012-07-19T20:24:20Z</time>
      </trkpt>
      <trkpt lat="59.5442326" lon="14.7780176">
        <ele>166</ele>
        <time>2012-07-19T20:24:25Z</time>
      </trkpt>
      <trkpt lat="59.5440772" lon="14.7788056">
        <ele>165.6</ele>
        <time>2012-07-19T20:24:30Z</time>
      </trkpt>
      <trkpt lat="59.5439366" lon="14.7794618">
        <ele>164.8</ele>
        <time>2012-07-19T20:24:34Z</time>
      </trkpt>
      <trkpt lat="59.5437849" lon="14.7801128">
        <ele>164.2</ele>
        <time>2012-07-19T20:24:38Z</time>
      </trkpt>
      <trkpt lat="59.5436246" lon="14.7807459">
        <ele>161.8</ele>
        <time>2012-07-19T20:24:42Z</time>
      </trkpt>
      <trkpt lat="59.5434466" lon="14.781395">
        <ele>158.2</ele>
        <time>2012-07-19T20:24:46Z</time>
      </trkpt>
      <trkpt lat="59.5432441" lon="14.7820463">
        <ele>156.4</ele>
        <time>2012-07-19T20:24:50Z</time>
      </trkpt>
      <trkpt lat="59.5430172" lon="14.7827106">
        <ele>154.8</ele>
        <time>2012-07-19T20:24:54Z</time>
      </trkpt>
      <trkpt lat="59.5427851" lon="14.783369">
        <ele>152.6</ele>
        <time>2012-07-19T20:24:58Z</time>
      </trkpt>
      <trkpt lat="59.542552" lon="14.7840239">
        <ele>151</ele>
        <time>2012-07-19T20:25:02Z</time>
      </trkpt>
      <trkpt lat="59.5423252" lon="14.7846548">
        <ele>153.8</ele>
        <time>2012-07-19T20:25:06Z</time>
      </trkpt>
      <trkpt lat="59.5420578" lon="14.7853426">
        <ele>157.2</ele>
        <time>2012-07-19T20:25:11Z</time>
      </trkpt>
      <trkpt lat="59.5418009" lon="14.7859792">
        <ele>158.6</ele>
        <time>2012-07-19T20:25:16Z</time>
      </trkpt>
      <trkpt lat="59.5415462" lon="14.7865999">
        <ele>159</ele>
        <time>2012-07-19T20:25:21Z</time>
      </trkpt>
      <trkpt lat="59.541298" lon="14.7871687">
        <ele>159.2</ele>
        <time>2012-07-19T20:25:26Z</time>
      </trkpt>
      <trkpt lat="59.5410532" lon="14.7877392">
        <ele>160</ele>
        <time>2012-07-19T20:25:31Z</time>
      </trkpt>
      <trkpt lat="59.5408073" lon="14.7883419">
        <ele>160</ele>
        <time>2012-07-19T20:25:36Z</time>
      </trkpt>
      <trkpt lat="59.5405583" lon="14.7889339">
        <ele>160.2</ele>
        <time>2012-07-19T20:25:41Z</time>
      </trkpt>
      <trkpt lat="59.5403148" lon="14.7895224">
        <ele>160.4</ele>
        <time>2012-07-19T20:25:46Z</time>
      </trkpt>
      <trkpt lat="59.5400426" lon="14.790186">
        <ele>160.4</ele>
        <time>2012-07-19T20:25:52Z</time>
      </trkpt>
      <trkpt lat="59.5398194" lon="14.7907409">
        <ele>160.6</ele>
        <time>2012-07-19T20:25:57Z</time>
      </trkpt>
      <trkpt lat="59.5396021" lon="14.7913133">
        <ele>161</ele>
        <time>2012-07-19T20:26:02Z</time>
      </trkpt>
      <trkpt lat="59.5393909" lon="14.7919361">
        <ele>161</ele>
        <time>2012-07-19T20:26:07Z</time>
      </trkpt>
      <trkpt lat="59.5391903" lon="14.7926154">
        <ele>160</ele>
        <time>2012-07-19T20:26:12Z</time>
      </trkpt>
      <trkpt lat="59.5390015" lon="14.7933496">
        <ele>158.6</ele>
        <time>2012-07-19T20:26:17Z</time>
      </trkpt>
      <trkpt lat="59.5388497" lon="14.7939998">
        <ele>157.2</ele>
        <time>2012-07-19T20:26:21Z</time>
      </trkpt>
      <trkpt lat="59.5386954" lon="14.79468">
        <ele>157.2</ele>
        <time>2012-07-19T20:26:25Z</time>
      </trkpt>
      <trkpt lat="59.5385421" lon="14.795336">
        <ele>158.2</ele>
        <time>2012-07-19T20:26:29Z</time>
      </trkpt>
      <trkpt lat="59.538365" lon="14.7961317">
        <ele>158.8</ele>
        <time>2012-07-19T20:26:34Z</time>
      </trkpt>
      <trkpt lat="59.5381871" lon="14.7968808">
        <ele>159.4</ele>
        <time>2012-07-19T20:26:39Z</time>
      </trkpt>
      <trkpt lat="59.5380166" lon="14.7976347">
        <ele>160.4</ele>
        <time>2012-07-19T20:26:44Z</time>
      </trkpt>
      <trkpt lat="59.5378272" lon="14.798393">
        <ele>162</ele>
        <time>2012-07-19T20:26:49Z</time>
      </trkpt>
      <trkpt lat="59.5376478" lon="14.7991669">
        <ele>162.8</ele>
        <time>2012-07-19T20:26:54Z</time>
      </trkpt>
      <trkpt lat="59.5374662" lon="14.7999407">
        <ele>164</ele>
        <time>2012-07-19T20:26:59Z</time>
      </trkpt>
      <trkpt lat="59.5372875" lon="14.8006919">
        <ele>165</ele>
        <time>2012-07-19T20:27:04Z</time>
      </trkpt>
      <trkpt lat="59.5371186" lon="14.8014108">
        <ele>166.2</ele>
        <time>2012-07-19T20:27:09Z</time>
      </trkpt>
      <trkpt lat="59.5369475" lon="14.8021334">
        <ele>167.8</ele>
        <time>2012-07-19T20:27:14Z</time>
      </trkpt>
      <trkpt lat="59.5367809" lon="14.8028612">
        <ele>167.8</ele>
        <time>2012-07-19T20:27:19Z</time>
      </trkpt>
      <trkpt lat="59.5366077" lon="14.8035928">
        <ele>168.8</ele>
        <time>2012-07-19T20:27:24Z</time>
      </trkpt>
      <trkpt lat="59.5364374" lon="14.8043309">
        <ele>167.6</ele>
        <time>2012-07-19T20:27:29Z</time>
      </trkpt>
      <trkpt lat="59.5362624" lon="14.8050837">
        <ele>166.6</ele>
        <time>2012-07-19T20:27:34Z</time>
      </trkpt>
      <trkpt lat="59.5360842" lon="14.8058792">
        <ele>164</ele>
        <time>2012-07-19T20:27:39Z</time>
      </trkpt>
      <trkpt lat="59.5359225" lon="14.8065551">
        <ele>160.2</ele>
        <time>2012-07-19T20:27:43Z</time>
      </trkpt>
      <trkpt lat="59.5357449" lon="14.8072536">
        <ele>159.2</ele>
        <time>2012-07-19T20:27:47Z</time>
      </trkpt>
      <trkpt lat="59.5355459" lon="14.8079315">
        <ele>158.4</ele>
        <time>2012-07-19T20:27:51Z</time>
      </trkpt>
      <trkpt lat="59.5353251" lon="14.8085543">
        <ele>158</ele>
        <time>2012-07-19T20:27:55Z</time>
      </trkpt>
      <trkpt lat="59.5350853" lon="14.80912">
        <ele>158.2</ele>
        <time>2012-07-19T20:27:59Z</time>
      </trkpt>
      <trkpt lat="59.5348223" lon="14.8096632">
        <ele>158.4</ele>
        <time>2012-07-19T20:28:03Z</time>
      </trkpt>
      <trkpt lat="59.5345453" lon="14.8101802">
        <ele>157.2</ele>
        <time>2012-07-19T20:28:07Z</time>
      </trkpt>
      <trkpt lat="59.5342649" lon="14.8107051">
        <ele>155</ele>
        <time>2012-07-19T20:28:11Z</time>
      </trkpt>
      <trkpt lat="59.5339839" lon="14.8112279">
        <ele>153</ele>
        <time>2012-07-19T20:28:15Z</time>
      </trkpt>
      <trkpt lat="59.5337164" lon="14.8117552">
        <ele>152.2</ele>
        <time>2012-07-19T20:28:19Z</time>
      </trkpt>
      <trkpt lat="59.5334433" lon="14.8122787">
        <ele>150.8</ele>
        <time>2012-07-19T20:28:23Z</time>
      </trkpt>
      <trkpt lat="59.5331707" lon="14.8127999">
        <ele>149.2</ele>
        <time>2012-07-19T20:28:27Z</time>
      </trkpt>
      <trkpt lat="59.5328922" lon="14.8133244">
        <ele>147</ele>
        <time>2012-07-19T20:28:31Z</time>
      </trkpt>
      <trkpt lat="59.532602" lon="14.8138573">
        <ele>145.4</ele>
        <time>2012-07-19T20:28:35Z</time>
      </trkpt>
      <trkpt lat="59.5323146" lon="14.8144088">
        <ele>145</ele>
        <time>2012-07-19T20:28:39Z</time>
      </trkpt>
      <trkpt lat="59.532022" lon="14.8149604">
        <ele>144.2</ele>
        <time>2012-07-19T20:28:43Z</time>
      </trkpt>
      <trkpt lat="59.531737" lon="14.8155568">
        <ele>143.6</ele>
        <time>2012-07-19T20:28:47Z</time>
      </trkpt>
      <trkpt lat="59.5314607" lon="14.816179">
        <ele>142.8</ele>
        <time>2012-07-19T20:28:51Z</time>
      </trkpt>
      <trkpt lat="59.5312055" lon="14.8168015">
        <ele>142.6</ele>
        <time>2012-07-19T20:28:55Z</time>
      </trkpt>
      <trkpt lat="59.5309661" lon="14.8173994">
        <ele>142.6</ele>
        <time>2012-07-19T20:28:59Z</time>
      </trkpt>
      <trkpt lat="59.5307366" lon="14.8179599">
        <ele>143.2</ele>
        <time>2012-07-19T20:29:03Z</time>
      </trkpt>
      <trkpt lat="59.5304663" lon="14.8186232">
        <ele>144</ele>
        <time>2012-07-19T20:29:08Z</time>
      </trkpt>
      <trkpt lat="59.5302028" lon="14.8192824">
        <ele>146.2</ele>
        <time>2012-07-19T20:29:13Z</time>
      </trkpt>
      <trkpt lat="59.5299286" lon="14.8199234">
        <ele>147</ele>
        <time>2012-07-19T20:29:18Z</time>
      </trkpt>
      <trkpt lat="59.5296489" lon="14.8205368">
        <ele>147.2</ele>
        <time>2012-07-19T20:29:23Z</time>
      </trkpt>
      <trkpt lat="59.5293607" lon="14.8211167">
        <ele>147</ele>
        <time>2012-07-19T20:29:28Z</time>
      </trkpt>
      <trkpt lat="59.5290678" lon="14.821657">
        <ele>147</ele>
        <time>2012-07-19T20:29:33Z</time>
      </trkpt>
      <trkpt lat="59.5287821" lon="14.822166">
        <ele>145.4</ele>
        <time>2012-07-19T20:29:38Z</time>
      </trkpt>
      <trkpt lat="59.5285019" lon="14.8226649">
        <ele>145.6</ele>
        <time>2012-07-19T20:29:43Z</time>
      </trkpt>
      <trkpt lat="59.5282143" lon="14.8231544">
        <ele>146</ele>
        <time>2012-07-19T20:29:48Z</time>
      </trkpt>
      <trkpt lat="59.5279466" lon="14.823675">
        <ele>144.8</ele>
        <time>2012-07-19T20:29:53Z</time>
      </trkpt>
      <trkpt lat="59.5276834" lon="14.8241511">
        <ele>145.2</ele>
        <time>2012-07-19T20:29:58Z</time>
      </trkpt>
      <trkpt lat="59.5273693" lon="14.824711">
        <ele>147.2</ele>
        <time>2012-07-19T20:30:04Z</time>
      </trkpt>
      <trkpt lat="59.5270545" lon="14.8252776">
        <ele>147.8</ele>
        <time>2012-07-19T20:30:10Z</time>
      </trkpt>
      <trkpt lat="59.5267832" lon="14.8257636">
        <ele>148</ele>
        <time>2012-07-19T20:30:15Z</time>
      </trkpt>
      <trkpt lat="59.5264916" lon="14.8262859">
        <ele>148.6</ele>
        <time>2012-07-19T20:30:20Z</time>
      </trkpt>
      <trkpt lat="59.5261979" lon="14.8268565">
        <ele>146</ele>
        <time>2012-07-19T20:30:25Z</time>
      </trkpt>
      <trkpt lat="59.5258859" lon="14.82744">
        <ele>145.6</ele>
        <time>2012-07-19T20:30:30Z</time>
      </trkpt>
      <trkpt lat="59.5255913" lon="14.8280458">
        <ele>146.2</ele>
        <time>2012-07-19T20:30:35Z</time>
      </trkpt>
      <trkpt lat="59.5252918" lon="14.8286487">
        <ele>146.4</ele>
        <time>2012-07-19T20:30:40Z</time>
      </trkpt>
      <trkpt lat="59.525017" lon="14.8292857">
        <ele>146.2</ele>
        <time>2012-07-19T20:30:45Z</time>
      </trkpt>
      <trkpt lat="59.5247831" lon="14.8299653">
        <ele>145.6</ele>
        <time>2012-07-19T20:30:50Z</time>
      </trkpt>
      <trkpt lat="59.5245766" lon="14.830622">
        <ele>145.8</ele>
        <time>2012-07-19T20:30:55Z</time>
      </trkpt>
      <trkpt lat="59.5243915" lon="14.8313255">
        <ele>145.6</ele>
        <time>2012-07-19T20:31:00Z</time>
      </trkpt>
      <trkpt lat="59.5242253" lon="14.8320796">
        <ele>145</ele>
        <time>2012-07-19T20:31:05Z</time>
      </trkpt>
      <trkpt lat="59.524061" lon="14.8328697">
        <ele>144.2</ele>
        <time>2012-07-19T20:31:10Z</time>
      </trkpt>
      <trkpt lat="59.5239283" lon="14.8335217">
        <ele>143.6</ele>
        <time>2012-07-19T20:31:14Z</time>
      </trkpt>
      <trkpt lat="59.5237534" lon="14.8343586">
        <ele>141.8</ele>
        <time>2012-07-19T20:31:19Z</time>
      </trkpt>
      <trkpt lat="59.5235949" lon="14.8350947">
        <ele>140</ele>
        <time>2012-07-19T20:31:23Z</time>
      </trkpt>
      <trkpt lat="59.5234385" lon="14.8358747">
        <ele>138.2</ele>
        <time>2012-07-19T20:31:27Z</time>
      </trkpt>
      <trkpt lat="59.5232853" lon="14.8366408">
        <ele>135.4</ele>
        <time>2012-07-19T20:31:31Z</time>
      </trkpt>
      <trkpt lat="59.5231332" lon="14.837387">
        <ele>132.8</ele>
        <time>2012-07-19T20:31:35Z</time>
      </trkpt>
      <trkpt lat="59.5229742" lon="14.8381327">
        <ele>131.4</ele>
        <time>2012-07-19T20:31:39Z</time>
      </trkpt>
      <trkpt lat="59.5228287" lon="14.8388862">
        <ele>130.8</ele>
        <time>2012-07-19T20:31:43Z</time>
      </trkpt>
      <trkpt lat="59.5227006" lon="14.8396332">
        <ele>130.6</ele>
        <time>2012-07-19T20:31:47Z</time>
      </trkpt>
      <trkpt lat="59.5225761" lon="14.8404114">
        <ele>130.6</ele>
        <time>2012-07-19T20:31:51Z</time>
      </trkpt>
      <trkpt lat="59.5224706" lon="14.8411852">
        <ele>130.8</ele>
        <time>2012-07-19T20:31:55Z</time>
      </trkpt>
      <trkpt lat="59.522389" lon="14.8419447">
        <ele>129.8</ele>
        <time>2012-07-19T20:31:59Z</time>
      </trkpt>
      <trkpt lat="59.5223106" lon="14.8427034">
        <ele>129.2</ele>
        <time>2012-07-19T20:32:03Z</time>
      </trkpt>
      <trkpt lat="59.5222403" lon="14.8434692">
        <ele>128.4</ele>
        <time>2012-07-19T20:32:08Z</time>
      </trkpt>
      <trkpt lat="59.5221388" lon="14.8444291">
        <ele>127.6</ele>
        <time>2012-07-19T20:32:12Z</time>
      </trkpt>
      <trkpt lat="59.5220586" lon="14.8452194">
        <ele>126</ele>
        <time>2012-07-19T20:32:16Z</time>
      </trkpt>
      <trkpt lat="59.5219679" lon="14.8460655">
        <ele>125.2</ele>
        <time>2012-07-19T20:32:20Z</time>
      </trkpt>
      <trkpt lat="59.5218903" lon="14.8469205">
        <ele>123.6</ele>
        <time>2012-07-19T20:32:24Z</time>
      </trkpt>
      <trkpt lat="59.5218114" lon="14.8477255">
        <ele>122</ele>
        <time>2012-07-19T20:32:28Z</time>
      </trkpt>
      <trkpt lat="59.5217403" lon="14.8484866">
        <ele>120.6</ele>
        <time>2012-07-19T20:32:32Z</time>
      </trkpt>
      <trkpt lat="59.5216808" lon="14.8492409">
        <ele>120.4</ele>
        <time>2012-07-19T20:32:36Z</time>
      </trkpt>
      <trkpt lat="59.5216144" lon="14.8499851">
        <ele>120.2</ele>
        <time>2012-07-19T20:32:40Z</time>
      </trkpt>
      <trkpt lat="59.5215716" lon="14.8507369">
        <ele>119.4</ele>
        <time>2012-07-19T20:32:44Z</time>
      </trkpt>
      <trkpt lat="59.5215606" lon="14.8515112">
        <ele>118.4</ele>
        <time>2012-07-19T20:32:48Z</time>
      </trkpt>
      <trkpt lat="59.5215792" lon="14.8523064">
        <ele>117.6</ele>
        <time>2012-07-19T20:32:52Z</time>
      </trkpt>
      <trkpt lat="59.5216085" lon="14.8531217">
        <ele>116.6</ele>
        <time>2012-07-19T20:32:56Z</time>
      </trkpt>
      <trkpt lat="59.5216606" lon="14.853951">
        <ele>115.2</ele>
        <time>2012-07-19T20:33:00Z</time>
      </trkpt>
      <trkpt lat="59.52172" lon="14.8547732">
        <ele>115.2</ele>
        <time>2012-07-19T20:33:04Z</time>
      </trkpt>
      <trkpt lat="59.5217767" lon="14.8555896">
        <ele>115.2</ele>
        <time>2012-07-19T20:33:08Z</time>
      </trkpt>
      <trkpt lat="59.5218217" lon="14.8564029">
        <ele>114.8</ele>
        <time>2012-07-19T20:33:12Z</time>
      </trkpt>
      <trkpt lat="59.5218704" lon="14.8571736">
        <ele>114.8</ele>
        <time>2012-07-19T20:33:16Z</time>
      </trkpt>
      <trkpt lat="59.5219125" lon="14.8579195">
        <ele>114.6</ele>
        <time>2012-07-19T20:33:20Z</time>
      </trkpt>
      <trkpt lat="59.5219589" lon="14.8586587">
        <ele>114.2</ele>
        <time>2012-07-19T20:33:24Z</time>
      </trkpt>
      <trkpt lat="59.522001" lon="14.8593874">
        <ele>114.8</ele>
        <time>2012-07-19T20:33:28Z</time>
      </trkpt>
      <trkpt lat="59.5220259" lon="14.860091">
        <ele>114.8</ele>
        <time>2012-07-19T20:33:32Z</time>
      </trkpt>
      <trkpt lat="59.5220373" lon="14.8609514">
        <ele>115.2</ele>
        <time>2012-07-19T20:33:37Z</time>
      </trkpt>
      <trkpt lat="59.5220376" lon="14.861785">
        <ele>116</ele>
        <time>2012-07-19T20:33:42Z</time>
      </trkpt>
      <trkpt lat="59.522035" lon="14.8625891">
        <ele>117.6</ele>
        <time>2012-07-19T20:33:47Z</time>
      </trkpt>
      <trkpt lat="59.5220343" lon="14.863351">
        <ele>118.8</ele>
        <time>2012-07-19T20:33:52Z</time>
      </trkpt>
      <trkpt lat="59.5220326" lon="14.8641243">
        <ele>119.8</ele>
        <time>2012-07-19T20:33:57Z</time>
      </trkpt>
      <trkpt lat="59.5220305" lon="14.8649096">
        <ele>120.8</ele>
        <time>2012-07-19T20:34:02Z</time>
      </trkpt>
      <trkpt lat="59.5220268" lon="14.8656618">
        <ele>122.2</ele>
        <time>2012-07-19T20:34:07Z</time>
      </trkpt>
      <trkpt lat="59.5220264" lon="14.8663809">
        <ele>123.8</ele>
        <time>2012-07-19T20:34:12Z</time>
      </trkpt>
      <trkpt lat="59.522031" lon="14.8672177">
        <ele>123.2</ele>
        <time>2012-07-19T20:34:18Z</time>
      </trkpt>
      <trkpt lat="59.5220224" lon="14.8680322">
        <ele>124.4</ele>
        <time>2012-07-19T20:34:24Z</time>
      </trkpt>
      <trkpt lat="59.5220195" lon="14.8688313">
        <ele>126.2</ele>
        <time>2012-07-19T20:34:30Z</time>
      </trkpt>
      <trkpt lat="59.5220167" lon="14.8696137">
        <ele>127.8</ele>
        <time>2012-07-19T20:34:36Z</time>
      </trkpt>
      <trkpt lat="59.5220181" lon="14.8703836">
        <ele>129.2</ele>
        <time>2012-07-19T20:34:42Z</time>
      </trkpt>
      <trkpt lat="59.522014" lon="14.8711359">
        <ele>130.6</ele>
        <time>2012-07-19T20:34:48Z</time>
      </trkpt>
      <trkpt lat="59.5220052" lon="14.8719472">
        <ele>131.2</ele>
        <time>2012-07-19T20:34:55Z</time>
      </trkpt>
      <trkpt lat="59.5220018" lon="14.8727096">
        <ele>133</ele>
        <time>2012-07-19T20:35:02Z</time>
      </trkpt>
      <trkpt lat="59.5220015" lon="14.8734618">
        <ele>135.8</ele>
        <time>2012-07-19T20:35:09Z</time>
      </trkpt>
      <trkpt lat="59.5219947" lon="14.8742022">
        <ele>138.2</ele>
        <time>2012-07-19T20:35:16Z</time>
      </trkpt>
      <trkpt lat="59.5219907" lon="14.8749436">
        <ele>138.2</ele>
        <time>2012-07-19T20:35:23Z</time>
      </trkpt>
      <trkpt lat="59.52199" lon="14.8756719">
        <ele>139.2</ele>
        <time>2012-07-19T20:35:30Z</time>
      </trkpt>
      <trkpt lat="59.5219905" lon="14.876466">
        <ele>141.4</ele>
        <time>2012-07-19T20:35:37Z</time>
      </trkpt>
      <trkpt lat="59.521983" lon="14.8772818">
        <ele>139.4</ele>
        <time>2012-07-19T20:35:44Z</time>
      </trkpt>
      <trkpt lat="59.5219735" lon="14.8780929">
        <ele>137.6</ele>
        <time>2012-07-19T20:35:51Z</time>
      </trkpt>
      <trkpt lat="59.5219657" lon="14.8789026">
        <ele>134.6</ele>
        <time>2012-07-19T20:35:57Z</time>
      </trkpt>
      <trkpt lat="59.521958" lon="14.8797609">
        <ele>133.2</ele>
        <time>2012-07-19T20:36:03Z</time>
      </trkpt>
      <trkpt lat="59.5219533" lon="14.8805415">
        <ele>133.6</ele>
        <time>2012-07-19T20:36:08Z</time>
      </trkpt>
      <trkpt lat="59.5219584" lon="14.8813128">
        <ele>134.2</ele>
        <time>2012-07-19T20:36:13Z</time>
      </trkpt>
      <trkpt lat="59.5219447" lon="14.8820796">
        <ele>133.4</ele>
        <time>2012-07-19T20:36:18Z</time>
      </trkpt>
      <trkpt lat="59.5219389" lon="14.882879">
        <ele>133.4</ele>
        <time>2012-07-19T20:36:23Z</time>
      </trkpt>
      <trkpt lat="59.5219376" lon="14.8837529">
        <ele>131.6</ele>
        <time>2012-07-19T20:36:28Z</time>
      </trkpt>
      <trkpt lat="59.5219383" lon="14.8844889">
        <ele>130.6</ele>
        <time>2012-07-19T20:36:32Z</time>
      </trkpt>
      <trkpt lat="59.5219352" lon="14.8852482">
        <ele>128.2</ele>
        <time>2012-07-19T20:36:36Z</time>
      </trkpt>
      <trkpt lat="59.5219361" lon="14.8860699">
        <ele>124.8</ele>
        <time>2012-07-19T20:36:40Z</time>
      </trkpt>
      <trkpt lat="59.5219362" lon="14.8869453">
        <ele>121.8</ele>
        <time>2012-07-19T20:36:44Z</time>
      </trkpt>
      <trkpt lat="59.5219325" lon="14.8878193">
        <ele>120.2</ele>
        <time>2012-07-19T20:36:48Z</time>
      </trkpt>
      <trkpt lat="59.52192" lon="14.8886587">
        <ele>120</ele>
        <time>2012-07-19T20:36:52Z</time>
      </trkpt>
      <trkpt lat="59.5219112" lon="14.8894509">
        <ele>120</ele>
        <time>2012-07-19T20:36:56Z</time>
      </trkpt>
      <trkpt lat="59.521911" lon="14.8902196">
        <ele>120.4</ele>
        <time>2012-07-19T20:37:00Z</time>
      </trkpt>
      <trkpt lat="59.5219052" lon="14.8909655">
        <ele>121.2</ele>
        <time>2012-07-19T20:37:04Z</time>
      </trkpt>
      <trkpt lat="59.5219001" lon="14.8916845">
        <ele>121.8</ele>
        <time>2012-07-19T20:37:08Z</time>
      </trkpt>
      <trkpt lat="59.521887" lon="14.8925547">
        <ele>122.8</ele>
        <time>2012-07-19T20:37:13Z</time>
      </trkpt>
      <trkpt lat="59.5218812" lon="14.893267">
        <ele>123.4</ele>
        <time>2012-07-19T20:37:17Z</time>
      </trkpt>
      <trkpt lat="59.5218736" lon="14.8939825">
        <ele>123.4</ele>
        <time>2012-07-19T20:37:21Z</time>
      </trkpt>
      <trkpt lat="59.5218591" lon="14.8948646">
        <ele>124.8</ele>
        <time>2012-07-19T20:37:26Z</time>
      </trkpt>
      <trkpt lat="59.5218371" lon="14.8957487">
        <ele>125.8</ele>
        <time>2012-07-19T20:37:31Z</time>
      </trkpt>
      <trkpt lat="59.5218182" lon="14.8965806">
        <ele>127.2</ele>
        <time>2012-07-19T20:37:36Z</time>
      </trkpt>
      <trkpt lat="59.521786" lon="14.8973861">
        <ele>128.2</ele>
        <time>2012-07-19T20:37:41Z</time>
      </trkpt>
      <trkpt lat="59.5217206" lon="14.8981892">
        <ele>128.6</ele>
        <time>2012-07-19T20:37:46Z</time>
      </trkpt>
      <trkpt lat="59.5216216" lon="14.8989787">
        <ele>126.4</ele>
        <time>2012-07-19T20:37:51Z</time>
      </trkpt>
      <trkpt lat="59.5214903" lon="14.8997184">
        <ele>125.4</ele>
        <time>2012-07-19T20:37:56Z</time>
      </trkpt>
      <trkpt lat="59.5213435" lon="14.9004442">
        <ele>124.6</ele>
        <time>2012-07-19T20:38:01Z</time>
      </trkpt>
      <trkpt lat="59.521162" lon="14.9011356">
        <ele>122.8</ele>
        <time>2012-07-19T20:38:06Z</time>
      </trkpt>
      <trkpt lat="59.5209697" lon="14.901837">
        <ele>121.2</ele>
        <time>2012-07-19T20:38:11Z</time>
      </trkpt>
      <trkpt lat="59.5207864" lon="14.9025197">
        <ele>120.8</ele>
        <time>2012-07-19T20:38:16Z</time>
      </trkpt>
      <trkpt lat="59.520593" lon="14.9032175">
        <ele>121.2</ele>
        <time>2012-07-19T20:38:21Z</time>
      </trkpt>
      <trkpt lat="59.5203998" lon="14.903914">
        <ele>121.6</ele>
        <time>2012-07-19T20:38:26Z</time>
      </trkpt>
      <trkpt lat="59.5202139" lon="14.9045952">
        <ele>122.8</ele>
        <time>2012-07-19T20:38:31Z</time>
      </trkpt>
      <trkpt lat="59.5200389" lon="14.9052412">
        <ele>124.8</ele>
        <time>2012-07-19T20:38:36Z</time>
      </trkpt>
      <trkpt lat="59.5198477" lon="14.9059509">
        <ele>127.6</ele>
        <time>2012-07-19T20:38:42Z</time>
      </trkpt>
      <trkpt lat="59.5196616" lon="14.9066126">
        <ele>128.6</ele>
        <time>2012-07-19T20:38:48Z</time>
      </trkpt>
      <trkpt lat="59.5194933" lon="14.907278">
        <ele>132.6</ele>
        <time>2012-07-19T20:38:54Z</time>
      </trkpt>
      <trkpt lat="59.5193084" lon="14.9079884">
        <ele>136.4</ele>
        <time>2012-07-19T20:39:00Z</time>
      </trkpt>
      <trkpt lat="59.5191535" lon="14.9087291">
        <ele>137.8</ele>
        <time>2012-07-19T20:39:06Z</time>
      </trkpt>
      <trkpt lat="59.5190084" lon="14.9094881">
        <ele>136.6</ele>
        <time>2012-07-19T20:39:12Z</time>
      </trkpt>
      <trkpt lat="59.5188988" lon="14.9101656">
        <ele>134.6</ele>
        <time>2012-07-19T20:39:17Z</time>
      </trkpt>
      <trkpt lat="59.5187874" lon="14.9108965">
        <ele>133</ele>
        <time>2012-07-19T20:39:22Z</time>
      </trkpt>
      <trkpt lat="59.5186852" lon="14.9116783">
        <ele>131</ele>
        <time>2012-07-19T20:39:27Z</time>
      </trkpt>
      <trkpt lat="59.5186019" lon="14.9125125">
        <ele>130</ele>
        <time>2012-07-19T20:39:32Z</time>
      </trkpt>
      <trkpt lat="59.5185434" lon="14.9133317">
        <ele>129.2</ele>
        <time>2012-07-19T20:39:37Z</time>
      </trkpt>
      <trkpt lat="59.5185096" lon="14.9141144">
        <ele>128.6</ele>
        <time>2012-07-19T20:39:42Z</time>
      </trkpt>
      <trkpt lat="59.5184962" lon="14.9148757">
        <ele>129.2</ele>
        <time>2012-07-19T20:39:47Z</time>
      </trkpt>
      <trkpt lat="59.5185011" lon="14.9156501">
        <ele>130.2</ele>
        <time>2012-07-19T20:39:52Z</time>
      </trkpt>
      <trkpt lat="59.5185146" lon="14.9164274">
        <ele>130.2</ele>
        <time>2012-07-19T20:39:57Z</time>
      </trkpt>
      <trkpt lat="59.5185423" lon="14.9171691">
        <ele>129.6</ele>
        <time>2012-07-19T20:40:02Z</time>
      </trkpt>
      <trkpt lat="59.5185847" lon="14.9178701">
        <ele>129.6</ele>
        <time>2012-07-19T20:40:07Z</time>
      </trkpt>
      <trkpt lat="59.5186354" lon="14.9186939">
        <ele>129.8</ele>
        <time>2012-07-19T20:40:13Z</time>
      </trkpt>
      <trkpt lat="59.5186842" lon="14.9194691">
        <ele>129.8</ele>
        <time>2012-07-19T20:40:19Z</time>
      </trkpt>
      <trkpt lat="59.5187313" lon="14.9202599">
        <ele>132</ele>
        <time>2012-07-19T20:40:25Z</time>
      </trkpt>
      <trkpt lat="59.5187864" lon="14.9210485">
        <ele>132.4</ele>
        <time>2012-07-19T20:40:31Z</time>
      </trkpt>
      <trkpt lat="59.5188333" lon="14.921784">
        <ele>132.4</ele>
        <time>2012-07-19T20:40:37Z</time>
      </trkpt>
      <trkpt lat="59.5188689" lon="14.9223336">
        <ele>134</ele>
        <time>2012-07-19T20:40:42Z</time>
      </trkpt>
      <trkpt lat="59.5188726" lon="14.9225352">
        <ele>134.4</ele>
        <time>2012-07-19T20:40:44Z</time>
      </trkpt>
      <trkpt lat="59.5188812" lon="14.9227294">
        <ele>135</ele>
        <time>2012-07-19T20:40:46Z</time>
      </trkpt>
      <trkpt lat="59.518908" lon="14.9231428">
        <ele>135.2</ele>
        <time>2012-07-19T20:40:50Z</time>
      </trkpt>
      <trkpt lat="59.5189158" lon="14.9232503">
        <ele>135.6</ele>
        <time>2012-07-19T20:40:51Z</time>
      </trkpt>
      <trkpt lat="59.5189409" lon="14.9239755">
        <ele>134.6</ele>
        <time>2012-07-19T20:40:57Z</time>
      </trkpt>
      <trkpt lat="59.5189451" lon="14.9242327">
        <ele>134.8</ele>
        <time>2012-07-19T20:40:59Z</time>
      </trkpt>
      <trkpt lat="59.5189516" lon="14.924734">
        <ele>134.6</ele>
        <time>2012-07-19T20:41:03Z</time>
      </trkpt>
      <trkpt lat="59.5189655" lon="14.9255214">
        <ele>135</ele>
        <time>2012-07-19T20:41:09Z</time>
      </trkpt>
      <trkpt lat="59.5189601" lon="14.9262879">
        <ele>135.4</ele>
        <time>2012-07-19T20:41:14Z</time>
      </trkpt>
      <trkpt lat="59.518949" lon="14.9270775">
        <ele>136.2</ele>
        <time>2012-07-19T20:41:19Z</time>
      </trkpt>
      <trkpt lat="59.5189184" lon="14.9278637">
        <ele>137</ele>
        <time>2012-07-19T20:41:24Z</time>
      </trkpt>
      <trkpt lat="59.5188628" lon="14.9286716">
        <ele>136.2</ele>
        <time>2012-07-19T20:41:29Z</time>
      </trkpt>
      <trkpt lat="59.5187843" lon="14.9295195">
        <ele>135.4</ele>
        <time>2012-07-19T20:41:34Z</time>
      </trkpt>
      <trkpt lat="59.5187065" lon="14.9303559">
        <ele>134.4</ele>
        <time>2012-07-19T20:41:39Z</time>
      </trkpt>
      <trkpt lat="59.5186433" lon="14.931185">
        <ele>134.2</ele>
        <time>2012-07-19T20:41:44Z</time>
      </trkpt>
      <trkpt lat="59.5186206" lon="14.9320002">
        <ele>132.8</ele>
        <time>2012-07-19T20:41:49Z</time>
      </trkpt>
      <trkpt lat="59.5186314" lon="14.9327182">
        <ele>132.2</ele>
        <time>2012-07-19T20:41:54Z</time>
      </trkpt>
      <trkpt lat="59.518663" lon="14.9334681">
        <ele>131.6</ele>
        <time>2012-07-19T20:41:59Z</time>
      </trkpt>
      <trkpt lat="59.5187169" lon="14.9342619">
        <ele>131.2</ele>
        <time>2012-07-19T20:42:04Z</time>
      </trkpt>
      <trkpt lat="59.5187819" lon="14.9350553">
        <ele>130.8</ele>
        <time>2012-07-19T20:42:09Z</time>
      </trkpt>
      <trkpt lat="59.5188479" lon="14.9358427">
        <ele>130.8</ele>
        <time>2012-07-19T20:42:14Z</time>
      </trkpt>
      <trkpt lat="59.5189068" lon="14.9366259">
        <ele>130.6</ele>
        <time>2012-07-19T20:42:19Z</time>
      </trkpt>
      <trkpt lat="59.5189607" lon="14.9374172">
        <ele>131</ele>
        <time>2012-07-19T20:42:24Z</time>
      </trkpt>
      <trkpt lat="59.5189875" lon="14.9382125">
        <ele>130.8</ele>
        <time>2012-07-19T20:42:29Z</time>
      </trkpt>
      <trkpt lat="59.5189633" lon="14.9389918">
        <ele>130.6</ele>
        <time>2012-07-19T20:42:34Z</time>
      </trkpt>
      <trkpt lat="59.5189265" lon="14.939721">
        <ele>131.2</ele>
        <time>2012-07-19T20:42:39Z</time>
      </trkpt>
      <trkpt lat="59.5188723" lon="14.9404681">
        <ele>132</ele>
        <time>2012-07-19T20:42:44Z</time>
      </trkpt>
      <trkpt lat="59.518821" lon="14.9411908">
        <ele>134</ele>
        <time>2012-07-19T20:42:49Z</time>
      </trkpt>
      <trkpt lat="59.5187505" lon="14.94196">
        <ele>134.8</ele>
        <time>2012-07-19T20:42:54Z</time>
      </trkpt>
      <trkpt lat="59.5186729" lon="14.9427665">
        <ele>134.6</ele>
        <time>2012-07-19T20:42:59Z</time>
      </trkpt>
      <trkpt lat="59.5185874" lon="14.9435775">
        <ele>134.4</ele>
        <time>2012-07-19T20:43:04Z</time>
      </trkpt>
      <trkpt lat="59.5184967" lon="14.9444252">
        <ele>133</ele>
        <time>2012-07-19T20:43:09Z</time>
      </trkpt>
      <trkpt lat="59.5184064" lon="14.9451555">
        <ele>130.4</ele>
        <time>2012-07-19T20:43:13Z</time>
      </trkpt>
      <trkpt lat="59.5183103" lon="14.9459247">
        <ele>128</ele>
        <time>2012-07-19T20:43:17Z</time>
      </trkpt>
      <trkpt lat="59.5181978" lon="14.946706">
        <ele>124.8</ele>
        <time>2012-07-19T20:43:21Z</time>
      </trkpt>
      <trkpt lat="59.5180777" lon="14.9475124">
        <ele>121.2</ele>
        <time>2012-07-19T20:43:25Z</time>
      </trkpt>
      <trkpt lat="59.5179365" lon="14.948332">
        <ele>119</ele>
        <time>2012-07-19T20:43:29Z</time>
      </trkpt>
      <trkpt lat="59.5177631" lon="14.9491008">
        <ele>117.6</ele>
        <time>2012-07-19T20:43:33Z</time>
      </trkpt>
      <trkpt lat="59.517571" lon="14.9498045">
        <ele>117.2</ele>
        <time>2012-07-19T20:43:37Z</time>
      </trkpt>
      <trkpt lat="59.5173767" lon="14.950465">
        <ele>117.2</ele>
        <time>2012-07-19T20:43:41Z</time>
      </trkpt>
      <trkpt lat="59.5171857" lon="14.9511007">
        <ele>117.4</ele>
        <time>2012-07-19T20:43:45Z</time>
      </trkpt>
      <trkpt lat="59.5169603" lon="14.9518411">
        <ele>118.2</ele>
        <time>2012-07-19T20:43:50Z</time>
      </trkpt>
      <trkpt lat="59.5167676" lon="14.9524876">
        <ele>117.8</ele>
        <time>2012-07-19T20:43:55Z</time>
      </trkpt>
      <trkpt lat="59.5165814" lon="14.9531066">
        <ele>118.6</ele>
        <time>2012-07-19T20:44:00Z</time>
      </trkpt>
      <trkpt lat="59.5164125" lon="14.9537138">
        <ele>120.2</ele>
        <time>2012-07-19T20:44:05Z</time>
      </trkpt>
      <trkpt lat="59.5163894" lon="14.9538302">
        <ele>120.6</ele>
        <time>2012-07-19T20:44:06Z</time>
      </trkpt>
      <trkpt lat="59.5163402" lon="14.9541937">
        <ele>121.2</ele>
        <time>2012-07-19T20:44:09Z</time>
      </trkpt>
      <trkpt lat="59.51641" lon="14.9545374">
        <ele>121.8</ele>
        <time>2012-07-19T20:44:12Z</time>
      </trkpt>
      <trkpt lat="59.5167868" lon="14.9546741">
        <ele>123</ele>
        <time>2012-07-19T20:44:18Z</time>
      </trkpt>
      <trkpt lat="59.5170372" lon="14.9544749">
        <ele>124.6</ele>
        <time>2012-07-19T20:44:22Z</time>
      </trkpt>
      <trkpt lat="59.517173" lon="14.9543511">
        <ele>125.2</ele>
        <time>2012-07-19T20:44:24Z</time>
      </trkpt>
      <trkpt lat="59.5175222" lon="14.9541235">
        <ele>127.2</ele>
        <time>2012-07-19T20:44:29Z</time>
      </trkpt>
      <trkpt lat="59.5179103" lon="14.9539862">
        <ele>128.2</ele>
        <time>2012-07-19T20:44:35Z</time>
      </trkpt>
      <trkpt lat="59.5182812" lon="14.9538629">
        <ele>129</ele>
        <time>2012-07-19T20:44:41Z</time>
      </trkpt>
      <trkpt lat="59.5186434" lon="14.9537293">
        <ele>129.6</ele>
        <time>2012-07-19T20:44:47Z</time>
      </trkpt>
      <trkpt lat="59.5190239" lon="14.953611">
        <ele>134.8</ele>
        <time>2012-07-19T20:44:53Z</time>
      </trkpt>
      <trkpt lat="59.5193831" lon="14.953471">
        <ele>136.8</ele>
        <time>2012-07-19T20:44:59Z</time>
      </trkpt>
      <trkpt lat="59.5197342" lon="14.9533008">
        <ele>136.6</ele>
        <time>2012-07-19T20:45:05Z</time>
      </trkpt>
      <trkpt lat="59.5200766" lon="14.9530559">
        <ele>136.8</ele>
        <time>2012-07-19T20:45:11Z</time>
      </trkpt>
      <trkpt lat="59.5204155" lon="14.9527761">
        <ele>137.4</ele>
        <time>2012-07-19T20:45:17Z</time>
      </trkpt>
      <trkpt lat="59.5207903" lon="14.9524709">
        <ele>138</ele>
        <time>2012-07-19T20:45:24Z</time>
      </trkpt>
      <trkpt lat="59.5211668" lon="14.9521596">
        <ele>139.4</ele>
        <time>2012-07-19T20:45:31Z</time>
      </trkpt>
      <trkpt lat="59.521509" lon="14.9518921">
        <ele>141</ele>
        <time>2012-07-19T20:45:38Z</time>
      </trkpt>
      <trkpt lat="59.5218658" lon="14.9516208">
        <ele>145.2</ele>
        <time>2012-07-19T20:45:45Z</time>
      </trkpt>
      <trkpt lat="59.5222502" lon="14.9513037">
        <ele>148.6</ele>
        <time>2012-07-19T20:45:53Z</time>
      </trkpt>
      <trkpt lat="59.5226185" lon="14.9510205">
        <ele>150.2</ele>
        <time>2012-07-19T20:46:00Z</time>
      </trkpt>
      <trkpt lat="59.5229449" lon="14.9507448">
        <ele>150.8</ele>
        <time>2012-07-19T20:46:06Z</time>
      </trkpt>
      <trkpt lat="59.5232541" lon="14.9504132">
        <ele>150.8</ele>
        <time>2012-07-19T20:46:12Z</time>
      </trkpt>
      <trkpt lat="59.5235605" lon="14.9500248">
        <ele>151.4</ele>
        <time>2012-07-19T20:46:18Z</time>
      </trkpt>
      <trkpt lat="59.5238653" lon="14.9496592">
        <ele>153</ele>
        <time>2012-07-19T20:46:24Z</time>
      </trkpt>
      <trkpt lat="59.5241744" lon="14.9493188">
        <ele>155.2</ele>
        <time>2012-07-19T20:46:30Z</time>
      </trkpt>
      <trkpt lat="59.5245056" lon="14.9490018">
        <ele>155.6</ele>
        <time>2012-07-19T20:46:36Z</time>
      </trkpt>
      <trkpt lat="59.524892" lon="14.948665">
        <ele>155.4</ele>
        <time>2012-07-19T20:46:42Z</time>
      </trkpt>
      <trkpt lat="59.5252831" lon="14.9483252">
        <ele>155.8</ele>
        <time>2012-07-19T20:46:48Z</time>
      </trkpt>
      <trkpt lat="59.5256705" lon="14.9480056">
        <ele>156.8</ele>
        <time>2012-07-19T20:46:54Z</time>
      </trkpt>
      <trkpt lat="59.5260383" lon="14.9476887">
        <ele>159.2</ele>
        <time>2012-07-19T20:47:00Z</time>
      </trkpt>
      <trkpt lat="59.5264111" lon="14.9473731">
        <ele>160.6</ele>
        <time>2012-07-19T20:47:06Z</time>
      </trkpt>
      <trkpt lat="59.5267759" lon="14.9470423">
        <ele>160.2</ele>
        <time>2012-07-19T20:47:12Z</time>
      </trkpt>
      <trkpt lat="59.5271252" lon="14.9467407">
        <ele>160.8</ele>
        <time>2012-07-19T20:47:18Z</time>
      </trkpt>
      <trkpt lat="59.5274727" lon="14.9464564">
        <ele>161.4</ele>
        <time>2012-07-19T20:47:24Z</time>
      </trkpt>
      <trkpt lat="59.5278106" lon="14.9461801">
        <ele>164.2</ele>
        <time>2012-07-19T20:47:30Z</time>
      </trkpt>
      <trkpt lat="59.5281792" lon="14.9458749">
        <ele>166.4</ele>
        <time>2012-07-19T20:47:37Z</time>
      </trkpt>
      <trkpt lat="59.5285118" lon="14.945585">
        <ele>169.8</ele>
        <time>2012-07-19T20:47:43Z</time>
      </trkpt>
      <trkpt lat="59.5288956" lon="14.9452981">
        <ele>172.6</ele>
        <time>2012-07-19T20:47:50Z</time>
      </trkpt>
      <trkpt lat="59.529292" lon="14.9451507">
        <ele>173.6</ele>
        <time>2012-07-19T20:47:57Z</time>
      </trkpt>
      <trkpt lat="59.5296554" lon="14.9450728">
        <ele>173.4</ele>
        <time>2012-07-19T20:48:03Z</time>
      </trkpt>
      <trkpt lat="59.530057" lon="14.9449378">
        <ele>173</ele>
        <time>2012-07-19T20:48:09Z</time>
      </trkpt>
      <trkpt lat="59.5304045" lon="14.9447121">
        <ele>172</ele>
        <time>2012-07-19T20:48:14Z</time>
      </trkpt>
      <trkpt lat="59.5307686" lon="14.9444489">
        <ele>170.4</ele>
        <time>2012-07-19T20:48:19Z</time>
      </trkpt>
      <trkpt lat="59.5311427" lon="14.9441584">
        <ele>168.4</ele>
        <time>2012-07-19T20:48:24Z</time>
      </trkpt>
      <trkpt lat="59.5315278" lon="14.9438702">
        <ele>167.2</ele>
        <time>2012-07-19T20:48:29Z</time>
      </trkpt>
      <trkpt lat="59.5319344" lon="14.9435664">
        <ele>165.8</ele>
        <time>2012-07-19T20:48:34Z</time>
      </trkpt>
      <trkpt lat="59.5323351" lon="14.943245">
        <ele>163.6</ele>
        <time>2012-07-19T20:48:39Z</time>
      </trkpt>
      <trkpt lat="59.5327361" lon="14.9429343">
        <ele>162.8</ele>
        <time>2012-07-19T20:48:44Z</time>
      </trkpt>
      <trkpt lat="59.5331346" lon="14.9426453">
        <ele>163.6</ele>
        <time>2012-07-19T20:48:49Z</time>
      </trkpt>
      <trkpt lat="59.5335081" lon="14.9423562">
        <ele>164.4</ele>
        <time>2012-07-19T20:48:54Z</time>
      </trkpt>
      <trkpt lat="59.5338893" lon="14.9420806">
        <ele>165.4</ele>
        <time>2012-07-19T20:48:59Z</time>
      </trkpt>
      <trkpt lat="59.534239" lon="14.9417783">
        <ele>166.2</ele>
        <time>2012-07-19T20:49:04Z</time>
      </trkpt>
      <trkpt lat="59.5345678" lon="14.9414301">
        <ele>166.8</ele>
        <time>2012-07-19T20:49:09Z</time>
      </trkpt>
      <trkpt lat="59.5349189" lon="14.9410735">
        <ele>168.2</ele>
        <time>2012-07-19T20:49:14Z</time>
      </trkpt>
      <trkpt lat="59.5352551" lon="14.9407127">
        <ele>168.6</ele>
        <time>2012-07-19T20:49:19Z</time>
      </trkpt>
      <trkpt lat="59.535593" lon="14.9403759">
        <ele>168.4</ele>
        <time>2012-07-19T20:49:24Z</time>
      </trkpt>
      <trkpt lat="59.5359812" lon="14.9399841">
        <ele>168.6</ele>
        <time>2012-07-19T20:49:30Z</time>
      </trkpt>
      <trkpt lat="59.5363225" lon="14.9396159">
        <ele>168.8</ele>
        <time>2012-07-19T20:49:35Z</time>
      </trkpt>
      <trkpt lat="59.5366563" lon="14.939169">
        <ele>168</ele>
        <time>2012-07-19T20:49:40Z</time>
      </trkpt>
      <trkpt lat="59.537005" lon="14.9386561">
        <ele>167</ele>
        <time>2012-07-19T20:49:45Z</time>
      </trkpt>
      <trkpt lat="59.5372864" lon="14.9382302">
        <ele>167.4</ele>
        <time>2012-07-19T20:49:49Z</time>
      </trkpt>
      <trkpt lat="59.537608" lon="14.9377181">
        <ele>168.4</ele>
        <time>2012-07-19T20:49:54Z</time>
      </trkpt>
      <trkpt lat="59.5379032" lon="14.9371605">
        <ele>170.2</ele>
        <time>2012-07-19T20:49:59Z</time>
      </trkpt>
      <trkpt lat="59.5382022" lon="14.9365794">
        <ele>170.6</ele>
        <time>2012-07-19T20:50:04Z</time>
      </trkpt>
      <trkpt lat="59.5384323" lon="14.9361718">
        <ele>170.8</ele>
        <time>2012-07-19T20:50:08Z</time>
      </trkpt>
      <trkpt lat="59.5384961" lon="14.9360828">
        <ele>170.8</ele>
        <time>2012-07-19T20:50:09Z</time>
      </trkpt>
      <trkpt lat="59.5388657" lon="14.9356717">
        <ele>168.6</ele>
        <time>2012-07-19T20:50:14Z</time>
      </trkpt>
      <trkpt lat="59.5392614" lon="14.935372">
        <ele>165.8</ele>
        <time>2012-07-19T20:50:19Z</time>
      </trkpt>
      <trkpt lat="59.5396016" lon="14.9351327">
        <ele>163.6</ele>
        <time>2012-07-19T20:50:23Z</time>
      </trkpt>
      <trkpt lat="59.5399641" lon="14.9348944">
        <ele>162</ele>
        <time>2012-07-19T20:50:27Z</time>
      </trkpt>
      <trkpt lat="59.5403375" lon="14.9346425">
        <ele>160</ele>
        <time>2012-07-19T20:50:31Z</time>
      </trkpt>
      <trkpt lat="59.5407213" lon="14.9344037">
        <ele>159.6</ele>
        <time>2012-07-19T20:50:35Z</time>
      </trkpt>
      <trkpt lat="59.5410908" lon="14.9341277">
        <ele>159</ele>
        <time>2012-07-19T20:50:39Z</time>
      </trkpt>
      <trkpt lat="59.5414434" lon="14.9338094">
        <ele>159</ele>
        <time>2012-07-19T20:50:43Z</time>
      </trkpt>
      <trkpt lat="59.5417872" lon="14.9334707">
        <ele>158.4</ele>
        <time>2012-07-19T20:50:47Z</time>
      </trkpt>
      <trkpt lat="59.5421041" lon="14.933072">
        <ele>158.6</ele>
        <time>2012-07-19T20:50:51Z</time>
      </trkpt>
      <trkpt lat="59.542248" lon="14.9328473">
        <ele>158.6</ele>
        <time>2012-07-19T20:50:53Z</time>
      </trkpt>
      <trkpt lat="59.542381" lon="14.932588">
        <ele>158.4</ele>
        <time>2012-07-19T20:50:55Z</time>
      </trkpt>
      <trkpt lat="59.5426116" lon="14.9320275">
        <ele>158</ele>
        <time>2012-07-19T20:50:59Z</time>
      </trkpt>
      <trkpt lat="59.5428083" lon="14.9312414">
        <ele>157</ele>
        <time>2012-07-19T20:51:04Z</time>
      </trkpt>
      <trkpt lat="59.5429421" lon="14.9304391">
        <ele>156.8</ele>
        <time>2012-07-19T20:51:09Z</time>
      </trkpt>
      <trkpt lat="59.5430636" lon="14.9296003">
        <ele>156.4</ele>
        <time>2012-07-19T20:51:14Z</time>
      </trkpt>
      <trkpt lat="59.5431895" lon="14.9287937">
        <ele>156.6</ele>
        <time>2012-07-19T20:51:19Z</time>
      </trkpt>
      <trkpt lat="59.5433031" lon="14.9280178">
        <ele>157.2</ele>
        <time>2012-07-19T20:51:24Z</time>
      </trkpt>
      <trkpt lat="59.5434115" lon="14.9272894">
        <ele>157.8</ele>
        <time>2012-07-19T20:51:29Z</time>
      </trkpt>
      <trkpt lat="59.5434896" lon="14.9268827">
        <ele>158.2</ele>
        <time>2012-07-19T20:51:32Z</time>
      </trkpt>
      <trkpt lat="59.5435767" lon="14.926658">
        <ele>158.4</ele>
        <time>2012-07-19T20:51:34Z</time>
      </trkpt>
      <trkpt lat="59.5439237" lon="14.9264218">
        <ele>158.2</ele>
        <time>2012-07-19T20:51:39Z</time>
      </trkpt>
      <trkpt lat="59.5441386" lon="14.926634">
        <ele>157.2</ele>
        <time>2012-07-19T20:51:42Z</time>
      </trkpt>
      <trkpt lat="59.5442086" lon="14.9267192">
        <ele>156.8</ele>
        <time>2012-07-19T20:51:43Z</time>
      </trkpt>
      <trkpt lat="59.5442816" lon="14.9267813">
        <ele>156.2</ele>
        <time>2012-07-19T20:51:44Z</time>
      </trkpt>
      <trkpt lat="59.5445622" lon="14.9267495">
        <ele>155.2</ele>
        <time>2012-07-19T20:51:47Z</time>
      </trkpt>
      <trkpt lat="59.5446567" lon="14.9267217">
        <ele>154.8</ele>
        <time>2012-07-19T20:51:48Z</time>
      </trkpt>
      <trkpt lat="59.5450276" lon="14.9265878">
        <ele>152.2</ele>
        <time>2012-07-19T20:51:52Z</time>
      </trkpt>
      <trkpt lat="59.5454582" lon="14.9264762">
        <ele>150.8</ele>
        <time>2012-07-19T20:51:57Z</time>
      </trkpt>
      <trkpt lat="59.5458849" lon="14.9263048">
        <ele>149.6</ele>
        <time>2012-07-19T20:52:02Z</time>
      </trkpt>
      <trkpt lat="59.5462454" lon="14.9262254">
        <ele>149.4</ele>
        <time>2012-07-19T20:52:06Z</time>
      </trkpt>
      <trkpt lat="59.5466842" lon="14.9262679">
        <ele>148</ele>
        <time>2012-07-19T20:52:11Z</time>
      </trkpt>
      <trkpt lat="59.5470891" lon="14.9263647">
        <ele>148.8</ele>
        <time>2012-07-19T20:52:16Z</time>
      </trkpt>
      <trkpt lat="59.547481" lon="14.9264228">
        <ele>149.4</ele>
        <time>2012-07-19T20:52:21Z</time>
      </trkpt>
      <trkpt lat="59.5478768" lon="14.9264849">
        <ele>150.8</ele>
        <time>2012-07-19T20:52:26Z</time>
      </trkpt>
      <trkpt lat="59.5481837" lon="14.9265658">
        <ele>150.8</ele>
        <time>2012-07-19T20:52:30Z</time>
      </trkpt>
      <trkpt lat="59.5482584" lon="14.9266159">
        <ele>150.8</ele>
        <time>2012-07-19T20:52:31Z</time>
      </trkpt>
      <trkpt lat="59.5485357" lon="14.9269106">
        <ele>149.8</ele>
        <time>2012-07-19T20:52:35Z</time>
      </trkpt>
      <trkpt lat="59.5485904" lon="14.9270119">
        <ele>149.2</ele>
        <time>2012-07-19T20:52:36Z</time>
      </trkpt>
      <trkpt lat="59.5487757" lon="14.9276493">
        <ele>148</ele>
        <time>2012-07-19T20:52:41Z</time>
      </trkpt>
      <trkpt lat="59.5490483" lon="14.9280029">
        <ele>147.4</ele>
        <time>2012-07-19T20:52:46Z</time>
      </trkpt>
      <trkpt lat="59.5493443" lon="14.9277789">
        <ele>148.2</ele>
        <time>2012-07-19T20:52:50Z</time>
      </trkpt>
      <trkpt lat="59.5494157" lon="14.9276946">
        <ele>148.6</ele>
        <time>2012-07-19T20:52:51Z</time>
      </trkpt>
      <trkpt lat="59.5497351" lon="14.9271453">
        <ele>149</ele>
        <time>2012-07-19T20:52:56Z</time>
      </trkpt>
      <trkpt lat="59.5500254" lon="14.9265443">
        <ele>149.4</ele>
        <time>2012-07-19T20:53:01Z</time>
      </trkpt>
      <trkpt lat="59.5503036" lon="14.9259691">
        <ele>149.6</ele>
        <time>2012-07-19T20:53:06Z</time>
      </trkpt>
      <trkpt lat="59.5506118" lon="14.9254738">
        <ele>150</ele>
        <time>2012-07-19T20:53:11Z</time>
      </trkpt>
      <trkpt lat="59.5509416" lon="14.9250235">
        <ele>149.6</ele>
        <time>2012-07-19T20:53:16Z</time>
      </trkpt>
      <trkpt lat="59.5512545" lon="14.9245467">
        <ele>149.6</ele>
        <time>2012-07-19T20:53:21Z</time>
      </trkpt>
      <trkpt lat="59.5515493" lon="14.9240765">
        <ele>149.6</ele>
        <time>2012-07-19T20:53:26Z</time>
      </trkpt>
      <trkpt lat="59.5518304" lon="14.9236155">
        <ele>149.8</ele>
        <time>2012-07-19T20:53:31Z</time>
      </trkpt>
      <trkpt lat="59.552092" lon="14.9231328">
        <ele>151.4</ele>
        <time>2012-07-19T20:53:36Z</time>
      </trkpt>
      <trkpt lat="59.5523907" lon="14.9225407">
        <ele>153.2</ele>
        <time>2012-07-19T20:53:42Z</time>
      </trkpt>
      <trkpt lat="59.5526904" lon="14.9219404">
        <ele>156.4</ele>
        <time>2012-07-19T20:53:48Z</time>
      </trkpt>
      <trkpt lat="59.5529735" lon="14.9213281">
        <ele>157.6</ele>
        <time>2012-07-19T20:53:54Z</time>
      </trkpt>
      <trkpt lat="59.5532622" lon="14.9207475">
        <ele>157.6</ele>
        <time>2012-07-19T20:54:00Z</time>
      </trkpt>
      <trkpt lat="59.5535349" lon="14.920122">
        <ele>158.2</ele>
        <time>2012-07-19T20:54:06Z</time>
      </trkpt>
      <trkpt lat="59.5537735" lon="14.9195388">
        <ele>158.2</ele>
        <time>2012-07-19T20:54:11Z</time>
      </trkpt>
      <trkpt lat="59.5539969" lon="14.9189498">
        <ele>158.6</ele>
        <time>2012-07-19T20:54:16Z</time>
      </trkpt>
      <trkpt lat="59.5542588" lon="14.9183035">
        <ele>159</ele>
        <time>2012-07-19T20:54:22Z</time>
      </trkpt>
      <trkpt lat="59.5545212" lon="14.9176577">
        <ele>159</ele>
        <time>2012-07-19T20:54:28Z</time>
      </trkpt>
      <trkpt lat="59.554765" lon="14.9170155">
        <ele>159.4</ele>
        <time>2012-07-19T20:54:34Z</time>
      </trkpt>
      <trkpt lat="59.5550024" lon="14.9163915">
        <ele>160.8</ele>
        <time>2012-07-19T20:54:40Z</time>
      </trkpt>
      <trkpt lat="59.5552379" lon="14.9157817">
        <ele>161.8</ele>
        <time>2012-07-19T20:54:46Z</time>
      </trkpt>
      <trkpt lat="59.5554777" lon="14.9151934">
        <ele>163.2</ele>
        <time>2012-07-19T20:54:52Z</time>
      </trkpt>
      <trkpt lat="59.5557225" lon="14.9146083">
        <ele>163.8</ele>
        <time>2012-07-19T20:54:58Z</time>
      </trkpt>
      <trkpt lat="59.5559971" lon="14.9140626">
        <ele>164</ele>
        <time>2012-07-19T20:55:04Z</time>
      </trkpt>
      <trkpt lat="59.5563092" lon="14.9135928">
        <ele>164.6</ele>
        <time>2012-07-19T20:55:10Z</time>
      </trkpt>
      <trkpt lat="59.5566233" lon="14.9131623">
        <ele>164.8</ele>
        <time>2012-07-19T20:55:16Z</time>
      </trkpt>
      <trkpt lat="59.5569584" lon="14.9127067">
        <ele>164.6</ele>
        <time>2012-07-19T20:55:22Z</time>
      </trkpt>
      <trkpt lat="59.5573039" lon="14.9122406">
        <ele>164.2</ele>
        <time>2012-07-19T20:55:28Z</time>
      </trkpt>
      <trkpt lat="59.5576276" lon="14.9117971">
        <ele>164.8</ele>
        <time>2012-07-19T20:55:34Z</time>
      </trkpt>
      <trkpt lat="59.5579158" lon="14.9113946">
        <ele>165.8</ele>
        <time>2012-07-19T20:55:40Z</time>
      </trkpt>
      <trkpt lat="59.558216" lon="14.910988">
        <ele>168</ele>
        <time>2012-07-19T20:55:47Z</time>
      </trkpt>
      <trkpt lat="59.5585275" lon="14.9105642">
        <ele>170.4</ele>
        <time>2012-07-19T20:55:54Z</time>
      </trkpt>
      <trkpt lat="59.5588404" lon="14.9101333">
        <ele>173.8</ele>
        <time>2012-07-19T20:56:01Z</time>
      </trkpt>
      <trkpt lat="59.5591557" lon="14.9096776">
        <ele>175</ele>
        <time>2012-07-19T20:56:08Z</time>
      </trkpt>
      <trkpt lat="59.5595001" lon="14.9091943">
        <ele>179</ele>
        <time>2012-07-19T20:56:15Z</time>
      </trkpt>
      <trkpt lat="59.5598133" lon="14.908769">
        <ele>181</ele>
        <time>2012-07-19T20:56:21Z</time>
      </trkpt>
      <trkpt lat="59.5601355" lon="14.9083214">
        <ele>182.2</ele>
        <time>2012-07-19T20:56:27Z</time>
      </trkpt>
      <trkpt lat="59.560446" lon="14.9078825">
        <ele>182.8</ele>
        <time>2012-07-19T20:56:33Z</time>
      </trkpt>
      <trkpt lat="59.5607548" lon="14.9074699">
        <ele>184.8</ele>
        <time>2012-07-19T20:56:39Z</time>
      </trkpt>
      <trkpt lat="59.5610657" lon="14.9070758">
        <ele>186.2</ele>
        <time>2012-07-19T20:56:46Z</time>
      </trkpt>
      <trkpt lat="59.5613851" lon="14.9066712">
        <ele>186.6</ele>
        <time>2012-07-19T20:56:52Z</time>
      </trkpt>
      <trkpt lat="59.5617506" lon="14.9062969">
        <ele>187.2</ele>
        <time>2012-07-19T20:56:58Z</time>
      </trkpt>
      <trkpt lat="59.5621136" lon="14.9060648">
        <ele>187.6</ele>
        <time>2012-07-19T20:57:04Z</time>
      </trkpt>
      <trkpt lat="59.5625259" lon="14.9059335">
        <ele>189.6</ele>
        <time>2012-07-19T20:57:11Z</time>
      </trkpt>
      <trkpt lat="59.5629274" lon="14.9058221">
        <ele>195.6</ele>
        <time>2012-07-19T20:57:18Z</time>
      </trkpt>
      <trkpt lat="59.563328" lon="14.9057287">
        <ele>200.8</ele>
        <time>2012-07-19T20:57:25Z</time>
      </trkpt>
      <trkpt lat="59.5637099" lon="14.9056667">
        <ele>199.6</ele>
        <time>2012-07-19T20:57:31Z</time>
      </trkpt>
      <trkpt lat="59.5641142" lon="14.905617">
        <ele>198.4</ele>
        <time>2012-07-19T20:57:37Z</time>
      </trkpt>
      <trkpt lat="59.5644995" lon="14.9055687">
        <ele>197.6</ele>
        <time>2012-07-19T20:57:43Z</time>
      </trkpt>
      <trkpt lat="59.5648871" lon="14.9055133">
        <ele>197.2</ele>
        <time>2012-07-19T20:57:49Z</time>
      </trkpt>
      <trkpt lat="59.5652765" lon="14.9054632">
        <ele>197.6</ele>
        <time>2012-07-19T20:57:55Z</time>
      </trkpt>
      <trkpt lat="59.5656599" lon="14.9054073">
        <ele>198</ele>
        <time>2012-07-19T20:58:01Z</time>
      </trkpt>
      <trkpt lat="59.5660774" lon="14.9053527">
        <ele>198</ele>
        <time>2012-07-19T20:58:07Z</time>
      </trkpt>
      <trkpt lat="59.5665056" lon="14.9052849">
        <ele>198</ele>
        <time>2012-07-19T20:58:13Z</time>
      </trkpt>
      <trkpt lat="59.5669281" lon="14.9051648">
        <ele>198</ele>
        <time>2012-07-19T20:58:19Z</time>
      </trkpt>
      <trkpt lat="59.5673065" lon="14.9049585">
        <ele>198.4</ele>
        <time>2012-07-19T20:58:25Z</time>
      </trkpt>
      <trkpt lat="59.5676896" lon="14.904698">
        <ele>200</ele>
        <time>2012-07-19T20:58:31Z</time>
      </trkpt>
      <trkpt lat="59.5680537" lon="14.9044534">
        <ele>202</ele>
        <time>2012-07-19T20:58:37Z</time>
      </trkpt>
      <trkpt lat="59.5684266" lon="14.9041955">
        <ele>206.2</ele>
        <time>2012-07-19T20:58:43Z</time>
      </trkpt>
      <trkpt lat="59.5688027" lon="14.9039589">
        <ele>208.8</ele>
        <time>2012-07-19T20:58:49Z</time>
      </trkpt>
      <trkpt lat="59.5691757" lon="14.9036986">
        <ele>209.6</ele>
        <time>2012-07-19T20:58:55Z</time>
      </trkpt>
      <trkpt lat="59.5695533" lon="14.9034412">
        <ele>210.8</ele>
        <time>2012-07-19T20:59:01Z</time>
      </trkpt>
      <trkpt lat="59.5699205" lon="14.9031915">
        <ele>211.8</ele>
        <time>2012-07-19T20:59:07Z</time>
      </trkpt>
      <trkpt lat="59.5702935" lon="14.90293">
        <ele>212.6</ele>
        <time>2012-07-19T20:59:13Z</time>
      </trkpt>
      <trkpt lat="59.5706787" lon="14.9026777">
        <ele>212.8</ele>
        <time>2012-07-19T20:59:19Z</time>
      </trkpt>
      <trkpt lat="59.5710752" lon="14.9024042">
        <ele>213.2</ele>
        <time>2012-07-19T20:59:25Z</time>
      </trkpt>
      <trkpt lat="59.5714565" lon="14.902153">
        <ele>213.2</ele>
        <time>2012-07-19T20:59:31Z</time>
      </trkpt>
      <trkpt lat="59.5718201" lon="14.90191">
        <ele>213.4</ele>
        <time>2012-07-19T20:59:36Z</time>
      </trkpt>
      <trkpt lat="59.5722272" lon="14.901663">
        <ele>211.6</ele>
        <time>2012-07-19T20:59:41Z</time>
      </trkpt>
      <trkpt lat="59.5725804" lon="14.9014661">
        <ele>209.8</ele>
        <time>2012-07-19T20:59:45Z</time>
      </trkpt>
      <trkpt lat="59.5729481" lon="14.9012657">
        <ele>207.8</ele>
        <time>2012-07-19T20:59:49Z</time>
      </trkpt>
      <trkpt lat="59.573328" lon="14.9010901">
        <ele>206.2</ele>
        <time>2012-07-19T20:59:53Z</time>
      </trkpt>
      <trkpt lat="59.5737134" lon="14.9009502">
        <ele>204.2</ele>
        <time>2012-07-19T20:59:57Z</time>
      </trkpt>
      <trkpt lat="59.5741051" lon="14.9008286">
        <ele>202.8</ele>
        <time>2012-07-19T21:00:01Z</time>
      </trkpt>
      <trkpt lat="59.5745229" lon="14.9007093">
        <ele>201.2</ele>
        <time>2012-07-19T21:00:05Z</time>
      </trkpt>
      <trkpt lat="59.5749592" lon="14.9005958">
        <ele>198.8</ele>
        <time>2012-07-19T21:00:09Z</time>
      </trkpt>
      <trkpt lat="59.5754019" lon="14.9004994">
        <ele>196.6</ele>
        <time>2012-07-19T21:00:13Z</time>
      </trkpt>
      <trkpt lat="59.5758547" lon="14.9005045">
        <ele>194.8</ele>
        <time>2012-07-19T21:00:17Z</time>
      </trkpt>
      <trkpt lat="59.5762926" lon="14.9006509">
        <ele>194.2</ele>
        <time>2012-07-19T21:00:21Z</time>
      </trkpt>
      <trkpt lat="59.5767163" lon="14.9009145">
        <ele>194.2</ele>
        <time>2012-07-19T21:00:25Z</time>
      </trkpt>
      <trkpt lat="59.5771246" lon="14.9012221">
        <ele>193.8</ele>
        <time>2012-07-19T21:00:29Z</time>
      </trkpt>
      <trkpt lat="59.5775256" lon="14.9015206">
        <ele>192.8</ele>
        <time>2012-07-19T21:00:33Z</time>
      </trkpt>
      <trkpt lat="59.5779181" lon="14.901811">
        <ele>191.6</ele>
        <time>2012-07-19T21:00:37Z</time>
      </trkpt>
      <trkpt lat="59.5782829" lon="14.9020774">
        <ele>190.6</ele>
        <time>2012-07-19T21:00:41Z</time>
      </trkpt>
      <trkpt lat="59.5786739" lon="14.9023631">
        <ele>188.8</ele>
        <time>2012-07-19T21:00:45Z</time>
      </trkpt>
      <trkpt lat="59.5790742" lon="14.9026586">
        <ele>187.2</ele>
        <time>2012-07-19T21:00:49Z</time>
      </trkpt>
      <trkpt lat="59.5794694" lon="14.902934">
        <ele>186.6</ele>
        <time>2012-07-19T21:00:53Z</time>
      </trkpt>
      <trkpt lat="59.5798398" lon="14.9031728">
        <ele>187</ele>
        <time>2012-07-19T21:00:57Z</time>
      </trkpt>
      <trkpt lat="59.5802444" lon="14.9034054">
        <ele>187.8</ele>
        <time>2012-07-19T21:01:02Z</time>
      </trkpt>
      <trkpt lat="59.5806526" lon="14.9036159">
        <ele>191.2</ele>
        <time>2012-07-19T21:01:07Z</time>
      </trkpt>
      <trkpt lat="59.5810178" lon="14.9038516">
        <ele>193.4</ele>
        <time>2012-07-19T21:01:12Z</time>
      </trkpt>
      <trkpt lat="59.5813607" lon="14.9041471">
        <ele>194</ele>
        <time>2012-07-19T21:01:17Z</time>
      </trkpt>
      <trkpt lat="59.5816815" lon="14.904509">
        <ele>192.2</ele>
        <time>2012-07-19T21:01:21Z</time>
      </trkpt>
      <trkpt lat="59.5820055" lon="14.9048762">
        <ele>187.6</ele>
        <time>2012-07-19T21:01:25Z</time>
      </trkpt>
      <trkpt lat="59.5823512" lon="14.9052709">
        <ele>181.8</ele>
        <time>2012-07-19T21:01:29Z</time>
      </trkpt>
      <trkpt lat="59.5827168" lon="14.905665">
        <ele>180.6</ele>
        <time>2012-07-19T21:01:33Z</time>
      </trkpt>
      <trkpt lat="59.5830795" lon="14.9060707">
        <ele>179.6</ele>
        <time>2012-07-19T21:01:37Z</time>
      </trkpt>
      <trkpt lat="59.5834411" lon="14.9064648">
        <ele>178</ele>
        <time>2012-07-19T21:01:41Z</time>
      </trkpt>
      <trkpt lat="59.5838139" lon="14.9068665">
        <ele>176</ele>
        <time>2012-07-19T21:01:45Z</time>
      </trkpt>
      <trkpt lat="59.5842104" lon="14.907255">
        <ele>173.8</ele>
        <time>2012-07-19T21:01:49Z</time>
      </trkpt>
      <trkpt lat="59.5846553" lon="14.9076388">
        <ele>171.6</ele>
        <time>2012-07-19T21:01:53Z</time>
      </trkpt>
      <trkpt lat="59.5849944" lon="14.9079055">
        <ele>170.2</ele>
        <time>2012-07-19T21:01:56Z</time>
      </trkpt>
      <trkpt lat="59.5854262" lon="14.9082024">
        <ele>168.8</ele>
        <time>2012-07-19T21:02:00Z</time>
      </trkpt>
      <trkpt lat="59.5858442" lon="14.9084542">
        <ele>167.2</ele>
        <time>2012-07-19T21:02:04Z</time>
      </trkpt>
      <trkpt lat="59.5862648" lon="14.9086696">
        <ele>167</ele>
        <time>2012-07-19T21:02:08Z</time>
      </trkpt>
      <trkpt lat="59.5866946" lon="14.9088807">
        <ele>165.8</ele>
        <time>2012-07-19T21:02:12Z</time>
      </trkpt>
      <trkpt lat="59.5871453" lon="14.9090978">
        <ele>164.2</ele>
        <time>2012-07-19T21:02:16Z</time>
      </trkpt>
      <trkpt lat="59.5875969" lon="14.9093303">
        <ele>162.8</ele>
        <time>2012-07-19T21:02:20Z</time>
      </trkpt>
      <trkpt lat="59.5880436" lon="14.9096294">
        <ele>160.6</ele>
        <time>2012-07-19T21:02:24Z</time>
      </trkpt>
      <trkpt lat="59.588371" lon="14.9099641">
        <ele>158.2</ele>
        <time>2012-07-19T21:02:27Z</time>
      </trkpt>
      <trkpt lat="59.5886951" lon="14.9104374">
        <ele>156.6</ele>
        <time>2012-07-19T21:02:30Z</time>
      </trkpt>
      <trkpt lat="59.5889751" lon="14.9110384">
        <ele>154.4</ele>
        <time>2012-07-19T21:02:33Z</time>
      </trkpt>
      <trkpt lat="59.5892377" lon="14.911694">
        <ele>152.4</ele>
        <time>2012-07-19T21:02:36Z</time>
      </trkpt>
      <trkpt lat="59.589506" lon="14.9123251">
        <ele>151.6</ele>
        <time>2012-07-19T21:02:39Z</time>
      </trkpt>
      <trkpt lat="59.5897522" lon="14.9129288">
        <ele>151</ele>
        <time>2012-07-19T21:02:42Z</time>
      </trkpt>
      <trkpt lat="59.5899888" lon="14.9134895">
        <ele>149.2</ele>
        <time>2012-07-19T21:02:45Z</time>
      </trkpt>
      <trkpt lat="59.5902354" lon="14.9140807">
        <ele>146.6</ele>
        <time>2012-07-19T21:02:48Z</time>
      </trkpt>
      <trkpt lat="59.5904819" lon="14.9146914">
        <ele>143.8</ele>
        <time>2012-07-19T21:02:51Z</time>
      </trkpt>
      <trkpt lat="59.5907368" lon="14.9153099">
        <ele>141</ele>
        <time>2012-07-19T21:02:54Z</time>
      </trkpt>
      <trkpt lat="59.5909839" lon="14.9159179">
        <ele>139.2</ele>
        <time>2012-07-19T21:02:57Z</time>
      </trkpt>
      <trkpt lat="59.5912346" lon="14.916446">
        <ele>139</ele>
        <time>2012-07-19T21:03:00Z</time>
      </trkpt>
      <trkpt lat="59.5916157" lon="14.9170075">
        <ele>137.8</ele>
        <time>2012-07-19T21:03:04Z</time>
      </trkpt>
      <trkpt lat="59.5919433" lon="14.9173218">
        <ele>135.6</ele>
        <time>2012-07-19T21:03:07Z</time>
      </trkpt>
      <trkpt lat="59.5922815" lon="14.917627">
        <ele>134.4</ele>
        <time>2012-07-19T21:03:10Z</time>
      </trkpt>
      <trkpt lat="59.5926906" lon="14.9180362">
        <ele>134.4</ele>
        <time>2012-07-19T21:03:14Z</time>
      </trkpt>
      <trkpt lat="59.5930445" lon="14.9183775">
        <ele>134.6</ele>
        <time>2012-07-19T21:03:18Z</time>
      </trkpt>
      <trkpt lat="59.5934036" lon="14.9185906">
        <ele>136.2</ele>
        <time>2012-07-19T21:03:22Z</time>
      </trkpt>
      <trkpt lat="59.5937904" lon="14.9186382">
        <ele>139.4</ele>
        <time>2012-07-19T21:03:26Z</time>
      </trkpt>
      <trkpt lat="59.5941935" lon="14.918635">
        <ele>141.2</ele>
        <time>2012-07-19T21:03:30Z</time>
      </trkpt>
      <trkpt lat="59.5945785" lon="14.9186102">
        <ele>141</ele>
        <time>2012-07-19T21:03:34Z</time>
      </trkpt>
      <trkpt lat="59.5949487" lon="14.9185843">
        <ele>141.2</ele>
        <time>2012-07-19T21:03:38Z</time>
      </trkpt>
      <trkpt lat="59.5953077" lon="14.9185668">
        <ele>141.2</ele>
        <time>2012-07-19T21:03:42Z</time>
      </trkpt>
      <trkpt lat="59.5957418" lon="14.918523">
        <ele>141.4</ele>
        <time>2012-07-19T21:03:47Z</time>
      </trkpt>
      <trkpt lat="59.5961118" lon="14.9185061">
        <ele>140.4</ele>
        <time>2012-07-19T21:03:51Z</time>
      </trkpt>
      <trkpt lat="59.5965085" lon="14.9184979">
        <ele>138.4</ele>
        <time>2012-07-19T21:03:55Z</time>
      </trkpt>
      <trkpt lat="59.5969233" lon="14.9184702">
        <ele>137.2</ele>
        <time>2012-07-19T21:03:59Z</time>
      </trkpt>
      <trkpt lat="59.5973454" lon="14.9184504">
        <ele>136</ele>
        <time>2012-07-19T21:04:03Z</time>
      </trkpt>
      <trkpt lat="59.5977544" lon="14.9184196">
        <ele>135</ele>
        <time>2012-07-19T21:04:07Z</time>
      </trkpt>
      <trkpt lat="59.5981651" lon="14.9184232">
        <ele>134.6</ele>
        <time>2012-07-19T21:04:11Z</time>
      </trkpt>
      <trkpt lat="59.5984733" lon="14.9185278">
        <ele>134.2</ele>
        <time>2012-07-19T21:04:14Z</time>
      </trkpt>
      <trkpt lat="59.5985722" lon="14.9185924">
        <ele>134.2</ele>
        <time>2012-07-19T21:04:15Z</time>
      </trkpt>
      <trkpt lat="59.5989525" lon="14.9189769">
        <ele>132.2</ele>
        <time>2012-07-19T21:04:19Z</time>
      </trkpt>
      <trkpt lat="59.5992162" lon="14.9193934">
        <ele>130.2</ele>
        <time>2012-07-19T21:04:22Z</time>
      </trkpt>
      <trkpt lat="59.5992933" lon="14.9195581">
        <ele>129.2</ele>
        <time>2012-07-19T21:04:23Z</time>
      </trkpt>
      <trkpt lat="59.5995721" lon="14.9202337">
        <ele>126.4</ele>
        <time>2012-07-19T21:04:27Z</time>
      </trkpt>
      <trkpt lat="59.599709" lon="14.9205302">
        <ele>125</ele>
        <time>2012-07-19T21:04:29Z</time>
      </trkpt>
      <trkpt lat="59.5998583" lon="14.920792">
        <ele>123.8</ele>
        <time>2012-07-19T21:04:31Z</time>
      </trkpt>
      <trkpt lat="59.6001851" lon="14.9213116">
        <ele>122</ele>
        <time>2012-07-19T21:04:35Z</time>
      </trkpt>
      <trkpt lat="59.6005355" lon="14.9218597">
        <ele>120.2</ele>
        <time>2012-07-19T21:04:39Z</time>
      </trkpt>
      <trkpt lat="59.6008271" lon="14.9223123">
        <ele>119.6</ele>
        <time>2012-07-19T21:04:42Z</time>
      </trkpt>
      <trkpt lat="59.6011284" lon="14.9227996">
        <ele>118</ele>
        <time>2012-07-19T21:04:45Z</time>
      </trkpt>
      <trkpt lat="59.6014099" lon="14.9232695">
        <ele>116</ele>
        <time>2012-07-19T21:04:48Z</time>
      </trkpt>
      <trkpt lat="59.6017612" lon="14.9238545">
        <ele>114.2</ele>
        <time>2012-07-19T21:04:52Z</time>
      </trkpt>
      <trkpt lat="59.6021314" lon="14.9244409">
        <ele>112</ele>
        <time>2012-07-19T21:04:56Z</time>
      </trkpt>
      <trkpt lat="59.6024336" lon="14.9248909">
        <ele>108.4</ele>
        <time>2012-07-19T21:04:59Z</time>
      </trkpt>
      <trkpt lat="59.6027727" lon="14.9253001">
        <ele>106.2</ele>
        <time>2012-07-19T21:05:02Z</time>
      </trkpt>
      <trkpt lat="59.6031203" lon="14.9257064">
        <ele>104.8</ele>
        <time>2012-07-19T21:05:05Z</time>
      </trkpt>
      <trkpt lat="59.6034576" lon="14.9261446">
        <ele>103</ele>
        <time>2012-07-19T21:05:08Z</time>
      </trkpt>
      <trkpt lat="59.6037664" lon="14.9266311">
        <ele>100.4</ele>
        <time>2012-07-19T21:05:11Z</time>
      </trkpt>
      <trkpt lat="59.6040526" lon="14.9271226">
        <ele>98.4</ele>
        <time>2012-07-19T21:05:14Z</time>
      </trkpt>
      <trkpt lat="59.6043867" lon="14.9277173">
        <ele>96.4</ele>
        <time>2012-07-19T21:05:18Z</time>
      </trkpt>
      <trkpt lat="59.6046645" lon="14.9282136">
        <ele>94.4</ele>
        <time>2012-07-19T21:05:22Z</time>
      </trkpt>
      <trkpt lat="59.6049298" lon="14.9287088">
        <ele>92.4</ele>
        <time>2012-07-19T21:05:26Z</time>
      </trkpt>
      <trkpt lat="59.6050431" lon="14.9289177">
        <ele>91.6</ele>
        <time>2012-07-19T21:05:28Z</time>
      </trkpt>
      <trkpt lat="59.6052773" lon="14.9291192">
        <ele>91</ele>
        <time>2012-07-19T21:05:31Z</time>
      </trkpt>
      <trkpt lat="59.6056687" lon="14.9292578">
        <ele>89.8</ele>
        <time>2012-07-19T21:05:35Z</time>
      </trkpt>
      <trkpt lat="59.6060461" lon="14.9295164">
        <ele>88.8</ele>
        <time>2012-07-19T21:05:39Z</time>
      </trkpt>
      <trkpt lat="59.6064136" lon="14.9298251">
        <ele>88.4</ele>
        <time>2012-07-19T21:05:43Z</time>
      </trkpt>
      <trkpt lat="59.6067852" lon="14.9301332">
        <ele>87.4</ele>
        <time>2012-07-19T21:05:47Z</time>
      </trkpt>
      <trkpt lat="59.607165" lon="14.9303795">
        <ele>86.6</ele>
        <time>2012-07-19T21:05:51Z</time>
      </trkpt>
      <trkpt lat="59.6075476" lon="14.9305255">
        <ele>86.2</ele>
        <time>2012-07-19T21:05:55Z</time>
      </trkpt>
      <trkpt lat="59.6079377" lon="14.9306186">
        <ele>87.2</ele>
        <time>2012-07-19T21:05:59Z</time>
      </trkpt>
      <trkpt lat="59.608323" lon="14.9306985">
        <ele>87.6</ele>
        <time>2012-07-19T21:06:03Z</time>
      </trkpt>
      <trkpt lat="59.6087081" lon="14.9307802">
        <ele>88.2</ele>
        <time>2012-07-19T21:06:07Z</time>
      </trkpt>
      <trkpt lat="59.6090802" lon="14.9308641">
        <ele>88.6</ele>
        <time>2012-07-19T21:06:11Z</time>
      </trkpt>
      <trkpt lat="59.6095267" lon="14.9309619">
        <ele>89</ele>
        <time>2012-07-19T21:06:16Z</time>
      </trkpt>
      <trkpt lat="59.6098839" lon="14.9310365">
        <ele>89.8</ele>
        <time>2012-07-19T21:06:20Z</time>
      </trkpt>
      <trkpt lat="59.6102343" lon="14.931115">
        <ele>90.2</ele>
        <time>2012-07-19T21:06:24Z</time>
      </trkpt>
      <trkpt lat="59.6106486" lon="14.9311937">
        <ele>90.4</ele>
        <time>2012-07-19T21:06:29Z</time>
      </trkpt>
      <trkpt lat="59.6110402" lon="14.9312528">
        <ele>90.6</ele>
        <time>2012-07-19T21:06:34Z</time>
      </trkpt>
      <trkpt lat="59.6114151" lon="14.9313004">
        <ele>90.8</ele>
        <time>2012-07-19T21:06:39Z</time>
      </trkpt>
      <trkpt lat="59.6117939" lon="14.9313406">
        <ele>90.8</ele>
        <time>2012-07-19T21:06:44Z</time>
      </trkpt>
      <trkpt lat="59.6121887" lon="14.931388">
        <ele>90.8</ele>
        <time>2012-07-19T21:06:50Z</time>
      </trkpt>
      <trkpt lat="59.6125772" lon="14.9314235">
        <ele>92</ele>
        <time>2012-07-19T21:06:56Z</time>
      </trkpt>
    </trkseg>
  </trk>
</gpx>